[[{"header":{"parameterUnit":"m.s-1","parameterCategory":1,"la1":31.0,"la2":29.5877,"lo1":-88.7671,"lo2":-86.6584,"dy":0.0162,"dx":0.0185,"nx":115,"ny":88,"refTime":"2024-03-25T18:00:00:Z","depth":0,"parameterNumber":2,"parameterNumberName":"U-component_of_WINDS"},"data":[0.0,0.0,0.0,0.0,0.0,0.0,0.0,0.0,0.0,0.0,0.0,0.0,0.0,0.0,0.0,0.0,0.0,0.0,0.0,0.0,0.0,0.0,0.0,0.0,0.0,0.0,0.0,0.0,0.0,0.0,0.0,0.0,0.0,0.0,0.0,0.0,0.0,0.0,0.0,0.0,0.0,0.0,0.0,0.0,0.0,0.0,0.0,0.0,0.0,0.0,0.0,0.0,0.0,0.0,0.0,0.0,0.0,0.0,0.0,0.0,0.0,0.0,0.0,0.0,0.0,0.0,0.0,0.0,0.0,0.0,0.0,0.0,0.0,0.0,0.0,0.0,0.0,0.0,0.0,0.0,0.0,0.0,0.0,0.0,0.0,0.0,0.0,0.0,0.0,0.0,0.0,0.0,0.0,0.0,0.0,0.0,0.0,0.0,0.0,0.0,0.0,0.0,0.0,0.0,0.0,0.0,0.0,0.0,0.0,0.0,0.0,0.0,0.0,0.0,0.0,0.0,0.0,0.0,0.0,0.0,0.0,0.0,0.0,0.0,0.0,0.0,0.0,0.0,0.0,0.0,0.0,0.0,0.0,0.0,0.0,0.0,0.0,0.0,0.0,0.0,0.0,0.0,0.0,0.0,0.0,0.0,0.0,0.0,0.0,0.0,0.0,0.0,0.0,0.0,0.0,0.0,0.0,0.0,0.0,0.0,0.0,0.0,0.0,0.0,0.0,0.0,0.0,0.0,0.0,0.0,0.0,0.0,0.0,0.0,0.0,0.0,0.0,0.0,0.0,0.0,0.0,0.0,0.0,0.0,0.0,0.0,0.0,0.0,0.0,0.0,0.0,0.0,0.0,0.0,0.0,0.0,0.0,0.0,0.0,0.0,0.0,0.0,0.0,0.0,0.0,0.0,0.0,0.0,0.0,0.0,0.0,0.0,0.0,0.0,0.0,0.0,0.0,0.0,0.0,0.0,0.0,0.0,0.0,0.0,0.0,0.0,0.0,0.0,0.0,0.0,0.0,0.0,0.0,0.0,0.0,0.0,0.0,0.0,0.0,0.0,0.0,0.0,0.0,0.0,0.0,0.0,0.0,0.0,0.0,0.0,0.0,0.0,0.0,0.0,0.0,0.0,0.0,0.0,0.0,0.0,0.0,0.0,0.0,0.0,0.0,0.0,0.0,0.0,0.0,0.0,0.0,0.0,0.0,0.0,0.0,0.0,0.0,0.0,0.0,0.0,0.0,0.0,0.0,0.0,0.0,0.0,0.0,0.0,0.0,0.0,0.0,0.0,0.0,0.0,0.0,0.0,0.0,0.0,0.0,0.0,0.0,0.0,0.0,0.0,0.0,0.0,0.0,0.0,0.0,0.0,0.0,0.0,0.0,0.0,0.0,0.0,0.0,0.0,0.0,0.0,0.0,0.0,0.0,0.0,0.0,0.0,0.0,0.0,0.0,0.0,0.0,0.0,0.0,0.0,0.0,0.0,0.0,0.0,0.0,0.0,0.0,0.0,0.0,0.0,0.0,0.0,0.0,0.0,0.0,0.0,0.0,0.0,0.0,0.0,0.0,0.0,0.0,0.0,0.0,0.0,0.0,0.0,0.0,0.0,0.0,0.0,0.0,0.0,0.0,0.0,0.0,0.0,0.0,0.0,0.0,0.0,0.0,0.0,0.0,0.0,0.0,0.0,0.0,0.0,0.0,0.0,0.0,0.0,0.0,0.0,0.0,0.0,0.0,0.0,0.0,0.0,0.0,0.0,0.0,0.0,0.0,0.0,0.0,0.0,0.0,0.0,0.0,0.0,0.0,0.0,0.0,0.0,0.0,0.0,0.0,0.0,0.0,0.0,0.0,0.0,0.0,0.0,0.0,0.0,0.0,0.0,0.0,0.0,0.0,0.0,0.0,0.0,0.0,0.0,0.0,0.0,0.0,0.0,0.0,0.0,0.0,0.0,0.0,0.0,0.0,0.0,0.0,0.0,0.0,0.0,0.0,0.0,0.0,0.0,0.0,0.0,0.0,0.0,0.0,0.0,0.0,0.0,0.0,0.0,0.0,0.0,0.0,0.0,0.0,0.0,0.0,0.0,0.0,0.0,0.0,0.0,0.0,0.0,0.0,0.0,0.0,0.0,0.0,0.0,0.0,0.0,0.0,0.0,0.0,0.0,0.0,0.0,0.0,0.0,0.0,0.0,0.0,0.0,0.0,0.0,0.0,0.0,0.0,0.0,0.0,0.0,0.0,0.0,0.0,0.0,0.0,0.0,0.0,0.0,0.0,0.0,0.0,0.0,0.0,0.0,0.0,0.0,0.0,0.0,0.0,0.0,0.0,0.0,0.0,0.0,0.0,0.0,0.0,0.0,0.0,0.0,0.0,0.0,0.0,0.0,0.0,0.0,0.0,0.0,0.0,0.0,0.0,0.0,0.0,0.0,0.0,0.0,0.0,0.0,0.0,0.0,0.0,0.0,0.0,0.0,0.0,0.0,0.0,0.0,0.0,0.0,0.0,0.0,0.0,0.0,0.0,0.0,0.0,0.0,0.0,0.0,0.0,0.0,0.0,0.0,0.0,0.0,0.0,0.0,0.0,0.0,0.0,0.0,0.0,0.0,0.0,0.0,0.0,0.0,0.0,0.0,0.0,0.0,0.0,0.0,0.0,0.0,0.0,0.0,0.0,0.0,0.0,0.0,0.0,0.0,0.0,0.0,0.0,0.0,0.0,0.0,0.0,0.0,0.0,0.0,0.0,0.0,0.0,0.0,0.0,0.0,0.0,0.0,0.0,0.0,0.0,0.0,0.0,0.0,0.0,0.0,0.0,0.0,0.0,0.0,0.0,0.0,0.0,0.0,0.0,0.0,0.0,0.0,0.0,0.0,0.0,0.0,0.0,0.0,0.0,0.0,0.0,0.0,0.0,0.0,0.0,0.0,0.0,0.0,0.0,0.0,0.0,0.0,0.0,0.0,0.0,0.0,0.0,0.0,0.0,0.0,0.0,0.0,0.0,0.0,0.0,0.0,0.0,0.0,0.0,0.0,0.0,0.0,0.0,0.0,0.0,0.0,0.0,0.0,0.0,0.0,0.0,0.0,0.0,0.0,0.0,0.0,0.0,0.0,0.0,0.0,0.0,0.0,0.0,0.0,0.0,0.0,0.0,0.0,0.0,0.0,0.0,0.0,0.0,0.0,0.0,0.0,0.0,0.0,0.0,0.0,0.0,0.0,0.0,0.0,0.0,0.0,0.0,0.0,0.0,0.0,0.0,0.0,0.0,0.0,0.0,0.0,0.0,0.0,0.0,0.0,0.0,0.0,0.0,0.0,0.0,0.0,0.0,0.0,0.0,0.0,0.0,0.0,0.0,0.0,0.0,0.0,0.0,0.0,0.0,0.0,0.0,0.0,0.0,0.0,0.0,0.0,0.0,0.0,0.0,0.0,0.0,0.0,0.0,0.0,0.0,0.0,0.0,0.0,0.0,0.0,0.0,0.0,0.0,0.0,0.0,0.0,0.0,0.0,0.0,0.0,0.0,0.0,0.0,0.0,0.0,0.0,0.0,0.0,0.0,0.0,0.0,0.0,0.0,0.0,0.0,0.0,0.0,0.0,0.0,0.0,0.0,0.0,0.0,0.0,0.0,0.0,0.0,0.0,0.0,0.0,0.0,0.0,0.0,0.0,0.0,0.0,0.0,0.0,0.0,0.0,0.0,0.0,0.0,0.0,0.0,0.0,0.0,0.0,0.0,0.0,0.0,0.0,0.0,0.0,0.0,0.0,0.0,0.0,0.0,0.0,0.0,0.0,0.0,0.0,0.0,0.0,0.0,0.0,0.0,0.0,0.0,0.0,0.0,0.0,0.0,0.0,0.0,0.0,0.0,0.0,0.0,0.0,0.0,0.0,0.0,0.0,0.0,0.0,0.0,0.0,0.0,0.0,0.0,0.0,0.0,0.0,0.0,0.0,0.0,0.0,0.0,0.0,0.0,0.0,0.0,0.0,0.0,0.0,0.0,0.0,0.0,0.0,0.0,0.0,0.0,0.0,0.0,0.0,0.0,0.0,0.0,0.0,0.0,0.0,0.0,0.0,0.0,0.0,0.0,0.0,0.0,0.0,0.0,0.0,0.0,0.0,0.0,0.0,0.0,0.0,0.0,0.0,0.0,0.0,0.0,0.0,0.0,0.0,0.0,0.0,0.0,0.0,0.0,0.0,0.0,0.0,0.0,0.0,0.0,0.0,0.0,0.0,0.0,0.0,0.0,0.0,0.0,0.0,0.0,0.0,4.6735,0.0,0.0,0.0,0.0,0.0,0.0,0.0,0.0,0.0,0.0,0.0,0.0,0.0,0.0,0.0,0.0,0.0,0.0,0.0,0.0,0.0,0.0,0.0,0.0,0.0,0.0,0.0,0.0,0.0,0.0,0.0,0.0,0.0,0.0,0.0,0.0,0.0,0.0,0.0,0.0,0.0,0.0,0.0,0.0,0.0,0.0,0.0,0.0,0.0,0.0,0.0,0.0,0.0,0.0,0.0,0.0,0.0,0.0,0.0,0.0,0.0,0.0,0.0,0.0,0.0,0.0,0.0,0.0,0.0,0.0,0.0,0.0,0.0,0.0,0.0,0.0,0.0,0.0,0.0,0.0,0.0,0.0,0.0,0.0,0.0,0.0,0.0,0.0,0.0,0.0,0.0,0.0,0.0,0.0,0.0,0.0,0.0,0.0,0.0,0.0,0.0,0.0,0.0,0.0,0.0,0.0,0.0,0.0,0.0,0.0,4.7486,4.628,4.7432,4.7509,4.6278,0.0,0.0,0.0,0.0,0.0,0.0,0.0,0.0,0.0,0.0,0.0,0.0,0.0,0.0,0.0,0.0,0.0,0.0,0.0,0.0,0.0,0.0,0.0,0.0,0.0,0.0,0.0,0.0,0.0,0.0,0.0,0.0,0.0,0.0,0.0,0.0,0.0,0.0,0.0,0.0,0.0,0.0,0.0,0.0,0.0,0.0,0.0,0.0,0.0,0.0,0.0,0.0,0.0,0.0,0.0,0.0,0.0,0.0,0.0,0.0,0.0,0.0,0.0,0.0,0.0,0.0,0.0,0.0,0.0,0.0,0.0,0.0,0.0,0.0,0.0,0.0,0.0,0.0,0.0,0.0,0.0,0.0,0.0,0.0,0.0,0.0,0.0,0.0,0.0,0.0,0.0,0.0,0.0,0.0,0.0,0.0,0.0,0.0,0.0,0.0,0.0,0.0,0.0,0.0,0.0,0.0,0.0,0.0,0.0,0.0,0.0,0.0,4.7507,4.7509,4.6244,0.0,0.0,0.0,0.0,0.0,0.0,0.0,0.0,0.0,0.0,0.0,0.0,0.0,0.0,0.0,0.0,0.0,0.0,0.0,0.0,0.0,0.0,0.0,0.0,0.0,0.0,0.0,0.0,0.0,0.0,0.0,0.0,0.0,0.0,0.0,0.0,0.0,0.0,0.0,0.0,0.0,0.0,0.0,0.0,0.0,0.0,0.0,0.0,0.0,0.0,0.0,0.0,0.0,0.0,0.0,0.0,0.0,0.0,0.0,0.0,0.0,0.0,0.0,0.0,0.0,0.0,0.0,0.0,0.0,0.0,0.0,0.0,0.0,0.0,0.0,0.0,0.0,0.0,0.0,0.0,0.0,0.0,0.0,0.0,0.0,0.0,0.0,0.0,0.0,0.0,0.0,0.0,0.0,0.0,0.0,0.0,0.0,0.0,0.0,0.0,0.0,0.0,0.0,0.0,0.0,0.0,0.0,0.0,0.0,0.0,4.6826,4.8973,4.8432,0.0,4.7815,0.0,0.0,0.0,0.0,0.0,0.0,0.0,0.0,0.0,0.0,0.0,0.0,0.0,0.0,0.0,0.0,0.0,0.0,0.0,0.0,0.0,0.0,0.0,0.0,0.0,0.0,0.0,0.0,0.0,0.0,0.0,0.0,0.0,0.0,0.0,0.0,0.0,0.0,0.0,0.0,0.0,0.0,0.0,0.0,0.0,0.0,0.0,0.0,0.0,0.0,0.0,0.0,0.0,0.0,0.0,0.0,0.0,0.0,0.0,0.0,0.0,0.0,0.0,0.0,0.0,0.0,0.0,0.0,0.0,0.0,0.0,0.0,0.0,0.0,0.0,0.0,0.0,0.0,0.0,0.0,0.0,0.0,0.0,0.0,0.0,0.0,0.0,0.0,0.0,0.0,0.0,0.0,0.0,0.0,0.0,0.0,0.0,0.0,0.0,0.0,0.0,0.0,0.0,0.0,0.0,0.0,0.0,0.0,0.0,0.0,4.6565,4.8582,4.8315,4.7622,0.0,0.0,0.0,0.0,0.0,0.0,0.0,0.0,0.0,0.0,0.0,0.0,0.0,0.0,0.0,0.0,0.0,0.0,0.0,0.0,0.0,0.0,0.0,0.0,0.0,0.0,0.0,0.0,0.0,0.0,0.0,0.0,0.0,0.0,0.0,0.0,0.0,0.0,0.0,0.0,0.0,0.0,0.0,0.0,0.0,0.0,0.0,0.0,0.0,0.0,0.0,0.0,0.0,0.0,0.0,0.0,0.0,0.0,0.0,0.0,0.0,0.0,0.0,0.0,0.0,0.0,0.0,0.0,0.0,0.0,0.0,0.0,0.0,0.0,0.0,0.0,0.0,0.0,0.0,0.0,0.0,0.0,0.0,0.0,0.0,0.0,0.0,0.0,0.0,0.0,0.0,0.0,0.0,0.0,0.0,0.0,0.0,0.0,0.0,0.0,0.0,0.0,0.0,0.0,0.0,0.0,0.0,0.0,0.0,0.0,4.6203,4.6774,4.831,4.7776,4.6932,4.5973,0.0,0.0,0.0,0.0,0.0,0.0,0.0,0.0,0.0,0.0,0.0,0.0,0.0,0.0,0.0,0.0,0.0,0.0,0.0,0.0,0.0,0.0,0.0,0.0,0.0,0.0,0.0,0.0,0.0,0.0,0.0,0.0,0.0,0.0,0.0,0.0,0.0,0.0,0.0,0.0,0.0,0.0,0.0,0.0,0.0,0.0,0.0,0.0,0.0,0.0,0.0,0.0,0.0,0.0,0.0,0.0,0.0,0.0,0.0,0.0,0.0,0.0,0.0,0.0,0.0,0.0,0.0,0.0,0.0,0.0,0.0,0.0,0.0,0.0,0.0,0.0,0.0,0.0,0.0,0.0,0.0,0.0,0.0,0.0,0.0,0.0,0.0,0.0,0.0,0.0,0.0,0.0,0.0,0.0,0.0,0.0,0.0,0.0,0.0,0.0,0.0,0.0,0.0,0.0,0.0,0.0,0.0,0.0,4.9012,4.7633,4.7633,4.9204,4.6977,4.6088,0.0,0.0,0.0,0.0,0.0,0.0,0.0,0.0,0.0,0.0,0.0,0.0,0.0,0.0,0.0,0.0,0.0,0.0,0.0,0.0,0.0,0.0,0.0,0.0,0.0,0.0,0.0,0.0,0.0,0.0,0.0,0.0,0.0,0.0,0.0,0.0,0.0,0.0,0.0,0.0,0.0,0.0,0.0,0.0,0.0,0.0,0.0,0.0,0.0,0.0,0.0,0.0,0.0,0.0,0.0,0.0,0.0,0.0,0.0,0.0,0.0,0.0,0.0,0.0,0.0,0.0,0.0,0.0,0.0,0.0,0.0,0.0,0.0,0.0,0.0,0.0,0.0,0.0,0.0,0.0,0.0,0.0,0.0,0.0,0.0,0.0,0.0,0.0,0.0,0.0,0.0,0.0,0.0,0.0,0.0,0.0,0.0,0.0,0.0,0.0,0.0,0.0,0.0,0.0,0.0,0.0,0.0,0.0,0.0,4.6937,4.7425,4.7959,4.8507,4.7663,4.6584,0.0,0.0,0.0,0.0,0.0,0.0,0.0,0.0,0.0,0.0,0.0,0.0,0.0,0.0,0.0,0.0,0.0,0.0,0.0,0.0,0.0,0.0,0.0,0.0,0.0,0.0,0.0,0.0,0.0,0.0,0.0,0.0,0.0,0.0,0.0,0.0,0.0,0.0,0.0,0.0,0.0,0.0,0.0,0.0,0.0,0.0,0.0,0.0,0.0,0.0,0.0,0.0,0.0,0.0,0.0,0.0,0.0,0.0,0.0,0.0,0.0,0.0,0.0,0.0,0.0,0.0,0.0,0.0,0.0,0.0,0.0,0.0,0.0,0.0,0.0,0.0,0.0,0.0,0.0,0.0,0.0,0.0,0.0,0.0,0.0,0.0,0.0,0.0,0.0,0.0,0.0,0.0,0.0,0.0,0.0,0.0,0.0,0.0,0.0,0.0,0.0,0.0,0.0,0.0,0.0,0.0,0.0,0.0,0.0,4.6436,0.0,4.8394,4.8122,4.7851,4.6507,0.0,0.0,0.0,0.0,0.0,0.0,0.0,0.0,0.0,0.0,0.0,0.0,0.0,0.0,0.0,0.0,0.0,0.0,0.0,0.0,0.0,0.0,0.0,0.0,0.0,0.0,0.0,0.0,0.0,0.0,0.0,0.0,0.0,0.0,0.0,0.0,0.0,0.0,0.0,0.0,0.0,0.0,0.0,0.0,0.0,0.0,0.0,0.0,0.0,0.0,0.0,0.0,0.0,0.0,0.0,0.0,0.0,0.0,0.0,0.0,0.0,0.0,0.0,0.0,0.0,0.0,0.0,0.0,0.0,0.0,0.0,0.0,0.0,0.0,0.0,0.0,0.0,0.0,0.0,0.0,0.0,0.0,0.0,0.0,0.0,0.0,0.0,0.0,0.0,0.0,0.0,0.0,0.0,0.0,0.0,0.0,0.0,0.0,0.0,0.0,0.0,0.0,0.0,0.0,0.0,0.0,0.0,0.0,4.6396,4.7966,4.8856,4.8933,4.8122,4.7389,4.5774,0.0,0.0,0.0,0.0,0.0,0.0,0.0,0.0,0.0,0.0,0.0,0.0,0.0,0.0,0.0,0.0,0.0,0.0,0.0,0.0,0.0,0.0,0.0,0.0,0.0,0.0,0.0,0.0,0.0,0.0,0.0,0.0,0.0,0.0,0.0,0.0,0.0,0.0,0.0,0.0,0.0,0.0,0.0,0.0,0.0,0.0,0.0,0.0,0.0,0.0,0.0,0.0,0.0,0.0,0.0,0.0,0.0,0.0,0.0,0.0,0.0,0.0,0.0,0.0,0.0,0.0,0.0,0.0,0.0,0.0,0.0,0.0,0.0,0.0,0.0,0.0,0.0,0.0,0.0,0.0,0.0,0.0,0.0,0.0,0.0,0.0,0.0,0.0,0.0,0.0,0.0,0.0,0.0,0.0,0.0,0.0,0.0,0.0,0.0,0.0,0.0,0.0,0.0,0.0,0.0,0.0,0.0,0.0,0.0,4.6414,4.7758,4.8663,4.893,4.7622,4.6504,0.0,0.0,0.0,0.0,0.0,0.0,0.0,0.0,0.0,0.0,0.0,0.0,0.0,0.0,0.0,0.0,0.0,0.0,0.0,0.0,0.0,0.0,0.0,0.0,0.0,0.0,0.0,0.0,0.0,0.0,0.0,0.0,0.0,0.0,0.0,0.0,0.0,0.0,0.0,0.0,0.0,0.0,0.0,0.0,0.0,0.0,0.0,0.0,0.0,0.0,0.0,0.0,0.0,0.0,0.0,0.0,0.0,0.0,0.0,0.0,0.0,0.0,0.0,0.0,0.0,0.0,0.0,0.0,0.0,0.0,0.0,0.0,0.0,0.0,0.0,0.0,0.0,0.0,0.0,0.0,0.0,0.0,0.0,0.0,0.0,0.0,0.0,0.0,0.0,0.0,0.0,0.0,0.0,0.0,0.0,0.0,0.0,0.0,0.0,0.0,0.0,0.0,0.0,0.0,0.0,0.0,0.0,0.0,0.0,4.6215,4.8027,4.932,4.9897,4.8548,4.7394,4.6432,0.0,0.0,0.0,0.0,0.0,0.0,0.0,0.0,0.0,0.0,0.0,0.0,0.0,0.0,0.0,0.0,0.0,0.0,0.0,0.0,0.0,0.0,0.0,0.0,0.0,0.0,0.0,0.0,0.0,0.0,0.0,0.0,0.0,0.0,0.0,0.0,0.0,0.0,0.0,0.0,0.0,0.0,0.0,0.0,0.0,0.0,0.0,0.0,0.0,0.0,0.0,0.0,0.0,0.0,0.0,0.0,0.0,0.0,0.0,0.0,0.0,0.0,0.0,0.0,0.0,0.0,0.0,0.0,0.0,0.0,0.0,0.0,0.0,0.0,0.0,0.0,0.0,0.0,0.0,0.0,0.0,0.0,0.0,0.0,0.0,0.0,0.0,0.0,0.0,0.0,0.0,0.0,0.0,0.0,0.0,0.0,0.0,0.0,0.0,0.0,0.0,0.0,0.0,0.0,0.0,0.0,0.0,0.0,4.7047,4.9423,5.0709,5.0748,4.9858,4.8283,0.0,0.0,0.0,0.0,0.0,0.0,0.0,0.0,0.0,0.0,0.0,0.0,0.0,0.0,0.0,0.0,0.0,0.0,0.0,0.0,0.0,0.0,0.0,0.0,0.0,0.0,0.0,0.0,0.0,0.0,0.0,0.0,0.0,0.0,0.0,0.0,0.0,0.0,0.0,0.0,0.0,0.0,0.0,0.0,0.0,0.0,0.0,0.0,0.0,0.0,0.0,0.0,0.0,0.0,0.0,0.0,0.0,0.0,0.0,0.0,0.0,0.0,0.0,0.0,0.0,0.0,0.0,0.0,0.0,0.0,0.0,0.0,0.0,0.0,0.0,0.0,0.0,0.0,0.0,0.0,0.0,0.0,0.0,0.0,0.0,0.0,0.0,0.0,0.0,0.0,0.0,0.0,0.0,0.0,0.0,0.0,0.0,0.0,0.0,0.0,0.0,0.0,0.0,0.0,0.0,0.0,0.0,0.0,0.0,4.8745,5.0043,5.0974,5.1505,5.0164,4.9399,0.0,0.0,0.0,0.0,0.0,0.0,0.0,0.0,0.0,0.0,0.0,0.0,0.0,0.0,0.0,0.0,0.0,0.0,0.0,0.0,0.0,0.0,0.0,0.0,0.0,0.0,0.0,0.0,0.0,0.0,0.0,0.0,0.0,0.0,0.0,0.0,0.0,0.0,0.0,0.0,0.0,0.0,0.0,0.0,0.0,0.0,0.0,0.0,0.0,0.0,0.0,0.0,0.0,0.0,0.0,0.0,0.0,0.0,0.0,0.0,0.0,0.0,0.0,0.0,0.0,0.0,0.0,0.0,0.0,0.0,0.0,0.0,0.0,0.0,0.0,0.0,0.0,0.0,0.0,0.0,0.0,0.0,0.0,0.0,0.0,0.0,0.0,0.0,0.0,0.0,0.0,0.0,0.0,0.0,0.0,0.0,0.0,0.0,0.0,0.0,0.0,0.0,0.0,0.0,0.0,0.0,0.0,0.0,4.7385,4.8337,4.9889,5.0899,5.1395,5.0435,4.9822,0.0,0.0,0.0,0.0,0.0,0.0,0.0,0.0,0.0,0.0,0.0,0.0,0.0,0.0,0.0,0.0,0.0,0.0,0.0,0.0,0.0,0.0,0.0,0.0,0.0,0.0,0.0,0.0,0.0,0.0,0.0,0.0,0.0,0.0,0.0,0.0,0.0,0.0,0.0,0.0,0.0,0.0,0.0,0.0,0.0,0.0,0.0,0.0,0.0,0.0,0.0,0.0,0.0,0.0,0.0,0.0,0.0,0.0,0.0,0.0,0.0,0.0,0.0,0.0,0.0,0.0,0.0,0.0,0.0,0.0,0.0,0.0,0.0,0.0,0.0,0.0,0.0,0.0,0.0,0.0,0.0,0.0,0.0,0.0,0.0,0.0,0.0,0.0,0.0,0.0,0.0,0.0,0.0,0.0,0.0,0.0,0.0,0.0,0.0,0.0,0.0,0.0,0.0,0.0,0.0,0.0,0.0,0.0,4.6889,4.6928,4.9204,5.0399,5.0438,5.0517,4.9822,0.0,0.0,0.0,0.0,0.0,0.0,0.0,0.0,0.0,0.0,0.0,0.0,0.0,0.0,0.0,0.0,0.0,0.0,0.0,0.0,0.0,0.0,0.0,0.0,0.0,0.0,0.0,0.0,0.0,0.0,0.0,0.0,0.0,0.0,0.0,0.0,0.0,0.0,0.0,0.0,0.0,0.0,0.0,0.0,0.0,0.0,0.0,0.0,0.0,0.0,0.0,0.0,0.0,0.0,0.0,0.0,0.0,0.0,0.0,0.0,0.0,0.0,0.0,0.0,0.0,0.0,0.0,0.0,0.0,0.0,0.0,0.0,0.0,0.0,0.0,0.0,0.0,0.0,0.0,0.0,0.0,0.0,0.0,0.0,0.0,0.0,0.0,0.0,0.0,0.0,0.0,0.0,0.0,0.0,0.0,0.0,0.0,0.0,0.0,0.0,0.0,0.0,0.0,0.0,0.0,0.0,0.0,0.0,4.6889,4.6928,4.8045,4.8661,4.8661,4.932,4.9512,0.0,0.0,0.0,0.0,0.0,0.0,0.0,0.0,0.0,0.0,0.0,0.0,0.0,0.0,0.0,0.0,0.0,0.0,0.0,0.0,0.0,0.0,0.0,0.0,0.0,0.0,0.0,0.0,0.0,0.0,0.0,0.0,0.0,0.0,0.0,0.0,0.0,0.0,0.0,0.0,0.0,0.0,0.0,0.0,0.0,0.0,0.0,0.0,4.8342,0.0,0.0,0.0,0.0,0.0,0.0,0.0,0.0,0.0,0.0,0.0,0.0,0.0,0.0,0.0,0.0,0.0,0.0,0.0,0.0,0.0,0.0,0.0,0.0,0.0,0.0,0.0,0.0,0.0,0.0,0.0,0.0,0.0,0.0,0.0,0.0,0.0,0.0,0.0,0.0,0.0,0.0,0.0,0.0,0.0,0.0,0.0,0.0,0.0,0.0,0.0,0.0,0.0,0.0,0.0,0.0,0.0,0.0,0.0,4.628,4.6317,4.7084,4.7543,4.7545,4.8353,4.8625,0.0,0.0,0.0,0.0,0.0,0.0,0.0,0.0,0.0,0.0,0.0,0.0,0.0,0.0,0.0,0.0,0.0,0.0,0.0,0.0,0.0,0.0,0.0,0.0,0.0,0.0,0.0,0.0,0.0,0.0,0.0,0.0,0.0,0.0,0.0,0.0,0.0,0.0,0.0,0.0,0.0,0.0,0.0,0.0,0.0,0.0,0.0,0.0,0.0,0.0,0.0,0.0,0.0,0.0,0.0,0.0,0.0,0.0,0.0,0.0,0.0,0.0,0.0,0.0,0.0,0.0,0.0,0.0,0.0,0.0,0.0,0.0,0.0,0.0,0.0,0.0,0.0,0.0,0.0,0.0,0.0,0.0,0.0,0.0,0.0,0.0,0.0,0.0,0.0,0.0,0.0,0.0,0.0,0.0,0.0,0.0,0.0,0.0,0.0,0.0,0.0,0.0,0.0,0.0,0.0,0.0,0.0,4.5554,4.5479,4.5631,4.6317,4.6697,4.6738,4.7353,4.7391,4.6738,0.0,0.0,0.0,0.0,0.0,0.0,0.0,0.0,0.0,0.0,0.0,0.0,0.0,0.0,0.0,0.0,0.0,0.0,0.0,0.0,0.0,0.0,0.0,0.0,0.0,0.0,0.0,0.0,0.0,0.0,0.0,0.0,0.0,0.0,0.0,0.0,0.0,0.0,4.7314,4.8836,0.0,0.0,0.0,0.0,0.0,0.0,0.0,0.0,4.961,0.0,0.0,0.0,0.0,0.0,0.0,0.0,0.0,0.0,0.0,0.0,0.0,0.0,0.0,0.0,0.0,0.0,0.0,0.0,0.0,0.0,0.0,0.0,0.0,0.0,0.0,0.0,0.0,0.0,0.0,0.0,0.0,0.0,0.0,0.0,0.0,0.0,0.0,0.0,0.0,0.0,0.0,0.0,0.0,0.0,0.0,0.0,0.0,0.0,0.0,0.0,0.0,0.0,0.0,0.0,0.0,4.6664,4.5252,4.4857,4.5592,4.5748,4.5782,4.5823,4.5939,4.5936,4.5859,0.0,0.0,0.0,0.0,0.0,0.0,0.0,0.0,0.0,0.0,0.0,0.0,0.0,0.0,0.0,0.0,0.0,0.0,0.0,0.0,0.0,0.0,0.0,0.0,0.0,0.0,0.0,0.0,0.0,0.0,0.0,0.0,0.0,0.0,0.0,0.0,0.0,0.0,0.0,5.0899,5.1618,0.0,0.0,0.0,0.0,0.0,0.0,0.0,0.0,4.9527,0.0,0.0,0.0,0.0,0.0,0.0,0.0,0.0,0.0,0.0,0.0,0.0,0.0,0.0,0.0,0.0,0.0,0.0,0.0,0.0,0.0,0.0,0.0,0.0,0.0,0.0,0.0,0.0,0.0,0.0,0.0,0.0,0.0,0.0,0.0,0.0,0.0,0.0,0.0,0.0,0.0,0.0,0.0,0.0,0.0,0.0,0.0,0.0,0.0,0.0,0.0,0.0,0.0,0.0,0.0,4.5507,4.5178,4.5167,4.5592,4.5592,4.5592,4.5592,4.5592,4.5361,0.0,0.0,0.0,0.0,0.0,0.0,0.0,0.0,0.0,0.0,0.0,0.0,0.0,0.0,0.0,0.0,0.0,0.0,0.0,0.0,0.0,0.0,0.0,0.0,0.0,0.0,0.0,0.0,0.0,0.0,0.0,0.0,0.0,0.0,0.0,0.0,0.0,0.0,0.0,0.0,5.1318,5.1892,5.3623,0.0,0.0,0.0,0.0,0.0,0.0,5.0243,4.9854,0.0,0.0,0.0,0.0,0.0,0.0,0.0,0.0,0.0,0.0,0.0,0.0,0.0,0.0,0.0,0.0,0.0,0.0,0.0,0.0,0.0,0.0,0.0,0.0,0.0,0.0,0.0,0.0,0.0,0.0,0.0,0.0,0.0,0.0,0.0,0.0,0.0,0.0,0.0,0.0,0.0,0.0,0.0,0.0,0.0,0.0,0.0,0.0,0.0,0.0,0.0,0.0,0.0,0.0,0.0,4.4337,4.4979,4.5438,4.5592,4.5592,4.5592,4.5592,4.5592,4.5205,0.0,0.0,0.0,0.0,0.0,0.0,0.0,0.0,0.0,0.0,0.0,0.0,0.0,0.0,0.0,0.0,0.0,0.0,0.0,0.0,0.0,0.0,0.0,0.0,0.0,0.0,0.0,0.0,0.0,0.0,0.0,0.0,0.0,0.0,0.0,0.0,0.0,0.0,0.0,0.0,0.0,5.2628,5.509,5.3582,0.0,0.0,0.0,0.0,5.117,5.15,0.0,0.0,0.0,0.0,0.0,0.0,0.0,0.0,0.0,0.0,0.0,0.0,0.0,0.0,0.0,0.0,0.0,0.0,0.0,0.0,0.0,0.0,0.0,0.0,0.0,0.0,0.0,0.0,0.0,0.0,0.0,0.0,0.0,0.0,0.0,0.0,0.0,0.0,0.0,0.0,0.0,0.0,0.0,0.0,0.0,0.0,0.0,0.0,0.0,0.0,0.0,0.0,0.0,0.0,0.0,0.0,4.4254,4.4385,4.4821,4.5554,4.5592,4.5592,4.5592,4.5592,4.5208,0.0,0.0,0.0,0.0,0.0,0.0,0.0,0.0,0.0,0.0,0.0,0.0,0.0,0.0,0.0,0.0,0.0,0.0,0.0,0.0,0.0,0.0,0.0,0.0,0.0,0.0,0.0,0.0,0.0,0.0,0.0,0.0,0.0,0.0,0.0,0.0,0.0,0.0,0.0,0.0,0.0,5.5013,5.4703,5.3739,5.2736,0.0,0.0,5.2039,5.2784,5.414,0.0,0.0,0.0,0.0,0.0,0.0,0.0,0.0,0.0,0.0,0.0,0.0,0.0,0.0,0.0,0.0,0.0,0.0,0.0,0.0,0.0,0.0,0.0,0.0,0.0,0.0,0.0,0.0,0.0,0.0,0.0,0.0,0.0,0.0,0.0,0.0,0.0,0.0,0.0,0.0,0.0,0.0,0.0,0.0,0.0,0.0,0.0,0.0,0.0,0.0,0.0,0.0,0.0,0.0,0.0,4.2637,4.2934,4.4295,4.5246,4.5592,4.5592,4.5592,4.5592,4.5128,4.4244,0.0,0.0,0.0,0.0,0.0,0.0,0.0,0.0,0.0,0.0,0.0,0.0,0.0,0.0,0.0,0.0,0.0,0.0,0.0,0.0,0.0,0.0,0.0,0.0,0.0,0.0,0.0,0.0,0.0,0.0,0.0,0.0,0.0,0.0,0.0,0.0,0.0,0.0,0.0,0.0,0.0,0.0,5.4475,5.4549,0.0,0.0,0.0,5.3487,5.3882,0.0,0.0,0.0,0.0,0.0,0.0,0.0,0.0,0.0,0.0,0.0,0.0,0.0,0.0,0.0,0.0,0.0,0.0,0.0,0.0,0.0,0.0,0.0,0.0,0.0,0.0,0.0,0.0,0.0,0.0,0.0,0.0,0.0,0.0,0.0,0.0,0.0,0.0,0.0,0.0,0.0,0.0,0.0,0.0,0.0,0.0,0.0,0.0,0.0,0.0,0.0,0.0,0.0,0.0,0.0,0.0,0.0,4.185,4.4293,4.5592,4.5592,4.5592,4.5592,4.5592,4.4972,0.0,0.0,0.0,0.0,0.0,0.0,0.0,0.0,0.0,0.0,0.0,0.0,0.0,0.0,0.0,0.0,0.0,0.0,0.0,0.0,0.0,0.0,0.0,0.0,0.0,0.0,0.0,3.6233,0.0,0.0,0.0,0.0,0.0,0.0,0.0,0.0,0.0,0.0,0.0,0.0,0.0,0.0,5.3508,5.4398,5.5167,5.5552,0.0,0.0,5.4739,5.4533,5.5047,5.4348,0.0,0.0,0.0,0.0,0.0,0.0,0.0,0.0,0.0,0.0,0.0,0.0,0.0,0.0,0.0,0.0,0.0,0.0,0.0,0.0,0.0,0.0,0.0,0.0,0.0,0.0,0.0,0.0,0.0,0.0,0.0,0.0,0.0,0.0,0.0,0.0,0.0,0.0,0.0,0.0,0.0,0.0,0.0,0.0,0.0,0.0,0.0,0.0,0.0,0.0,0.0,0.0,0.0,0.0,4.1046,4.1844,4.4316,4.5592,4.5592,4.5592,4.5592,4.5592,4.5554,4.4357,0.0,0.0,0.0,0.0,0.0,0.0,0.0,0.0,0.0,0.0,0.0,0.0,0.0,0.0,0.0,0.0,0.0,0.0,0.0,0.0,0.0,0.0,0.0,0.0,0.0,0.0,0.0,0.0,0.0,0.0,0.0,0.0,0.0,0.0,0.0,0.0,0.0,0.0,0.0,0.0,0.0,5.351,5.4395,5.5167,5.5978,0.0,5.6133,5.5368,5.4605,5.6497,5.6379,5.1487,0.0,0.0,0.0,0.0,0.0,0.0,0.0,0.0,0.0,0.0,0.0,0.0,0.0,0.0,0.0,0.0,0.0,0.0,0.0,0.0,0.0,0.0,0.0,0.0,0.0,0.0,0.0,0.0,0.0,0.0,0.0,0.0,0.0,0.0,0.0,0.0,0.0,0.0,0.0,0.0,0.0,0.0,0.0,0.0,0.0,0.0,0.0,0.0,0.0,0.0,0.0,0.0,0.0,4.0658,4.1018,4.4041,4.5592,4.5592,4.5592,4.5592,4.5592,4.5592,4.4169,0.0,0.0,0.0,0.0,0.0,0.0,0.0,0.0,0.0,0.0,0.0,0.0,0.0,0.0,0.0,0.0,0.0,0.0,0.0,0.0,0.0,0.0,0.0,0.0,0.0,0.0,0.0,0.0,3.8857,3.9667,4.0013,0.0,0.0,0.0,0.0,0.0,0.0,0.0,0.0,0.0,0.0,5.2697,5.3585,5.4859,0.0,0.0,5.5899,5.5599,5.528,5.5196,5.4164,5.1152,4.9644,0.0,0.0,0.0,0.0,0.0,0.0,0.0,0.0,0.0,0.0,0.0,0.0,0.0,0.0,0.0,0.0,0.0,0.0,0.0,0.0,0.0,0.0,0.0,0.0,0.0,0.0,0.0,0.0,0.0,0.0,0.0,0.0,0.0,0.0,0.0,0.0,0.0,0.0,0.0,0.0,0.0,0.0,0.0,0.0,0.0,0.0,0.0,0.0,0.0,0.0,0.0,0.0,4.0502,4.0517,4.3848,4.5592,4.5592,4.5592,4.5592,4.5592,4.5592,4.413,0.0,0.0,0.0,0.0,0.0,0.0,0.0,0.0,0.0,0.0,0.0,0.0,0.0,0.0,0.0,0.0,0.0,0.0,0.0,0.0,0.0,0.0,0.0,0.0,0.0,0.0,0.0,0.0,3.986,4.0591,4.0858,0.0,0.0,0.0,0.0,0.0,0.0,0.0,0.0,0.0,0.0,5.1931,5.3044,5.42,5.5049,5.5321,5.5103,5.4872,5.4602,5.399,5.2867,5.0676,0.0,0.0,0.0,0.0,0.0,0.0,0.0,0.0,0.0,0.0,0.0,0.0,0.0,0.0,0.0,0.0,0.0,0.0,0.0,0.0,0.0,0.0,0.0,0.0,0.0,0.0,0.0,3.9319,0.0,0.0,3.7878,0.0,0.0,0.0,0.0,0.0,0.0,0.0,0.0,0.0,0.0,0.0,0.0,0.0,0.0,0.0,0.0,0.0,0.0,0.0,0.0,0.0,0.0,4.0514,4.0552,4.3863,4.5592,4.5592,4.5592,4.5592,4.5592,4.5592,4.4395,4.1812,0.0,0.0,0.0,0.0,0.0,0.0,0.0,0.0,0.0,0.0,0.0,0.0,0.0,0.0,0.0,0.0,0.0,0.0,0.0,0.0,0.0,0.0,0.0,0.0,0.0,0.0,3.8315,3.9513,4.0819,0.0,0.0,0.0,0.0,0.0,0.0,0.0,0.0,0.0,4.7966,4.9591,5.1323,5.2931,5.3238,5.3623,5.4398,5.3823,5.297,5.2217,5.3377,5.3316,0.0,0.0,0.0,0.0,0.0,0.0,0.0,0.0,0.0,0.0,0.0,0.0,0.0,0.0,0.0,0.0,0.0,0.0,0.0,0.0,0.0,0.0,0.0,0.0,0.0,0.0,0.0,4.062,3.9949,0.0,0.0,0.0,0.0,0.0,0.0,0.0,0.0,0.0,0.0,0.0,4.1498,4.1719,0.0,0.0,0.0,0.0,0.0,0.0,0.0,0.0,0.0,0.0,0.0,0.0,4.0514,4.0668,4.3859,4.5592,4.5592,4.5592,4.5592,4.5592,4.5592,4.4395,4.185,0.0,0.0,0.0,0.0,0.0,0.0,0.0,0.0,0.0,0.0,0.0,0.0,0.0,0.0,0.0,0.0,0.0,0.0,0.0,0.0,0.0,0.0,0.0,0.0,0.0,4.0512,0.0,0.0,0.0,0.0,0.0,0.0,0.0,0.0,0.0,0.0,4.5851,4.6344,4.7176,4.8769,5.0245,5.1397,5.2474,5.3315,0.0,0.0,0.0,0.0,0.0,0.0,0.0,0.0,0.0,0.0,0.0,0.0,0.0,0.0,4.9428,4.7135,4.612,4.5805,4.6329,0.0,0.0,0.0,0.0,0.0,0.0,0.0,0.0,0.0,0.0,0.0,0.0,0.0,0.0,4.1267,4.0469,4.0238,0.0,0.0,0.0,0.0,0.0,0.0,0.0,0.0,4.2612,4.2679,4.2415,4.2679,4.2591,4.2104,4.281,4.1568,0.0,0.0,0.0,0.0,0.0,0.0,0.0,0.0,4.0933,4.1087,4.4013,4.5592,4.5592,4.5592,4.5592,4.5592,4.5323,4.4241,4.2312,4.0085,3.8469,0.0,0.0,0.0,0.0,0.0,0.0,0.0,0.0,0.0,0.0,0.0,0.0,0.0,0.0,0.0,0.0,0.0,0.0,0.0,0.0,0.0,0.0,0.0,4.1306,0.0,0.0,0.0,0.0,0.0,0.0,0.0,0.0,0.0,4.599,4.6289,4.6894,4.8068,4.9156,5.0168,5.101,0.0,0.0,0.0,0.0,0.0,0.0,0.0,5.199,5.1929,5.1511,5.116,5.1142,5.1937,5.2502,5.219,0.0,0.0,4.9939,4.8862,4.8503,4.9041,4.8575,4.8008,4.7708,4.8231,4.8352,0.0,0.0,0.0,0.0,4.4214,0.0,0.0,0.0,4.2511,4.1878,0.0,4.0823,0.0,0.0,0.0,0.0,3.9364,4.1471,0.0,0.0,4.3942,4.4236,4.3515,4.351,4.351,4.3543,4.4268,4.3488,4.1356,3.9932,0.0,0.0,0.0,0.0,0.0,0.0,4.1848,4.1889,4.4321,4.5592,4.5592,4.5592,4.5592,4.5592,4.478,4.3932,4.3085,4.1435,4.0127,3.9282,3.7679,0.0,0.0,0.0,0.0,0.0,0.0,0.0,0.0,0.0,0.0,0.0,0.0,0.0,0.0,0.0,0.0,0.0,0.0,0.0,0.0,4.0798,0.0,0.0,0.0,0.0,0.0,0.0,0.0,0.0,0.0,4.5688,4.6789,4.7505,4.8654,5.0279,0.0,0.0,0.0,0.0,5.1015,5.181,5.1874,5.1893,5.1973,5.3277,5.3761,5.2271,0.0,0.0,5.2267,5.3264,5.3508,5.1124,5.2661,5.4462,5.4938,5.3021,5.1844,5.2559,5.1514,5.0053,4.8727,4.9175,4.9028,4.7024,0.0,0.0,0.0,0.0,4.3582,4.3526,4.3929,4.3088,4.2258,4.1501,4.1249,0.0,0.0,0.0,0.0,0.0,0.0,4.2684,4.3207,4.3638,4.3722,4.3506,4.4085,4.4048,4.3543,4.4305,4.4065,4.2868,4.1858,4.0062,3.7526,0.0,0.0,0.0,0.0,4.2739,4.2854,4.4626,4.5592,4.5592,4.5592,4.5592,4.5592,4.4784,4.3932,4.3126,4.2006,4.0777,3.9358,3.885,0.0,0.0,0.0,0.0,0.0,0.0,0.0,0.0,0.0,0.0,0.0,0.0,0.0,0.0,0.0,0.0,0.0,0.0,0.0,3.9235,4.0719,4.1704,0.0,0.0,0.0,0.0,0.0,0.0,0.0,0.0,0.0,4.7452,4.6737,4.6549,0.0,0.0,4.9319,5.0849,5.0861,5.0974,5.1769,5.1406,0.0,5.2669,5.2256,5.2225,5.3528,5.4179,5.433,5.3813,5.4138,5.4196,5.3425,5.3425,5.3593,5.3716,5.3275,5.3125,5.3999,5.2878,5.1533,5.1352,5.1332,5.074,4.6492,4.538,4.5369,4.5085,4.4571,4.4029,4.4023,4.4301,4.3591,4.2966,4.2467,4.2278,4.1715,4.095,4.0991,0.0,0.0,0.0,4.3029,4.3502,4.3502,4.3502,4.3538,4.4016,4.3979,4.3543,4.3979,4.3975,4.3506,4.3029,4.1405,3.8906,0.0,4.0163,3.9285,4.1981,4.3449,4.362,4.4898,4.5592,4.5592,4.5592,4.5592,4.5592,4.509,4.4434,4.3585,4.2775,4.1696,4.0354,3.9644,3.8835,0.0,0.0,0.0,0.0,0.0,0.0,0.0,0.0,0.0,0.0,0.0,3.6502,3.604,0.0,0.0,0.0,3.8493,3.9494,3.9965,4.1387,0.0,0.0,0.0,0.0,0.0,0.0,0.0,4.4743,4.4983,4.5639,4.7168,4.6456,4.649,4.8511,4.8941,4.96,5.0964,0.0,5.0976,5.1772,5.149,5.1639,5.2964,5.2366,5.2227,5.37,5.3985,5.3977,5.401,5.3972,5.3857,5.3546,5.3313,5.3077,5.2754,5.2659,5.3007,5.4059,5.3076,5.2008,5.1925,5.169,5.1059,4.5349,4.4665,4.5399,4.5252,4.4529,4.4529,4.429,4.3985,4.3944,4.3766,4.351,4.3502,4.3098,4.2396,4.2396,0.0,4.2437,4.3176,4.3469,4.3502,4.3502,4.3502,4.3502,4.3506,4.3502,4.3506,4.3502,4.3502,4.3502,4.3469,4.2831,4.1521,4.1649,4.163,4.1534,4.3055,4.4088,4.4438,4.5233,4.5592,4.5592,4.5592,4.5592,4.5592,4.5556,4.5092,4.4318,4.3508,4.2698,4.181,4.0336,3.9442,3.9248,0.0,0.0,0.0,0.0,0.0,0.0,0.0,0.0,0.0,0.0,0.0,0.0,0.0,0.0,3.7877,3.9979,0.0,4.1157,4.2405,0.0,0.0,0.0,4.2257,4.311,4.335,4.3879,4.4788,0.0,0.0,4.6423,4.653,4.7767,5.1127,5.1017,5.0887,5.1769,5.12,5.0976,5.1772,5.1835,5.2076,5.2861,5.2938,5.2861,5.2904,5.3046,5.3101,5.3056,5.2972,5.2661,5.2005,5.2349,5.2472,5.1734,5.1533,5.1916,5.2557,5.2295,5.1637,5.1043,5.0779,5.0236,4.5065,4.3849,4.464,4.4515,4.375,4.3754,4.3693,4.3631,4.3594,4.3572,4.3502,4.3502,4.3396,4.3212,4.3208,4.3212,4.3253,4.3396,4.3502,4.3502,4.3502,4.3502,4.3502,4.3502,4.3502,4.3502,4.3502,4.3502,4.3502,4.3502,4.334,4.3006,4.3032,4.2896,4.2643,4.4049,4.5137,4.5802,4.5683,4.5592,4.5592,4.5592,4.5592,4.5592,4.4934,4.4513,4.4278,4.3506,4.2698,4.185,4.1408,4.0633,3.9363,3.8271,0.0,0.0,0.0,0.0,0.0,0.0,0.0,0.0,0.0,3.7094,3.5723,0.0,3.7643,0.0,3.9581,4.1144,4.1728,4.2077,0.0,0.0,4.241,4.2566,4.3669,4.3716,4.3961,4.4785,4.4982,4.5412,4.6527,4.6664,4.722,4.8808,4.935,5.0118,5.1603,5.1205,5.0974,5.1659,5.1363,5.1299,5.2037,5.2189,5.1986,5.1419,5.1778,5.2201,5.2202,5.1702,5.1205,5.0935,5.001,4.9341,4.9125,4.9505,4.9743,4.9517,5.017,5.0956,5.0833,5.0304,4.9585,4.4314,4.3543,4.3975,4.3906,4.3502,4.3502,4.3502,4.3502,4.3502,4.3502,4.3502,4.3502,4.3502,4.3502,4.3502,4.3502,4.3502,4.3502,4.3502,4.3502,4.3502,4.3502,4.3502,4.3502,4.3502,4.3502,4.3502,4.3502,4.3502,4.3502,4.3502,4.3478,4.3631,4.4006,4.4557,4.477,4.5427,4.6544,4.5941,4.5592,4.5592,4.5592,4.5592,4.5592,4.4742,4.4316,4.4278,4.3162,4.2124,4.1279,4.0864,4.0077,3.8808,3.7903,3.7198,0.0,0.0,0.0,0.0,0.0,0.0,0.0,0.0,0.0,0.0,0.0,3.7749,3.7716,3.9825,4.1315,4.1696,4.2277,4.2756,4.3072,4.2906,4.3044,4.3708,4.3814,4.4014,4.4438,4.4643,4.5197,4.6347,4.6513,4.6932,4.7962,4.8479,4.9213,5.0493,5.0705,5.0861,5.1277,5.0974,5.0827,5.1304,5.1024,5.0637,5.0219,5.0185,5.0216,5.0197,4.9853,4.955,4.9476,4.874,4.8115,4.8128,4.844,4.8673,4.8616,4.8724,4.9176,4.9539,4.9455,4.8985,4.3502,4.3502,4.3502,4.3502,4.3502,4.3502,4.3502,4.3502,4.3502,4.3502,4.3502,4.3502,4.3502,4.3502,4.3502,4.3502,4.3502,4.3502,4.3502,4.3502,4.3502,4.3502,4.3502,4.3502,4.3502,4.3502,4.3502,4.3502,4.3502,4.3502,4.3502,4.3532,4.3945,4.4975,4.6486,4.5516,4.5615,4.6887,4.6052,4.5592,4.5592,4.5592,4.5592,4.5554,4.4665,4.4203,4.4239,4.2814,4.1621,4.086,4.0152,3.9406,3.8539,3.7586,3.7035,0.0,3.6285,0.0,0.0,0.0,0.0,0.0,0.0,0.0,0.0,3.8193,3.7758,3.8193,4.0265,4.1538,4.1531,4.2729,4.3502,4.351,4.3558,4.3555,4.3576,4.3861,4.4085,4.4087,4.4377,4.5011,4.5898,4.6133,4.6544,4.7409,4.7799,4.8231,4.8971,4.9897,5.0515,5.063,5.0707,5.0707,5.0668,5.0034,4.9498,4.9348,4.8809,4.8132,4.824,4.8082,4.7971,4.7968,4.7815,4.7702,4.7776,4.7853,4.8038,4.8166,4.7711,4.7546,4.8049,4.8292,4.8157,4.3502,4.3502,4.3502,4.3502,4.3502,4.3502,4.3502,4.3502,4.3502,4.3502,4.3502,4.3502,4.3502,4.3502,4.3502,4.3502,4.3502,4.3502,4.3502,4.3502,4.3502,4.3502,4.3502,4.3502,4.3502,4.3502,4.3502,4.3502,4.3502,4.3502,4.3502,4.3528,4.4533,4.5705,4.692,0.0,0.0,0.0,4.6063,4.5592,4.5592,4.5592,4.5592,4.5554,4.4126,0.0,4.4241,4.3393,4.2777,4.2626,4.2473,0.0,0.0,0.0,0.0,0.0,0.0,0.0,0.0,0.0,0.0,0.0,3.8432,3.7868,3.8143,3.8122,3.8283,3.8907,4.0312,4.1449,4.2062,4.2944,4.3502,4.3519,4.375,4.3916,4.3927,4.4233,4.4502,4.4482,4.4569,4.4674,4.4912,4.5147,4.5419,4.5787,4.6511,4.7122,4.7389,4.874,4.9858,5.0517,5.0589,5.0668,5.0707,4.9913,4.9315,4.9312,4.8666,4.8095,4.7978,4.7466,4.7156,4.712,4.6545,4.6131,4.6129,4.6647,4.6959,4.6355,4.6867,4.7539,4.7748,4.7068,4.6374,4.3502,4.3502,4.3502,4.3502,0.0,4.3502,4.3281,4.2947,4.3318,4.3502,4.3502,4.3502,4.3502,4.3502,4.3502,4.3502,4.3502,4.3502,4.3502,4.3502,4.3502,4.3502,4.3502,4.3502,4.3502,4.3502,4.3502,4.3502,4.3502,4.3502,4.3502,4.3515,4.4848,4.6076,4.7075,4.7583,4.7527,4.6897,4.6029,4.5592,4.5592,4.5592,4.5592,4.5556,4.4357,0.0,0.0,0.0,0.0,0.0,0.0,0.0,0.0,3.9134,0.0,3.8646,3.8234,3.82,3.8588,3.8625,3.9011,3.9821,3.9373,3.876,3.8141,3.8423,3.889,3.9463,4.0468,4.1261,4.1678,4.2763,4.3355,4.3001,4.341,4.3762,4.3783,4.392,4.405,4.4054,4.405,4.4115,4.4294,4.4654,4.4944,4.5114,4.5735,4.6432,4.6928,4.7968,4.8925,4.9365,4.9834,4.9913,4.9478,4.912,4.8606,4.8181,4.7456,4.6929,4.6864,4.655,4.6237,4.624,4.5898,4.5592,4.5633,4.595,4.6187,4.5991,4.6025,4.6211,4.6421,4.6314,4.6198,4.3502,4.3502,4.3502,4.3502,4.3502,4.3502,4.3135,4.2547,4.3061,0.0,0.0,4.3433,4.3502,4.3502,4.3502,4.3502,4.3502,4.3502,4.3502,4.3502,4.3502,4.3502,4.3502,4.3502,4.3502,4.3502,4.3502,4.3502,4.3502,4.3502,4.3579,4.3841,4.52,4.6399,4.7369,4.7718,4.7559,4.69,4.6069,4.5592,4.5592,4.5592,4.5592,4.5592,4.4744,4.4011,4.3359,4.3318,4.2281,4.0133,4.059,4.0272,3.8804,3.8506,3.8449,3.8453,3.845,3.8777,3.9434,3.9511,3.9783,4.0441,4.0264,3.9652,3.8625,3.8887,3.9308,3.9877,4.0642,4.1136,4.1332,4.2616,4.3249,4.258,4.3098,4.351,4.351,4.3502,4.3549,4.3502,4.3512,4.3597,4.3882,4.4329,4.4697,4.4995,4.5391,4.5821,4.6584,4.7505,4.8185,4.8313,4.8825,4.8938,4.8332,4.7955,4.7635,4.7122,4.6266,4.5633,4.5592,4.5592,4.5592,4.5669,4.5592,4.5592,4.5592,4.5633,4.5712,4.6108,4.5389,4.4809,4.5298,4.5802,4.6037,4.3502,4.3502,4.3502,4.3502,4.3502,4.3502,4.3433,4.3286,4.2694,4.247,4.2506,4.3208,4.3502,4.3502,4.3502,4.3502,4.3502,4.3502,4.3502,4.3502,4.3502,4.3502,4.3502,4.3502,4.3502,4.3502,4.3502,4.3502,4.3502,4.3502,4.3832,4.4587,4.5794,4.713,4.8352,4.7573,4.7018,4.6902,4.6031,4.5592,4.5592,4.5592,4.5592,4.5554,4.478,4.4323,4.4299,4.4211,4.3675,4.2692,4.2725,4.2281,4.1324,4.0494,4.0156,4.0156,4.0125,4.0206,4.0285,4.0319,4.0402,4.0467,4.0264,3.9888,3.9456,3.9234,3.9311,3.9851,4.0638,4.1409,4.2071,4.2931,4.3433,4.329,4.3428,4.3502,4.3502,4.3502,4.3502,4.3502,4.3502,4.3506,4.3669,4.4184,4.4615,4.4748,4.5237,4.5669,4.6013,4.7124,4.8002,4.8113,4.819,4.8214,4.7922,4.75,4.7111,4.6938,4.6148,4.5592,4.5592,4.5592,4.5592,4.5592,4.5592,4.5592,4.5592,4.5592,4.5633,4.5751,4.5276,4.5221,4.5803,4.5503,4.4899,4.3502,4.3502,4.3502,4.3249,4.2772,4.1927,4.1813,4.2135,4.1805,4.2176,4.2955,4.3359,4.3502,4.3502,4.3502,4.3502,4.3502,4.3502,4.3502,4.3502,4.3502,4.3502,4.3502,4.3502,4.3502,4.3502,4.3502,4.3502,4.3502,4.3502,4.3901,4.4753,4.6533,4.7826,4.833,4.7844,4.7131,4.6225,4.5791,4.5592,4.5592,4.5671,4.5712,4.5674,4.5325,4.4936,4.4624,4.4859,4.4248,4.2601,4.2885,4.249,4.119,4.07,4.0327,3.9875,3.9867,3.9627,3.9165,3.9165,3.9358,3.9775,3.9569,3.9471,3.9602,3.9294,3.933,3.9872,4.0635,4.1252,4.1637,4.2767,4.3322,4.291,4.3212,4.3469,4.3502,4.3502,4.3502,4.3502,4.3502,4.3547,4.3757,4.4266,4.4697,4.4856,4.5314,4.5592,4.5592,4.6203,4.674,4.6783,4.71,4.7172,4.6873,4.6905,4.6662,4.6307,4.587,4.5633,4.5592,4.5592,4.5592,4.5592,4.5592,4.5592,4.5594,4.5592,4.5592,4.5554,4.5316,4.5332,4.5481,4.52,4.4843,4.3502,4.3502,4.3502,4.3139,4.2433,4.1042,4.0887,4.158,4.1474,4.2176,4.3396,4.3502,4.3502,4.3502,4.3502,4.3502,4.3502,4.3502,4.3502,4.3502,4.3502,4.3502,4.3502,4.3502,4.3502,4.3502,4.3502,4.3502,4.3506,4.369,4.4334,4.546,4.7342,4.8159,4.7948,4.7866,4.7086,4.5708,4.5592,4.5592,4.5594,4.5751,4.5791,4.5793,4.5819,4.5545,4.5083,4.5201,4.4397,4.2512,4.264,4.2105,4.0633,4.0323,4.0023,3.9611,3.9215,3.8703,3.8084,3.8202,3.8586,3.924,3.9182,3.9254,3.9512,3.9301,3.9413,4.0093,4.0594,4.0965,4.1466,4.2461,4.2988,4.2433,4.3029,4.3469,4.3502,4.3502,4.3502,4.3502,4.3502,4.3592,4.3894,4.4302,4.4744,4.515,4.5434,4.5592,4.5592,4.5592,4.5592,4.5712,4.6187,4.6343,4.5751,4.6108,4.6266,4.5671,4.5594,4.5592,4.5592,4.5592,4.5592,4.5592,4.5592,4.5751,4.5832,4.5911,4.595,4.599,4.583,4.5538,4.5335,4.5509,4.5399,4.3502,4.3502,4.3502,4.3469,4.3212,4.2364,4.2433,4.3024,4.2506,4.2694,4.3465,4.3502,4.3502,4.3502,4.3502,4.3502,4.3502,4.3502,4.3502,4.3502,4.3502,4.3502,4.3502,4.3502,4.3502,4.3502,4.3502,4.3502,4.3543,4.4264,4.5521,4.7272,4.7973,4.7991,4.7586,4.7201,4.6545,4.5631,4.5592,4.5592,4.5633,4.5712,4.5791,4.5793,4.5795,4.5845,4.5851,4.4981,4.4092,4.3284,4.2395,4.151,4.0591,3.9823,3.9708,4.021,3.8932,3.8084,3.8044,3.8744,3.9088,3.9344,3.9645,3.978,3.9621,3.9297,3.9625,4.053,4.0377,4.0659,4.1961,4.2365,4.2474,4.247,4.302,4.3502,4.3502,4.3502,4.3502,4.3502,4.3502,4.3547,4.3672,4.4219,4.4851,4.5412,4.5554,4.5592,4.5592,4.5592,4.5592,4.5592,4.5712,4.5712,4.5594,4.5633,4.5753,4.5633,4.5592,4.5592,4.5592,4.5592,4.5592,4.5592,4.5592,4.5832,4.6347,4.6782,4.6739,4.6604,4.6529,4.6465,4.5902,4.6034,4.6192,4.3502,4.3502,4.3502,4.2951,4.2098,4.1731,4.1768,4.2062,4.2249,4.2767,4.3433,4.3502,4.3502,4.3502,4.3502,4.3502,4.3502,4.3502,4.3502,4.3502,4.3502,4.3502,4.3502,4.3502,4.3502,4.3502,4.3502,4.3502,4.3722,4.4787,4.6053,4.7286,4.7927,4.8073,4.7797,4.7215,4.6471,4.5631,4.5592,4.5592,4.5594,4.5751,4.58,4.5869,4.5837,4.5673,4.5352,4.4739,4.3849,4.2674,4.2093,4.1391,4.0552,3.9731,3.9202,3.8967,3.7443,3.6502,3.654,3.6851,3.7505,3.8434,3.8533,3.884,3.9498,3.9312,3.9474,4.0152,4.0108,4.0553,4.2002,4.2299,4.2474,4.2919,4.3322,4.3502,4.3502,4.3502,4.3502,4.3502,4.3502,4.3588,4.3841,4.4454,4.506,4.5513,4.5592,4.5592,4.5592,4.5592,4.5592,4.5592,4.5592,4.5592,4.5592,4.5592,4.5592,4.5592,4.5592,4.5592,4.5592,4.5592,4.5592,4.5592,4.5592,4.5674,4.595,4.6629,4.6923,4.6914,4.6912,4.6775,4.6419,4.6224,4.6271,4.3502,4.3502,4.3502,4.2841,4.1768,4.1768,4.1768,4.1805,4.2392,4.2955,4.3469,4.3502,4.3502,4.3502,4.3502,4.3502,4.3502,4.3502,4.3502,4.3502,4.3502,4.3502,4.3502,4.3502,4.3502,4.3502,4.3502,4.3616,4.3942,4.519,4.6302,4.705,4.784,4.8074,4.7746,4.714,4.6471,4.5669,4.5592,4.5592,4.5594,4.5674,4.5787,4.5846,4.5881,4.5644,4.5188,4.4489,4.3583,4.2414,4.1791,4.1164,4.0514,3.9531,3.8465,3.739,3.6407,3.5731,3.554,3.5927,3.6671,3.7719,3.793,3.8426,3.9179,3.9179,3.9171,3.9497,3.9575,4.0154,4.1348,4.1858,4.2254,4.2804,4.3139,4.3469,4.3502,4.3502,4.3502,4.3502,4.3502,4.3674,4.4091,4.4622,4.5077,4.5475,4.5592,4.5592,4.5592,4.5592,4.5592,4.5592,4.5592,4.5592,4.5592,4.5592,4.5592,4.5592,4.5592,4.5592,4.5592,4.5592,4.5592,4.5592,4.5592,4.5832,4.6228,4.6704,4.6936,4.6865,4.6823,4.6651,4.6305,4.6077,4.6502,4.3502,4.3502,4.3502,4.3392,4.3359,4.3322,4.3327,4.3139,4.3359,4.3469,4.3502,4.3502,4.3502,4.3502,4.3502,4.3502,4.3502,4.3502,4.3502,4.3502,4.3502,4.3502,4.3502,4.3502,4.3506,4.3616,4.3612,4.3938,4.4668,4.5502,4.6285,4.7051,4.7854,4.7792,4.717,4.6993,4.6468,4.5708,4.5592,4.5592,4.5592,4.5594,4.5689,4.5772,4.5806,4.5779,4.5556,4.4077,4.3112,4.3084,4.1485,4.0552,4.036,3.9,3.7423,3.6007,3.6271,3.6269,3.5809,3.6811,3.7698,3.7742,3.8578,3.9333,3.9151,3.8914,3.8785,3.877,3.8868,3.9226,4.0097,4.0924,4.136,4.1617,4.2731,4.3392,4.3502,4.3502,4.3502,4.3502,4.3502,4.3798,4.4437,4.4615,4.4985,4.5396,4.5592,4.5592,4.5592,4.5592,4.5592,4.5592,4.5592,4.5592,4.5592,4.5592,4.5592,4.5703,4.5778,4.5669,4.5592,4.5592,4.5592,4.5592,4.5592,4.5911,4.6544,4.6882,4.6964,4.683,4.6493,4.6283,4.6618,4.6638,4.7063,4.3502,4.3502,4.3502,4.3212,4.2804,4.3286,4.3208,4.2804,4.329,4.3502,4.3502,4.3502,4.3502,4.3502,4.3502,4.3502,4.3502,4.3502,4.3502,4.3502,4.3502,4.3502,4.3502,4.3506,4.3795,4.4232,4.4268,4.4672,4.552,4.6522,4.7315,4.7819,4.8342,4.8272,4.7706,4.7154,4.6471,4.5708,4.5592,4.5592,4.5592,4.5592,4.5633,4.5674,4.5753,4.5293,4.4212,4.3497,4.2646,4.1526,4.0825,4.0514,4.0362,3.892,3.7499,3.6407,3.6086,3.5806,3.5692,3.6542,3.7298,3.7562,3.8247,3.8902,3.8999,3.8876,3.8685,3.8685,3.8685,3.9048,3.9824,4.0606,4.154,4.2506,4.3098,4.3502,4.3502,4.3502,4.3502,4.3502,4.3506,4.3798,4.4378,4.458,4.4852,4.5434,4.5592,4.5592,4.5592,4.5592,4.5592,4.5592,4.5592,4.5592,4.5592,4.5592,4.5667,4.6038,4.6188,4.6161,4.6124,4.5821,4.5746,4.5631,4.5592,4.5671,4.6228,4.6897,4.6982,4.6778,4.6443,4.652,4.7206,4.6826,4.7328,4.3502,4.3502,4.3502,4.3212,4.2763,4.3281,4.3176,4.2767,4.3286,4.3502,4.3502,4.3502,4.3502,4.3538,4.3763,4.3906,4.3906,4.3869,4.3906,4.3947,4.4162,4.4126,4.3942,4.413,4.4405,4.4703,4.4984,4.5384,4.5942,4.6837,4.7494,4.7861,4.7998,4.7917,4.7609,4.6887,4.6165,4.5669,4.5592,4.5592,4.5592,4.5592,4.5592,4.5594,4.5674,4.5218,4.3999,4.3456,4.2644,4.1477,4.0821,4.0394,4.0006,3.9066,3.7888,3.6801,3.6206,3.5885,3.5951,3.6555,3.7184,3.7739,3.8257,3.8695,3.8932,3.8832,3.8727,3.8718,3.898,3.9417,4.0223,4.1026,4.1947,4.2951,4.3322,4.3469,4.3502,4.3502,4.3502,4.3502,4.3502,4.3839,4.4428,4.4556,4.4932,4.5513,4.5592,4.5592,4.5592,4.5592,4.5592,4.5592,4.5592,4.5592,4.5592,4.5592,4.5966,4.6337,4.6423,4.6477,4.643,4.6126,4.5823,4.5669,4.5592,4.5592,4.599,4.6703,4.6809,4.6633,4.6405,4.6332,4.6613,4.6692,4.7165,4.3502,4.3502,4.3502,4.3469,4.3396,4.3469,4.3502,4.3428,4.3469,4.3502,4.3502,4.3502,4.3543,4.369,4.4264,4.4626,4.47,4.481,4.4778,4.4778,4.5402,4.5333,4.4778,4.5333,4.541,4.5003,4.5608,4.5975,4.6168,4.6594,4.6981,4.7044,4.7038,4.7223,4.7013,4.6464,4.5823,4.5712,4.5671,4.5592,4.5592,4.5592,4.5592,4.5592,4.5594,4.5554,4.5441,4.3936,4.301,4.2701,4.1358,4.0156,3.9602,3.9254,3.8496,3.7104,3.6745,3.6696,3.6715,3.7215,3.7821,3.8193,3.8777,3.8972,3.8789,3.8742,3.8685,3.8784,3.9275,4.0077,4.0912,4.1605,4.2208,4.2433,4.3106,4.3469,4.3502,4.3502,4.3502,4.3502,4.3506,4.3798,4.4358,4.458,4.4841,4.5355,4.5667,4.5708,4.5669,4.5708,4.5669,4.5592,4.5592,4.5592,4.5592,4.5631,4.6152,4.6595,4.6558,4.6587,4.664,4.643,4.5975,4.5746,4.5592,4.5592,4.5674,4.6264,4.6233,4.6063,4.6004,4.6262,4.6396,4.6604,4.6778,4.3502,4.3502,4.3502,4.3502,4.3502,4.3502,4.3502,4.3502,4.3506,4.3502,4.3502,4.3502,4.3791,4.4264,4.4626,4.4993,4.5553,4.6058,4.6058,4.5659,4.5805,4.581,4.5626,4.5778,4.6085,4.642,4.7159,4.7548,4.7578,4.7871,4.8347,4.8632,4.8799,4.8775,4.8502,4.7785,4.7095,4.6499,4.587,4.5592,4.5592,4.5592,4.5592,4.5592,4.5592,4.5592,4.5515,4.4011,4.2852,4.2314,4.1127,4.0394,4.0077,3.96,3.876,3.778,3.7588,3.7273,3.696,3.7932,3.8512,3.8529,3.9011,3.9147,3.8766,3.8685,3.8722,3.8722,3.8984,3.9572,4.082,4.1294,4.1984,4.2992,4.3363,4.3502,4.3502,4.3502,4.3502,4.3502,4.3502,4.3716,4.4104,4.4369,4.478,4.5271,4.593,4.628,4.5859,4.6126,4.6165,4.5785,4.5708,4.5633,4.5594,4.5789,4.6244,4.6536,4.6579,4.6668,4.6713,4.662,4.6165,4.5862,4.571,4.5751,4.5791,4.5979,4.6152,4.6308,4.6653,4.67,4.6619,4.6789,4.7106,4.3502,4.3502,4.3502,4.3502,4.3502,4.3502,4.3502,4.3543,4.3832,4.38,4.3579,4.3832,4.4232,4.47,4.4993,4.5585,4.6356,4.7154,4.7269,4.6833,4.6796,4.6654,4.6402,4.6328,4.6755,4.7494,4.8039,4.8296,4.8303,4.855,4.8915,4.9423,4.9412,4.9372,4.9315,4.8552,4.7785,4.7296,4.6516,4.6088,4.6011,4.5744,4.5592,4.5592,4.5592,4.5592,4.5518,4.4239,4.3278,4.2624,4.1633,4.1027,4.091,4.0198,3.9379,3.8689,3.8467,3.824,3.7842,3.8408,3.8947,3.8859,3.9092,3.9121,3.8788,3.8685,3.8766,3.9095,3.9508,4.0113,4.1282,4.1889,4.247,4.3318,4.3469,4.3502,4.3502,4.3502,4.3502,4.3502,4.3502,4.3716,4.4136,4.4411,4.4795,4.532,4.6197,4.6812,4.6353,4.6545,4.6394,4.6246,4.6257,4.6063,4.5671,4.5907,4.6298,4.6477,4.6572,4.6679,4.6771,4.6661,4.6319,4.6058,4.587,4.6266,4.6386,4.694,4.7246,4.7375,4.7323,4.7389,4.7373,4.7543,4.7866,4.3543,4.3506,4.3502,4.3502,4.3502,4.3502,4.3575,4.3722,4.419,4.4232,4.3947,4.4337,4.4773,4.5035,4.5695,4.6393,4.7191,4.7824,4.8264,4.8228,4.8154,4.7746,4.72,4.716,4.7596,4.8311,4.8438,4.8512,4.8712,4.8729,4.877,4.9698,4.9243,4.8851,4.9517,4.8731,4.8351,4.812,4.7387,4.6968,4.6817,4.6131,4.5671,4.5633,4.5592,4.5592,4.5477,4.4821,4.428,4.4013,4.2571,4.1813,4.1661,4.0989,4.02,3.9331,3.931,3.9221,3.9104,3.8849,3.8847,3.9307,3.9046,3.8696,3.8712,3.8851,3.9139,3.9712,4.0434,4.1283,4.2132,4.2728,4.3212,4.3433,4.3502,4.3502,4.3502,4.3502,4.3502,4.3502,4.3547,4.3752,4.4368,4.4531,4.4956,4.5642,4.6464,4.6928,4.7081,4.7158,4.7043,4.6977,4.6957,4.6839,4.6563,4.67,4.7051,4.7074,4.7052,4.6993,4.6812,4.6586,4.6319,4.6058,4.6305,4.67,4.7004,4.743,4.7778,4.7808,4.7874,4.8059,4.8159,4.8212,4.8527,4.4048,4.3506,4.3502,4.3502,4.3502,4.3502,4.3873,4.4301,4.3975,4.4493,4.5002,4.4851,4.5425,4.6415,4.664,4.7227,4.7851,4.8228,4.871,4.9082,4.8563,4.8264,4.8039,4.7995,4.845,4.915,4.928,4.9558,5.011,5.0,5.0461,5.1311,5.0985,5.0973,5.1111,5.0366,4.9675,4.9024,4.8204,4.748,4.6997,4.6732,4.6228,4.5633,4.5631,4.5631,4.5592,4.5398,4.4628,4.3472,4.3053,4.2456,4.189,4.1541,4.0791,3.9683,3.9842,3.9785,3.9202,3.9354,3.948,3.9242,3.9178,3.8897,3.8745,3.9265,3.9638,4.0035,4.0655,4.1466,4.2137,4.2559,4.2906,4.3392,4.3502,4.3502,4.3502,4.3502,4.3502,4.3502,4.3502,4.3757,4.4165,4.4549,4.5046,4.6013,4.6991,4.7776,4.7853,4.8161,4.8238,4.7908,4.7765,4.7688,4.7618,4.7679,4.7762,4.7787,4.7677,4.7475,4.7032,4.6434,4.6052,4.5674,4.6773,4.7364,4.7355,4.752,4.7794,4.8473,4.8697,4.8998,4.8633,4.8536,4.9027,4.4929,4.4493,4.4497,4.4493,4.4493,4.4534,4.4787,4.5145,4.5112,4.5259,4.581,4.5801,4.6191,4.7076,4.7108,4.7558,4.8264,4.8678,4.9123,4.9454,4.9444,4.9182,4.9008,4.9138,4.9615,5.0031,5.0098,5.0359,5.0727,5.0922,5.1378,5.1853,5.2165,5.2314,5.2341,5.1635,5.1015,5.0329,4.9312,4.8392,4.7985,4.7568,4.695,4.6321,4.6126,4.6013,4.5669,4.5592,4.5092,4.428,4.3812,4.3231,4.2393,4.1963,4.1185,3.9919,4.0275,4.0181,3.9733,3.9793,3.9872,3.977,3.9602,3.9571,3.9754,4.019,4.0452,4.1004,4.1355,4.1959,4.2596,4.2807,4.302,4.3396,4.3502,4.3506,4.3506,4.3502,4.3502,4.3502,4.3506,4.3798,4.4375,4.4842,4.5627,4.6665,4.788,4.8389,4.8702,4.9163,4.932,4.887,4.8571,4.8456,4.8406,4.8419,4.8619,4.865,4.8566,4.8323,4.745,4.6704,4.655,4.6559,4.7353,4.7935,4.8009,4.8325,4.9142,4.9656,4.9836,4.9755,4.9476,4.932,4.9767,4.5998,4.5888,4.5888,4.5888,4.5814,4.5888,4.5847,4.614,4.6461,4.6535,4.6466,4.6938,4.7301,4.7333,4.7851,4.7998,4.8705,4.9412,4.9632,5.0031,5.043,5.065,5.0004,5.0276,5.0644,5.0907,5.0919,5.1066,5.133,5.1508,5.1773,5.234,5.2729,5.2927,5.307,5.2546,5.2118,5.151,5.0466,4.9536,4.9115,4.8502,4.7851,4.7124,4.6776,4.6355,4.5821,4.5592,4.5515,4.5554,4.484,4.4053,4.3269,4.2439,4.1615,4.0868,4.07,4.0676,4.0449,4.0054,4.0078,4.0494,4.0263,4.0316,4.0801,4.1056,4.1455,4.1944,4.2334,4.2736,4.3219,4.3506,4.3649,4.3795,4.3759,4.3763,4.362,4.3543,4.3502,4.3506,4.3547,4.4167,4.4908,4.5639,4.6281,4.7446,4.8496,4.8922,4.9312,4.9707,4.982,4.963,4.9408,4.9261,4.9168,4.9077,4.9346,4.9538,4.9505,4.918,4.8188,4.7586,4.7468,4.7631,4.8114,4.8623,4.9001,4.9562,5.0281,5.043,5.031,5.0469,5.0548,5.0548,5.0794,4.6461,4.5888,4.5888,4.5888,4.5888,4.5925,4.6282,4.6824,4.6393,4.6938,4.7641,4.8003,4.8448,4.904,4.9512,5.0136,5.01,5.0398,5.0545,5.0724,5.2082,5.2155,5.1458,5.1185,5.1217,5.1621,5.1768,5.2066,5.2558,5.2687,5.3003,5.3408,5.3668,5.3938,5.3671,5.372,5.3174,5.2114,5.1498,5.0683,4.9702,4.9341,4.8765,4.7928,4.7238,4.6468,4.5782,4.5592,4.5592,4.5554,4.5393,4.484,4.4098,4.3748,4.2921,4.1872,4.1496,4.1307,4.0824,4.069,4.0667,4.1022,4.1001,4.0916,4.1067,4.1748,4.2063,4.2398,4.2838,4.3264,4.3575,4.4121,4.4342,4.4488,4.4892,4.5039,4.453,4.3947,4.367,4.367,4.4089,4.4624,4.5178,4.5946,4.6898,4.8187,4.8923,4.9403,4.9826,5.0236,5.0207,5.0127,5.0094,4.9909,4.9901,4.981,4.9923,5.0072,5.0113,5.0267,4.9274,4.8584,4.8545,4.8589,4.8716,4.9223,4.9848,5.0187,5.0786,5.0748,5.0866,5.1063,5.1263,5.146,5.1643,4.7411,4.7021,4.7017,4.7021,4.7021,4.7058,4.7462,4.8044,4.7829,4.8306,4.9255,4.9476,4.9738,5.0183,5.0582,5.0802,5.0912,5.1206,5.161,5.2003,5.2847,5.292,5.2627,5.2271,5.2349,5.2957,5.2732,5.3214,5.3875,5.3666,5.3556,5.4275,5.4484,5.4447,5.4373,5.4475,5.4036,5.3295,5.267,5.1864,5.0789,5.0555,4.9889,4.8699,4.7584,4.662,4.6278,4.5782,4.5631,4.5592,4.5592,4.5197,4.4485,4.4306,4.3622,4.2682,4.219,4.2016,4.1635,4.1362,4.1366,4.1853,4.1769,4.1936,4.2143,4.2663,4.279,4.2937,4.3238,4.3616,4.4011,4.4342,4.4778,4.5255,4.5626,4.5695,4.5305,4.4857,4.4422,4.4377,4.4793,4.5444,4.6062,4.6547,4.7453,4.8752,4.9329,4.9847,5.0161,5.0515,5.0553,5.0515,5.0592,5.0592,5.0555,5.0512,5.0474,5.051,5.0469,5.0813,5.062,5.0123,4.9738,4.9743,4.975,5.0224,5.077,5.1068,5.1458,5.1896,5.2093,5.1934,5.1973,5.2324,5.2494,4.8668,4.8663,4.8668,4.8668,4.8668,4.8668,4.904,4.9632,4.9747,4.9963,5.0724,5.0907,5.0912,5.1017,5.1206,5.1201,5.1384,5.183,5.2485,5.2957,5.3067,5.3135,5.3062,5.3245,5.3691,5.4399,5.3765,5.4216,5.4766,5.4384,5.4312,5.4925,5.4852,5.4912,5.5023,5.4874,5.4546,5.4198,5.3651,5.2971,5.2094,5.1799,5.088,4.9322,4.8276,4.7389,4.6968,4.6396,4.5862,4.5785,4.5671,4.5197,4.472,4.4442,4.4126,4.3363,4.2931,4.2674,4.2473,4.216,4.2121,4.2831,4.2644,4.2789,4.3253,4.3327,4.3368,4.3469,4.3677,4.4104,4.4732,4.5209,4.5507,4.5952,4.6177,4.6214,4.6126,4.6147,4.5889,4.5172,4.5569,4.6246,4.6819,4.7344,4.831,4.9195,4.9718,5.0262,5.0615,5.0928,5.1077,5.1409,5.1607,5.1301,5.1224,5.1142,5.1104,5.0935,5.0897,5.1315,5.1697,5.1582,5.1123,5.0818,5.0902,5.1376,5.1729,5.1999,5.2473,5.3075,5.3055,5.2633,5.2838,5.3258,5.3346,5.0393,5.0393,5.0393,5.0393,5.0357,5.0362,5.0393,5.0582,5.0582,5.0655,5.0907,5.1505,5.1798,5.1908,5.2559,5.2737,5.2627,5.281,5.2994,5.3177,5.3209,5.3209,5.3434,5.3843,5.4552,5.4992,5.4698,5.4882,5.5506,5.5344,5.5158,5.5422,5.5457,5.5561,5.5537,5.5479,5.5138,5.4731,5.4395,5.3854,5.3092,5.2181,5.127,4.9743,4.9048,4.8507,4.7853,4.7161,4.6697,4.6622,4.5975,4.559,4.5299,4.5258,4.4865,4.4221,4.3741,4.344,4.3127,4.2826,4.2869,4.3213,4.332,4.329,4.3506,4.3584,4.3785,4.3847,4.4247,4.4844,4.5617,4.6127,4.664,4.7007,4.7384,4.7562,4.7241,4.7426,4.7403,4.653,4.6783,4.6974,4.7427,4.7926,4.8693,4.9355,4.985,5.0602,5.1247,5.1631,5.1931,5.2392,5.286,5.236,5.1898,5.1778,5.1657,5.1399,5.1431,5.1885,5.2269,5.2697,5.2585,5.2433,5.2325,5.253,5.2805,5.2964,5.3259,5.3682,5.35,5.3279,5.3656,5.4072,5.4226,5.0802,5.0802,5.0802,5.0802,5.0802,5.0802,5.1054,5.1389,5.1426,5.1678,5.204,5.2449,5.2632,5.2706,5.2957,5.3209,5.3209,5.3209,5.3209,5.3209,5.3209,5.3471,5.377,5.4289,5.517,5.5794,5.5862,5.6014,5.6644,5.5915,5.591,5.6127,5.6058,5.5864,5.5786,5.586,5.5644,5.5215,5.5077,5.4692,5.3815,5.2636,5.1399,5.082,4.9856,4.9202,4.8779,4.7968,4.7312,4.693,4.6525,4.5945,4.5571,4.5342,4.5186,4.4761,4.442,4.4046,4.369,4.337,4.3258,4.3484,4.3864,4.4085,4.4262,4.449,4.465,4.481,4.4977,4.5653,4.6443,4.6929,4.7264,4.7778,4.8448,4.8715,4.8678,4.9138,4.8763,4.813,4.7995,4.7984,4.7886,4.8431,4.9018,4.9551,5.0055,5.0846,5.1772,5.2169,5.252,5.3069,5.3459,5.3182,5.2725,5.262,5.234,5.2046,5.2156,5.2574,5.3038,5.3544,5.4087,5.4359,5.4252,5.3644,5.3767,5.3887,5.4087,5.4295,5.4454,5.4531,5.4643,5.4841,5.4928,5.1279,5.1274,5.1274,5.1274,5.1269,5.1274,5.1646,5.216,5.2234,5.2564,5.3141,5.3172,5.3135,5.3251,5.3366,5.3476,5.3471,5.3618,5.3801,5.3843,5.3843,5.4137,5.4509,5.4981,5.5605,5.6523,5.6963,5.7367,5.7488,5.6828,5.6602,5.6763,5.6624,5.6341,5.6253,5.6508,5.625,5.5995,5.5934,5.5516,5.4351,5.3197,5.2156,5.189,5.0584,4.9894,4.9627,4.8819,4.8161,4.767,4.7226,4.6703,4.5814,4.5588,4.5508,4.533,4.4951,4.4579,4.4322,4.4223,4.4178,4.4277,4.4635,4.4856,4.502,4.5381,4.5834,4.6085,4.6143,4.6622,4.7502,4.7672,4.8076,4.8742,4.9449,4.9862,4.9899,5.0134,5.0348,4.9833,4.9312,4.9128,4.9128,4.8832,4.9445,5.0081,5.0546,5.1243,5.21,5.2503,5.2939,5.3533,5.3854,5.3802,5.3618,5.3485,5.3162,5.2751,5.3067,5.3533,5.4041,5.4511,5.5013,5.5398,5.4859,5.4367,5.4572,5.477,5.4862,5.5121,5.5511,5.5588,5.531,5.5272,5.5357,5.292,5.2915,5.2884,5.292,5.2842,5.2805,5.292,5.2994,5.2994,5.3067,5.3209,5.3245,5.3282,5.3471,5.4032,5.4216,5.4441,5.4808,5.5023,5.4992,5.5065,5.5176,5.5543,5.6235,5.6413,5.7036,5.7514,5.785,5.7892,5.7672,5.7635,5.7669,5.7381,5.7186,5.7015,5.7132,5.7024,5.6466,5.6629,5.6065,5.4764,5.4236,5.3274,5.2274,5.1659,5.12,5.0589,4.9897,4.9346,4.8986,4.8315,4.7764,4.7305,4.722,4.6816,4.6269,4.5609,4.5113,4.5117,4.5173,4.5337,4.5301,4.5631,4.5741,4.6016,4.6255,4.6705,4.6945,4.7043,4.7709,4.8832,4.9197,4.9706,5.0068,5.044,5.0624,5.0729,5.1132,5.1351,5.1137,5.0531,5.0532,5.0559,5.0106,4.9844,5.0465,5.1138,5.1847,5.2461,5.2981,5.3501,5.4113,5.4464,5.4415,5.4454,5.4357,5.4105,5.3614,5.3941,5.4459,5.4967,5.5436,5.5629,5.5744,5.5398,5.5406,5.573,5.5845,5.5716,5.5631,5.567,5.5708,5.5667,5.5708,5.5865,5.3209,5.3209,5.3209,5.3209,5.3209,5.3209,5.3209,5.3209,5.3209,5.3209,5.3324,5.3728,5.41,5.4509,5.4961,5.5065,5.5176,5.5506,5.5585,5.5658,5.5695,5.5873,5.6235,5.6633,5.6926,5.7483,5.7776,5.7892,5.8002,5.8002,5.8002,5.7969,5.7809,5.7566,5.7502,5.7477,5.7311,5.7111,5.6951,5.6357,5.539,5.4695,5.3931,5.2697,5.2654,5.2149,5.1569,5.1625,5.0804,5.0179,4.935,4.8372,4.7296,4.6839,4.6753,4.6888,4.698,4.6524,4.5805,4.5914,4.6062,4.614,4.6361,4.676,4.7256,4.8024,4.84,4.851,4.8984,4.9541,5.0016,5.0256,5.044,5.0802,5.1279,5.1426,5.1604,5.2061,5.2318,5.2051,5.181,5.174,5.1664,5.1332,5.1031,5.1328,5.1947,5.2567,5.3174,5.3699,5.4244,5.4803,5.4992,5.5077,5.5157,5.5164,5.5094,5.4767,5.4833,5.5349,5.5934,5.6324,5.6514,5.6896,5.7085,5.7099,5.7044,5.6502,5.6027,5.5829,5.5708,5.5906,5.6142,5.6376,5.6456,5.3361,5.3209,5.3209,5.3209,5.3209,5.3209,5.3324,5.3508,5.355,5.3618,5.3917,5.4436,5.5065,5.5548,5.5732,5.591,5.591,5.6093,5.6172,5.6209,5.6246,5.6613,5.6969,5.7183,5.7446,5.8002,5.7929,5.8002,5.8002,5.8002,5.8002,5.8002,5.7944,5.7824,5.7688,5.7721,5.7696,5.7248,5.6786,5.6198,5.5495,5.496,5.4293,5.3724,5.3329,5.2935,5.2308,5.2347,5.1724,5.1005,5.0565,4.9693,4.8386,4.8251,4.8207,4.8414,4.8663,4.8473,4.7785,4.7517,4.7136,4.7315,4.7567,4.848,4.8908,5.0188,5.0647,4.9834,5.0178,5.0648,5.1049,5.1101,5.1353,5.1646,5.2013,5.216,5.238,5.2768,5.2941,5.2669,5.2543,5.2611,5.2543,5.2428,5.2349,5.2386,5.2774,5.328,5.3625,5.4035,5.4396,5.4787,5.5085,5.5198,5.5343,5.5453,5.558,5.5815,5.5877,5.6186,5.6715,5.718,5.7434,5.7931,5.835,5.8091,5.7646,5.6956,5.6343,5.6659,5.6856,5.662,5.6697,5.6925,5.7148,5.3885,5.3209,5.3251,5.3245,5.3245,5.3209,5.366,5.4326,5.4326,5.473,5.5286,5.5506,5.5579,5.5873,5.6455,5.6706,5.6743,5.7488,5.7562,5.7635,5.7819,5.7672,5.7776,5.785,5.7966,5.8107,5.8327,5.8296,5.8112,5.8437,5.8217,5.8002,5.8039,5.7989,5.8043,5.817,5.7829,5.7263,5.6624,5.6023,5.5521,5.5122,5.4807,5.4343,5.3916,5.3404,5.2619,5.2513,5.2189,5.1688,5.1598,5.126,5.0192,5.0063,5.0025,5.0156,5.0265,5.021,5.0063,4.9811,5.0215,5.0362,5.0362,5.0173,5.022,5.0561,5.0772,5.0832,5.1062,5.1381,5.172,5.1997,5.238,5.2711,5.3078,5.3298,5.3408,5.3371,5.3508,5.3282,5.3209,5.3251,5.3041,5.2836,5.2794,5.2794,5.2836,5.3298,5.3349,5.3666,5.4039,5.4403,5.4848,5.5051,5.5196,5.5446,5.5971,5.6319,5.6471,5.692,5.7443,5.7807,5.7978,5.843,5.8674,5.8487,5.8401,5.8182,5.8083,5.8113,5.8,5.7616,5.7404,5.755,5.7852,5.4515,5.4662,5.4662,5.4394,5.399,5.4473,5.484,5.5102,5.5144,5.5579,5.6345,5.6345,5.6602,5.7042,5.7299,5.755,5.7587,5.7813,5.7966,5.8002,5.7966,5.8002,5.8112,5.8468,5.8756,5.8835,5.9129,5.9465,5.9538,5.9312,5.9055,5.8835,5.8364,5.8039,5.8129,5.8376,5.8023,5.7487,5.7112,5.6886,5.6215,5.5616,5.5154,5.443,5.4395,5.3799,5.3194,5.3392,5.2983,5.2548,5.2365,5.1903,5.1381,5.1261,5.1338,5.1543,5.1584,5.1751,5.1898,5.1458,5.0839,5.0949,5.1137,5.1436,5.1248,5.1649,5.184,5.1883,5.1993,5.2407,5.2643,5.3193,5.3665,5.3995,5.4216,5.4399,5.4436,5.4326,5.4195,5.4048,5.3849,5.3755,5.3461,5.3167,5.313,5.3167,5.3172,5.323,5.3398,5.3618,5.4096,5.4482,5.4939,5.5408,5.5601,5.6002,5.6454,5.6736,5.6987,5.7516,5.7966,5.7954,5.819,5.8644,5.9167,5.9281,5.9439,5.9701,5.9501,5.8963,5.8638,5.842,5.8291,5.8291,5.8527,5.5286,5.5658,5.6141,5.5732,5.4924,5.5365,5.5732,5.5946,5.5946,5.6424,5.7147,5.7183,5.7446,5.7892,5.7966,5.796,5.7929,5.7966,5.7966,5.8076,5.8253,5.8327,5.8615,5.9049,5.9563,5.971,6.0003,6.0303,6.023,6.0376,6.0009,5.9496,5.8982,5.8657,5.8063,5.8266,5.8088,5.7515,5.7434,5.7424,5.6593,5.6121,5.5819,5.5224,5.5195,5.4643,5.4116,5.402,5.3655,5.3093,5.2707,5.2503,5.2067,5.1778,5.1982,5.2323,5.2564,5.2747,5.2931,5.2449,5.1573,5.1793,5.2386,5.2396,5.237,5.2926,5.3209,5.3345,5.3508,5.3628,5.3785,5.4405,5.4625,5.4808,5.4992,5.5176,5.5218,5.5144,5.4983,5.4815,5.4669,5.4575,5.4485,5.4148,5.3686,5.3686,5.3654,5.3728,5.387,5.4154,5.4559,5.4884,5.5174,5.5686,5.6143,5.6296,5.6493,5.6827,5.7204,5.7987,5.8358,5.8319,5.8766,5.9564,6.0025,6.0192,6.014,6.0003,5.9713,5.9364,5.9285,5.9335,5.9332,5.9338,5.934,5.6271,5.5842,5.7268,5.6974,5.5726,5.5616,5.6088,5.6748,5.678,5.7189,5.7776,5.7855,5.7892,5.8002,5.8002,5.8002,5.8002,5.8002,5.8076,5.829,5.8725,5.9043,5.9453,5.9899,6.0376,6.0376,6.067,6.0848,6.0633,6.0817,6.0597,6.0376,6.0009,5.9397,5.8192,5.805,5.7637,5.6993,5.7022,5.6813,5.6581,5.6359,5.6294,5.6303,5.5954,5.5309,5.4921,5.4622,5.4273,5.37,5.3532,5.3622,5.3892,5.3382,5.355,5.4096,5.3576,5.3712,5.4216,5.3513,5.3219,5.3183,5.3781,5.3986,5.416,5.4401,5.4533,5.4559,5.4667,5.4774,5.5132,5.5511,5.5543,5.5658,5.5836,5.6062,5.6136,5.6136,5.6042,5.569,5.56,5.5555,5.5527,5.5279,5.4526,5.4242,5.421,5.4284,5.4436,5.4641,5.5015,5.5243,5.5493,5.6043,5.6436,5.641,5.6542,5.6918,5.7426,5.8208,5.8731,5.8858,5.9459,6.0355,6.035,6.0036,6.005,6.008,5.9996,6.0,6.0308,6.039,6.0388,6.0269,6.0157,5.6969,5.7231,5.7782,5.7714,5.7195,5.7195,5.7378,5.7556,5.7635,5.774,5.796,5.8002,5.8002,5.8002,5.8039,5.8039,5.8033,5.8039,5.8143,5.8835,5.9233,5.9563,6.0083,6.0743,6.1184,6.1331,6.1588,6.1875,6.2059,6.1808,6.152,6.13,6.075,5.9825,5.9077,5.8735,5.8402,5.7778,5.7635,5.7545,5.7338,5.6927,5.67,5.6876,5.6277,5.5802,5.5475,5.5252,5.4972,5.463,5.4573,5.4827,5.5143,5.4711,5.4861,5.5162,5.4799,5.4889,5.5161,5.4882,5.4803,5.4913,5.4955,5.5192,5.5219,5.5182,5.5411,5.5548,5.5467,5.5471,5.553,5.6142,5.6365,5.6559,5.6785,5.7189,5.7378,5.7336,5.7189,5.665,5.637,5.6051,5.5939,5.6116,5.5557,5.5311,5.5317,5.5176,5.5249,5.5254,5.546,5.5587,5.5839,5.6408,5.6787,5.6924,5.7305,5.7844,5.8097,5.8444,5.8867,5.9051,5.9019,5.9315,5.9597,5.984,5.9774,5.9869,6.0455,6.0722,6.0732,6.0742,6.0663,6.0583,6.0586,5.7519,5.8002,5.8002,5.8002,5.8002,5.8002,5.8002,5.8002,5.8002,5.8002,5.8002,5.8002,5.8002,5.8076,5.829,5.84,5.8431,5.8767,5.8951,5.9642,5.9967,6.0376,6.097,6.1588,6.1955,6.2175,6.2432,6.2756,6.2646,6.2756,6.2469,6.1991,6.1478,6.0927,6.0248,5.9777,5.9406,5.888,5.8728,5.8425,5.8163,5.7768,5.7254,5.7147,5.6825,5.6347,5.6141,5.5983,5.5879,5.5743,5.5671,5.5768,5.5869,5.5773,5.5811,5.5868,5.6,5.6016,5.5994,5.6387,5.6381,5.646,5.6203,5.6037,5.6037,5.602,5.6242,5.6341,5.6164,5.6235,5.6443,5.705,5.7135,5.733,5.7446,5.785,5.7886,5.7813,5.7734,5.7261,5.7086,5.671,5.6468,5.6618,5.6602,5.6537,5.6466,5.6246,5.6099,5.6136,5.6172,5.6336,5.6488,5.7013,5.7441,5.7617,5.813,5.8782,5.8731,5.8526,5.8688,5.882,5.8539,5.8439,5.9121,5.9571,5.942,5.9616,6.0025,6.0415,6.0602,6.0663,6.0781,6.0781,6.0781,5.7966,5.8002,5.8002,5.8002,5.8002,5.8002,5.8002,5.8002,5.8002,5.8002,5.807,5.8143,5.8253,5.8364,5.8939,5.9233,5.9306,5.9899,6.0236,6.0566,6.0933,6.1343,6.1814,6.2432,6.2652,6.2756,6.2939,6.3135,6.2909,6.3306,6.3196,6.3013,6.2976,6.2505,6.1875,6.1306,6.0659,6.0005,5.9522,5.9283,5.9074,5.8609,5.8248,5.807,5.7855,5.7446,5.711,5.6816,5.6492,5.6172,5.5853,5.6233,5.634,5.6057,5.6308,5.6582,5.683,5.6847,5.6932,5.7409,5.7593,5.7452,5.7152,5.6946,5.6841,5.6853,5.7048,5.72,5.7126,5.7443,5.7722,5.7771,5.7813,5.7855,5.7855,5.7966,5.7966,5.7966,5.7966,5.7796,5.7796,5.7589,5.7504,5.7558,5.7273,5.7344,5.7237,5.7121,5.7048,5.7262,5.7305,5.7378,5.7567,5.7751,5.8002,5.8002,5.8087,5.8464,5.8354,5.8241,5.8407,5.857,5.8445,5.854,5.9075,5.9314,5.9302,5.9353,5.9467,5.9818,6.0225,6.047,6.0564,6.0737,6.0778,5.8002,5.8002,5.8002,5.8002,5.8002,5.8002,5.8002,5.8002,5.8002,5.829,5.8866,5.8829,5.9092,5.9722,5.9973,6.0046,6.0156,6.034,6.0786,6.1196,6.16,6.1961,6.2548,6.3129,6.3239,6.3239,6.3349,6.3729,6.387,6.4157,6.4481,6.4591,6.4334,6.4189,6.3853,6.3375,6.2075,6.0969,6.0402,6.012,6.0034,5.9673,5.9312,5.8982,5.8762,5.8315,5.7844,5.7587,5.7336,5.7268,5.7231,5.7517,5.7517,5.7407,5.7545,5.7576,5.766,5.766,5.7703,5.7886,5.8076,5.8112,5.7813,5.7709,5.7652,5.7641,5.7711,5.7717,5.7717,5.7838,5.7917,5.796,5.8002,5.8002,5.8002,5.8002,5.8002,5.8002,5.8002,5.8002,5.8002,5.8002,5.8002,5.7923,5.768,5.7881,5.7929,5.7776,5.774,5.7886,5.796,5.7966,5.8002,5.8002,5.8002,5.8002,5.8002,5.8045,5.802,5.7989,5.8147,5.8266,5.831,5.8471,5.8742,5.9051,5.9307,5.9317,5.9252,5.9516,5.9899,6.013,6.0361,6.0516,6.0585,5.8002,5.8002,5.8002,5.8002,5.8039,5.8364,5.8468,5.8468,5.8468,5.8792,5.919,5.9526,5.993,6.0303,6.0676,6.0896,6.0933,6.1367,6.1734,6.1961,6.2077,6.2365,6.2982,6.3649,6.3723,6.3723,6.4053,6.4567,6.4714,6.4928,6.5251,6.5215,6.5325,6.5323,6.5061,6.4532,6.3819,6.2601,6.163,6.1062,6.0854,6.067,6.0077,5.9777,5.9526,5.8945,5.851,5.8327,5.8039,5.8002,5.8002,5.8002,5.8002,5.7966,5.8257,5.8325,5.8485,5.8474,5.8535,5.8877,5.8767,5.8578,5.8474,5.8253,5.8039,5.7892,5.7923,5.7923,5.796,5.7966,5.7966,5.8002,5.8002,5.8002,5.8002,5.8002,5.8002,5.8002,5.8002,5.8002,5.8002,5.8002,5.8002,5.8002,5.8002,5.8002,5.8002,5.7929,5.7892,5.7929,5.7966,5.7966,5.8002,5.8002,5.8002,5.8002,5.8002,5.8002,5.8008,5.8008,5.8002,5.8006,5.8142,5.8187,5.8275,5.855,5.8816,5.9029,5.9078,5.9306,5.9425,5.9583,5.9827,6.0124,6.0189,5.8002,5.8002,5.807,5.807,5.8149,5.8902,5.9233,5.9227,5.9374,5.941,5.9636,6.0187,6.0597,6.1,6.1447,6.1704,6.1851,6.2212,6.2542,6.2903,6.2915,6.3092,6.3496,6.387,6.4396,6.4617,6.4897,6.5411,6.5405,6.5698,6.5919,6.5515,6.5662,6.5835,6.5841,6.5541,6.5042,6.4643,6.3275,6.2291,6.1961,6.1374,6.0639,6.0517,6.004,5.9422,5.9165,5.8725,5.8186,5.8223,5.8259,5.8333,5.8373,5.8439,5.8816,5.9052,5.9268,5.9318,5.9416,5.9716,5.9679,5.949,5.9264,5.9017,5.882,5.8124,5.8002,5.8101,5.8132,5.836,5.8421,5.8676,5.8767,5.8584,5.8394,5.8217,5.8002,5.8002,5.8002,5.8002,5.8002,5.8002,5.8002,5.8002,5.8002,5.8002,5.8002,5.8002,5.8217,5.8217,5.8149,5.8149,5.8002,5.8002,5.8002,5.8002,5.8002,5.8002,5.8002,5.8002,5.8002,5.8002,5.8002,5.8045,5.8124,5.8045,5.8223,5.8467,5.868,5.8734,5.886,5.9011,5.9264,5.9561,5.9648,5.8002,5.8039,5.8651,5.8578,5.8217,5.9532,5.9747,5.9343,6.0523,6.1006,6.108,6.1269,6.163,6.2059,6.2322,6.2542,6.2652,6.2982,6.3246,6.3613,6.3759,6.401,6.4664,6.5191,6.5444,6.5413,6.5737,6.6299,6.6292,6.6666,6.707,6.7106,6.7063,6.699,6.6973,6.6666,6.6413,6.6123,6.5305,6.4377,6.4163,6.3576,6.2989,6.2248,6.1508,6.067,6.034,5.9936,5.9795,5.9832,5.9832,5.9835,5.9847,5.9803,5.9901,6.0071,6.0131,6.012,6.023,6.045,6.0413,6.0303,6.0101,6.0006,5.9545,5.8563,5.8149,5.8279,5.847,5.8728,5.8997,5.9344,5.9532,5.9196,5.8897,5.8541,5.8186,5.8155,5.8118,5.8087,5.8087,5.8087,5.8124,5.8076,5.8002,5.8002,5.8002,5.8143,5.8682,5.8866,5.8657,5.8547,5.8112,5.8039,5.8002,5.8002,5.8002,5.8002,5.8002,5.8002,5.8039,5.8333,5.8553,5.8149,5.8002,5.813,5.8172,5.8056,5.822,5.8336,5.8461,5.8631,5.862,5.8816,5.8927,5.8002,5.8112,5.8866,5.8939,5.8872,6.0272,6.067,6.056,6.1588,6.2144,6.2108,6.2175,6.2395,6.2939,6.3166,6.3349,6.346,6.3783,6.4194,6.453,6.4677,6.4854,6.5515,6.6182,6.6475,6.6501,6.7106,6.7527,6.7267,6.737,6.77,6.8098,6.8208,6.8185,6.8212,6.7971,6.7557,6.7046,6.6816,6.6653,6.6219,6.5264,6.453,6.3716,6.2836,6.1998,6.1367,6.0921,6.0413,6.0376,6.0303,6.0626,6.0582,6.0463,6.0597,6.0793,6.0933,6.0933,6.1043,6.1153,6.119,6.1043,6.0933,6.0864,6.0234,5.9372,5.9338,5.9462,5.9501,5.9717,5.9737,5.9975,6.0016,5.9826,5.971,5.9532,5.9402,5.9381,5.9336,5.9334,5.9249,5.9084,5.9129,5.9225,5.9005,5.8296,5.8223,5.8694,5.9196,5.9631,5.9385,5.9165,5.8872,5.8296,5.8002,5.8002,5.8002,5.8002,5.8161,5.8327,5.8584,5.8951,5.9098,5.892,5.8723,5.8586,5.8586,5.8251,5.8045,5.813,5.8215,5.8309,5.8251,5.8215,5.8364,5.8002,5.8107,5.8976,5.9264,5.9484,6.1043,6.1667,6.1673,6.2432,6.2793,6.2719,6.2719,6.2829,6.3239,6.3692,6.4023,6.4347,6.4634,6.5111,6.5405,6.5441,6.5778,6.6072,6.6409,6.7019,6.7794,6.8492,6.8445,6.8214,6.8325,6.8575,6.8898,6.8912,6.8889,6.9113,6.9173,6.8841,6.841,6.8204,6.8251,6.7444,6.6329,6.5662,6.4848,6.3967,6.3129,6.2572,6.1949,6.1074,6.0927,6.1117,6.1471,6.1747,6.1721,6.1739,6.1954,6.2126,6.1998,6.1887,6.2205,6.2101,6.1961,6.182,6.1453,6.0866,6.0681,6.0679,6.0662,6.0657,6.0585,6.0573,6.072,6.0732,6.0487,6.0487,6.0413,6.0344,6.0335,6.0339,6.0306,6.0082,5.9869,6.0012,6.0143,5.9679,5.8933,5.8982,5.9459,5.9899,6.0303,6.0382,6.0224,6.0034,5.9343,5.8582,5.8472,5.8624,5.8758,5.9027,5.9011,5.9123,5.9532,5.9832,5.9948,5.9757,5.9181,5.8769,5.8421,5.8251,5.8002,5.8045,5.813,5.813,5.8087,5.8045,5.8002,5.8112,5.9532,5.982,5.9631,6.1618,6.2212,6.1777,6.2469,6.2793,6.2836,6.2903,6.3123,6.3876,6.3956,6.439,6.5118,6.5478,6.5845,6.6176,6.6256,6.6666,6.72,6.7644,6.8014,6.8682,6.9424,6.966,6.9199,6.9346,6.9339,6.9112,6.9038,6.8988,6.891,6.902,6.9077,6.905,6.9082,6.8973,6.8398,6.7393,6.6476,6.5632,6.472,6.4561,6.434,6.387,6.3546,6.3209,6.2787,6.291,6.3093,6.3226,6.3218,6.3042,6.3215,6.2879,6.2836,6.2719,6.2469,6.2505,6.2395,6.2358,6.2028,6.2071,6.2034,6.1949,6.1887,6.1502,6.1525,6.1917,6.1985,6.1367,6.1111,6.0817,6.0669,6.0651,6.0669,6.0462,6.0194,6.02,6.0365,6.0347,6.0109,5.9724,6.0047,6.0493,6.0823,6.108,6.138,6.1251,6.1129,6.0723,6.0113,5.9686,5.9717,5.9808,5.9907,5.9978,6.0046,6.012,6.0376,6.0786,6.0126,5.9344,5.897,5.8709,5.8215,5.8002,5.8002,5.8002,5.8002,5.8002,5.8002]},{"header":{"parameterUnit":"m.s-1","parameterCategory":1,"la1":31.0,"la2":29.5877,"lo1":-88.7671,"lo2":-86.6584,"dy":0.0162,"dx":0.0185,"nx":115,"ny":88,"refTime":"2024-03-25T18:00:00:Z","depth":0,"parameterNumber":3,"parameterNumberName":"V-component_of_WINDS"},"data":[0.0,0.0,0.0,0.0,0.0,0.0,0.0,0.0,0.0,0.0,0.0,0.0,0.0,0.0,0.0,0.0,0.0,0.0,0.0,0.0,0.0,0.0,0.0,0.0,0.0,0.0,0.0,0.0,0.0,0.0,0.0,0.0,0.0,0.0,0.0,0.0,0.0,0.0,0.0,0.0,0.0,0.0,0.0,0.0,0.0,0.0,0.0,0.0,0.0,0.0,0.0,0.0,0.0,0.0,0.0,0.0,0.0,0.0,0.0,0.0,0.0,0.0,0.0,0.0,0.0,0.0,0.0,0.0,0.0,0.0,0.0,0.0,0.0,0.0,0.0,0.0,0.0,0.0,0.0,0.0,0.0,0.0,0.0,0.0,0.0,0.0,0.0,0.0,0.0,0.0,0.0,0.0,0.0,0.0,0.0,0.0,0.0,0.0,0.0,0.0,0.0,0.0,0.0,0.0,0.0,0.0,0.0,0.0,0.0,0.0,0.0,0.0,0.0,0.0,0.0,0.0,0.0,0.0,0.0,0.0,0.0,0.0,0.0,0.0,0.0,0.0,0.0,0.0,0.0,0.0,0.0,0.0,0.0,0.0,0.0,0.0,0.0,0.0,0.0,0.0,0.0,0.0,0.0,0.0,0.0,0.0,0.0,0.0,0.0,0.0,0.0,0.0,0.0,0.0,0.0,0.0,0.0,0.0,0.0,0.0,0.0,0.0,0.0,0.0,0.0,0.0,0.0,0.0,0.0,0.0,0.0,0.0,0.0,0.0,0.0,0.0,0.0,0.0,0.0,0.0,0.0,0.0,0.0,0.0,0.0,0.0,0.0,0.0,0.0,0.0,0.0,0.0,0.0,0.0,0.0,0.0,0.0,0.0,0.0,0.0,0.0,0.0,0.0,0.0,0.0,0.0,0.0,0.0,0.0,0.0,0.0,0.0,0.0,0.0,0.0,0.0,0.0,0.0,0.0,0.0,0.0,0.0,0.0,0.0,0.0,0.0,0.0,0.0,0.0,0.0,0.0,0.0,0.0,0.0,0.0,0.0,0.0,0.0,0.0,0.0,0.0,0.0,0.0,0.0,0.0,0.0,0.0,0.0,0.0,0.0,0.0,0.0,0.0,0.0,0.0,0.0,0.0,0.0,0.0,0.0,0.0,0.0,0.0,0.0,0.0,0.0,0.0,0.0,0.0,0.0,0.0,0.0,0.0,0.0,0.0,0.0,0.0,0.0,0.0,0.0,0.0,0.0,0.0,0.0,0.0,0.0,0.0,0.0,0.0,0.0,0.0,0.0,0.0,0.0,0.0,0.0,0.0,0.0,0.0,0.0,0.0,0.0,0.0,0.0,0.0,0.0,0.0,0.0,0.0,0.0,0.0,0.0,0.0,0.0,0.0,0.0,0.0,0.0,0.0,0.0,0.0,0.0,0.0,0.0,0.0,0.0,0.0,0.0,0.0,0.0,0.0,0.0,0.0,0.0,0.0,0.0,0.0,0.0,0.0,0.0,0.0,0.0,0.0,0.0,0.0,0.0,0.0,0.0,0.0,0.0,0.0,0.0,0.0,0.0,0.0,0.0,0.0,0.0,0.0,0.0,0.0,0.0,0.0,0.0,0.0,0.0,0.0,0.0,0.0,0.0,0.0,0.0,0.0,0.0,0.0,0.0,0.0,0.0,0.0,0.0,0.0,0.0,0.0,0.0,0.0,0.0,0.0,0.0,0.0,0.0,0.0,0.0,0.0,0.0,0.0,0.0,0.0,0.0,0.0,0.0,0.0,0.0,0.0,0.0,0.0,0.0,0.0,0.0,0.0,0.0,0.0,0.0,0.0,0.0,0.0,0.0,0.0,0.0,0.0,0.0,0.0,0.0,0.0,0.0,0.0,0.0,0.0,0.0,0.0,0.0,0.0,0.0,0.0,0.0,0.0,0.0,0.0,0.0,0.0,0.0,0.0,0.0,0.0,0.0,0.0,0.0,0.0,0.0,0.0,0.0,0.0,0.0,0.0,0.0,0.0,0.0,0.0,0.0,0.0,0.0,0.0,0.0,0.0,0.0,0.0,0.0,0.0,0.0,0.0,0.0,0.0,0.0,0.0,0.0,0.0,0.0,0.0,0.0,0.0,0.0,0.0,0.0,0.0,0.0,0.0,0.0,0.0,0.0,0.0,0.0,0.0,0.0,0.0,0.0,0.0,0.0,0.0,0.0,0.0,0.0,0.0,0.0,0.0,0.0,0.0,0.0,0.0,0.0,0.0,0.0,0.0,0.0,0.0,0.0,0.0,0.0,0.0,0.0,0.0,0.0,0.0,0.0,0.0,0.0,0.0,0.0,0.0,0.0,0.0,0.0,0.0,0.0,0.0,0.0,0.0,0.0,0.0,0.0,0.0,0.0,0.0,0.0,0.0,0.0,0.0,0.0,0.0,0.0,0.0,0.0,0.0,0.0,0.0,0.0,0.0,0.0,0.0,0.0,0.0,0.0,0.0,0.0,0.0,0.0,0.0,0.0,0.0,0.0,0.0,0.0,0.0,0.0,0.0,0.0,0.0,0.0,0.0,0.0,0.0,0.0,0.0,0.0,0.0,0.0,0.0,0.0,0.0,0.0,0.0,0.0,0.0,0.0,0.0,0.0,0.0,0.0,0.0,0.0,0.0,0.0,0.0,0.0,0.0,0.0,0.0,0.0,0.0,0.0,0.0,0.0,0.0,0.0,0.0,0.0,0.0,0.0,0.0,0.0,0.0,0.0,0.0,0.0,0.0,0.0,0.0,0.0,0.0,0.0,0.0,0.0,0.0,0.0,0.0,0.0,0.0,0.0,0.0,0.0,0.0,0.0,0.0,0.0,0.0,0.0,0.0,0.0,0.0,0.0,0.0,0.0,0.0,0.0,0.0,0.0,0.0,0.0,0.0,0.0,0.0,0.0,0.0,0.0,0.0,0.0,0.0,0.0,0.0,0.0,0.0,0.0,0.0,0.0,0.0,0.0,0.0,0.0,0.0,0.0,0.0,0.0,0.0,0.0,0.0,0.0,0.0,0.0,0.0,0.0,0.0,0.0,0.0,0.0,0.0,0.0,0.0,0.0,0.0,0.0,0.0,0.0,0.0,0.0,0.0,0.0,0.0,0.0,0.0,0.0,0.0,0.0,0.0,0.0,0.0,0.0,0.0,0.0,0.0,0.0,0.0,0.0,0.0,0.0,0.0,0.0,0.0,0.0,0.0,0.0,0.0,0.0,0.0,0.0,0.0,0.0,0.0,0.0,0.0,0.0,0.0,0.0,0.0,0.0,0.0,0.0,0.0,0.0,0.0,0.0,0.0,0.0,0.0,0.0,0.0,0.0,0.0,0.0,0.0,0.0,0.0,0.0,0.0,0.0,0.0,0.0,0.0,0.0,0.0,0.0,0.0,0.0,0.0,0.0,0.0,0.0,0.0,0.0,0.0,0.0,0.0,0.0,0.0,0.0,0.0,0.0,0.0,0.0,0.0,0.0,0.0,0.0,0.0,0.0,0.0,0.0,0.0,0.0,0.0,0.0,0.0,0.0,0.0,0.0,0.0,0.0,0.0,0.0,0.0,0.0,0.0,0.0,0.0,0.0,0.0,0.0,0.0,0.0,0.0,0.0,0.0,0.0,0.0,0.0,0.0,0.0,0.0,0.0,0.0,0.0,0.0,0.0,0.0,0.0,0.0,0.0,0.0,0.0,0.0,0.0,0.0,0.0,0.0,0.0,0.0,0.0,0.0,0.0,0.0,0.0,0.0,0.0,0.0,0.0,0.0,0.0,0.0,0.0,0.0,0.0,0.0,0.0,0.0,0.0,0.0,0.0,0.0,0.0,0.0,0.0,0.0,0.0,0.0,0.0,0.0,0.0,0.0,0.0,0.0,0.0,0.0,0.0,0.0,0.0,0.0,0.0,0.0,0.0,0.0,0.0,0.0,0.0,0.0,0.0,0.0,0.0,0.0,0.0,0.0,0.0,0.0,0.0,0.0,0.0,0.0,0.0,0.0,0.0,0.0,0.0,0.0,0.0,0.0,0.0,0.0,0.0,0.0,0.0,0.0,0.0,0.0,0.0,0.0,0.0,0.0,0.0,0.0,0.0,0.0,0.0,0.0,0.0,0.0,0.0,0.0,0.0,0.0,0.0,0.0,0.0,0.0,0.0,0.0,0.0,0.0,0.0,0.0,0.0,0.0,0.0,0.0,0.0,0.0,0.0,0.0,0.0,0.0,0.0,0.0,0.0,0.0,0.0,0.0,0.0,0.0,0.0,0.0,0.0,0.8267,0.0,0.0,0.0,0.0,0.0,0.0,0.0,0.0,0.0,0.0,0.0,0.0,0.0,0.0,0.0,0.0,0.0,0.0,0.0,0.0,0.0,0.0,0.0,0.0,0.0,0.0,0.0,0.0,0.0,0.0,0.0,0.0,0.0,0.0,0.0,0.0,0.0,0.0,0.0,0.0,0.0,0.0,0.0,0.0,0.0,0.0,0.0,0.0,0.0,0.0,0.0,0.0,0.0,0.0,0.0,0.0,0.0,0.0,0.0,0.0,0.0,0.0,0.0,0.0,0.0,0.0,0.0,0.0,0.0,0.0,0.0,0.0,0.0,0.0,0.0,0.0,0.0,0.0,0.0,0.0,0.0,0.0,0.0,0.0,0.0,0.0,0.0,0.0,0.0,0.0,0.0,0.0,0.0,0.0,0.0,0.0,0.0,0.0,0.0,0.0,0.0,0.0,0.0,0.0,0.0,0.0,0.0,0.0,0.0,0.0,0.8053,0.8147,0.8364,0.8377,0.816,0.0,0.0,0.0,0.0,0.0,0.0,0.0,0.0,0.0,0.0,0.0,0.0,0.0,0.0,0.0,0.0,0.0,0.0,0.0,0.0,0.0,0.0,0.0,0.0,0.0,0.0,0.0,0.0,0.0,0.0,0.0,0.0,0.0,0.0,0.0,0.0,0.0,0.0,0.0,0.0,0.0,0.0,0.0,0.0,0.0,0.0,0.0,0.0,0.0,0.0,0.0,0.0,0.0,0.0,0.0,0.0,0.0,0.0,0.0,0.0,0.0,0.0,0.0,0.0,0.0,0.0,0.0,0.0,0.0,0.0,0.0,0.0,0.0,0.0,0.0,0.0,0.0,0.0,0.0,0.0,0.0,0.0,0.0,0.0,0.0,0.0,0.0,0.0,0.0,0.0,0.0,0.0,0.0,0.0,0.0,0.0,0.0,0.0,0.0,0.0,0.0,0.0,0.0,0.0,0.0,0.0,0.0,0.0,0.0,0.0,0.0,0.0,0.839,0.8377,0.8128,0.0,0.0,0.0,0.0,0.0,0.0,0.0,0.0,0.0,0.0,0.0,0.0,0.0,0.0,0.0,0.0,0.0,0.0,0.0,0.0,0.0,0.0,0.0,0.0,0.0,0.0,0.0,0.0,0.0,0.0,0.0,0.0,0.0,0.0,0.0,0.0,0.0,0.0,0.0,0.0,0.0,0.0,0.0,0.0,0.0,0.0,0.0,0.0,0.0,0.0,0.0,0.0,0.0,0.0,0.0,0.0,0.0,0.0,0.0,0.0,0.0,0.0,0.0,0.0,0.0,0.0,0.0,0.0,0.0,0.0,0.0,0.0,0.0,0.0,0.0,0.0,0.0,0.0,0.0,0.0,0.0,0.0,0.0,0.0,0.0,0.0,0.0,0.0,0.0,0.0,0.0,0.0,0.0,0.0,0.0,0.0,0.0,0.0,0.0,0.0,0.0,0.0,0.0,0.0,0.0,0.0,0.0,0.0,0.0,0.0,0.8204,0.8622,0.854,0.0,0.8444,0.0,0.0,0.0,0.0,0.0,0.0,0.0,0.0,0.0,0.0,0.0,0.0,0.0,0.0,0.0,0.0,0.0,0.0,0.0,0.0,0.0,0.0,0.0,0.0,0.0,0.0,0.0,0.0,0.0,0.0,0.0,0.0,0.0,0.0,0.0,0.0,0.0,0.0,0.0,0.0,0.0,0.0,0.0,0.0,0.0,0.0,0.0,0.0,0.0,0.0,0.0,0.0,0.0,0.0,0.0,0.0,0.0,0.0,0.0,0.0,0.0,0.0,0.0,0.0,0.0,0.0,0.0,0.0,0.0,0.0,0.0,0.0,0.0,0.0,0.0,0.0,0.0,0.0,0.0,0.0,0.0,0.0,0.0,0.0,0.0,0.0,0.0,0.0,0.0,0.0,0.0,0.0,0.0,0.0,0.0,0.0,0.0,0.0,0.0,0.0,0.0,0.0,0.0,0.0,0.0,0.0,0.0,0.0,0.0,0.0,0.8552,0.8594,0.8533,0.841,0.0,0.0,0.0,0.0,0.0,0.0,0.0,0.0,0.0,0.0,0.0,0.0,0.0,0.0,0.0,0.0,0.0,0.0,0.0,0.0,0.0,0.0,0.0,0.0,0.0,0.0,0.0,0.0,0.0,0.0,0.0,0.0,0.0,0.0,0.0,0.0,0.0,0.0,0.0,0.0,0.0,0.0,0.0,0.0,0.0,0.0,0.0,0.0,0.0,0.0,0.0,0.0,0.0,0.0,0.0,0.0,0.0,0.0,0.0,0.0,0.0,0.0,0.0,0.0,0.0,0.0,0.0,0.0,0.0,0.0,0.0,0.0,0.0,0.0,0.0,0.0,0.0,0.0,0.0,0.0,0.0,0.0,0.0,0.0,0.0,0.0,0.0,0.0,0.0,0.0,0.0,0.0,0.0,0.0,0.0,0.0,0.0,0.0,0.0,0.0,0.0,0.0,0.0,0.0,0.0,0.0,0.0,0.0,0.0,0.0,0.8576,0.8709,0.8559,0.8438,0.8275,0.8093,0.0,0.0,0.0,0.0,0.0,0.0,0.0,0.0,0.0,0.0,0.0,0.0,0.0,0.0,0.0,0.0,0.0,0.0,0.0,0.0,0.0,0.0,0.0,0.0,0.0,0.0,0.0,0.0,0.0,0.0,0.0,0.0,0.0,0.0,0.0,0.0,0.0,0.0,0.0,0.0,0.0,0.0,0.0,0.0,0.0,0.0,0.0,0.0,0.0,0.0,0.0,0.0,0.0,0.0,0.0,0.0,0.0,0.0,0.0,0.0,0.0,0.0,0.0,0.0,0.0,0.0,0.0,0.0,0.0,0.0,0.0,0.0,0.0,0.0,0.0,0.0,0.0,0.0,0.0,0.0,0.0,0.0,0.0,0.0,0.0,0.0,0.0,0.0,0.0,0.0,0.0,0.0,0.0,0.0,0.0,0.0,0.0,0.0,0.0,0.0,0.0,0.0,0.0,0.0,0.0,0.0,0.0,0.0,0.8628,0.8573,0.8573,0.8662,0.8244,0.8114,0.0,0.0,0.0,0.0,0.0,0.0,0.0,0.0,0.0,0.0,0.0,0.0,0.0,0.0,0.0,0.0,0.0,0.0,0.0,0.0,0.0,0.0,0.0,0.0,0.0,0.0,0.0,0.0,0.0,0.0,0.0,0.0,0.0,0.0,0.0,0.0,0.0,0.0,0.0,0.0,0.0,0.0,0.0,0.0,0.0,0.0,0.0,0.0,0.0,0.0,0.0,0.0,0.0,0.0,0.0,0.0,0.0,0.0,0.0,0.0,0.0,0.0,0.0,0.0,0.0,0.0,0.0,0.0,0.0,0.0,0.0,0.0,0.0,0.0,0.0,0.0,0.0,0.0,0.0,0.0,0.0,0.0,0.0,0.0,0.0,0.0,0.0,0.0,0.0,0.0,0.0,0.0,0.0,0.0,0.0,0.0,0.0,0.0,0.0,0.0,0.0,0.0,0.0,0.0,0.0,0.0,0.0,0.0,0.0,0.825,0.8402,0.8524,0.8567,0.8404,0.8227,0.0,0.0,0.0,0.0,0.0,0.0,0.0,0.0,0.0,0.0,0.0,0.0,0.0,0.0,0.0,0.0,0.0,0.0,0.0,0.0,0.0,0.0,0.0,0.0,0.0,0.0,0.0,0.0,0.0,0.0,0.0,0.0,0.0,0.0,0.0,0.0,0.0,0.0,0.0,0.0,0.0,0.0,0.0,0.0,0.0,0.0,0.0,0.0,0.0,0.0,0.0,0.0,0.0,0.0,0.0,0.0,0.0,0.0,0.0,0.0,0.0,0.0,0.0,0.0,0.0,0.0,0.0,0.0,0.0,0.0,0.0,0.0,0.0,0.0,0.0,0.0,0.0,0.0,0.0,0.0,0.0,0.0,0.0,0.0,0.0,0.0,0.0,0.0,0.0,0.0,0.0,0.0,0.0,0.0,0.0,0.0,0.0,0.0,0.0,0.0,0.0,0.0,0.0,0.0,0.0,0.0,0.0,0.0,0.0,0.8162,0.0,0.8533,0.8499,0.8464,0.8213,0.0,0.0,0.0,0.0,0.0,0.0,0.0,0.0,0.0,0.0,0.0,0.0,0.0,0.0,0.0,0.0,0.0,0.0,0.0,0.0,0.0,0.0,0.0,0.0,0.0,0.0,0.0,0.0,0.0,0.0,0.0,0.0,0.0,0.0,0.0,0.0,0.0,0.0,0.0,0.0,0.0,0.0,0.0,0.0,0.0,0.0,0.0,0.0,0.0,0.0,0.0,0.0,0.0,0.0,0.0,0.0,0.0,0.0,0.0,0.0,0.0,0.0,0.0,0.0,0.0,0.0,0.0,0.0,0.0,0.0,0.0,0.0,0.0,0.0,0.0,0.0,0.0,0.0,0.0,0.0,0.0,0.0,0.0,0.0,0.0,0.0,0.0,0.0,0.0,0.0,0.0,0.0,0.0,0.0,0.0,0.0,0.0,0.0,0.0,0.0,0.0,0.0,0.0,0.0,0.0,0.0,0.0,0.0,0.8168,0.8485,0.8615,0.8628,0.8499,0.8383,0.8097,0.0,0.0,0.0,0.0,0.0,0.0,0.0,0.0,0.0,0.0,0.0,0.0,0.0,0.0,0.0,0.0,0.0,0.0,0.0,0.0,0.0,0.0,0.0,0.0,0.0,0.0,0.0,0.0,0.0,0.0,0.0,0.0,0.0,0.0,0.0,0.0,0.0,0.0,0.0,0.0,0.0,0.0,0.0,0.0,0.0,0.0,0.0,0.0,0.0,0.0,0.0,0.0,0.0,0.0,0.0,0.0,0.0,0.0,0.0,0.0,0.0,0.0,0.0,0.0,0.0,0.0,0.0,0.0,0.0,0.0,0.0,0.0,0.0,0.0,0.0,0.0,0.0,0.0,0.0,0.0,0.0,0.0,0.0,0.0,0.0,0.0,0.0,0.0,0.0,0.0,0.0,0.0,0.0,0.0,0.0,0.0,0.0,0.0,0.0,0.0,0.0,0.0,0.0,0.0,0.0,0.0,0.0,0.0,0.0,0.8511,0.8542,0.8581,0.8641,0.841,0.8226,0.0,0.0,0.0,0.0,0.0,0.0,0.0,0.0,0.0,0.0,0.0,0.0,0.0,0.0,0.0,0.0,0.0,0.0,0.0,0.0,0.0,0.0,0.0,0.0,0.0,0.0,0.0,0.0,0.0,0.0,0.0,0.0,0.0,0.0,0.0,0.0,0.0,0.0,0.0,0.0,0.0,0.0,0.0,0.0,0.0,0.0,0.0,0.0,0.0,0.0,0.0,0.0,0.0,0.0,0.0,0.0,0.0,0.0,0.0,0.0,0.0,0.0,0.0,0.0,0.0,0.0,0.0,0.0,0.0,0.0,0.0,0.0,0.0,0.0,0.0,0.0,0.0,0.0,0.0,0.0,0.0,0.0,0.0,0.0,0.0,0.0,0.0,0.0,0.0,0.0,0.0,0.0,0.0,0.0,0.0,0.0,0.0,0.0,0.0,0.0,0.0,0.0,0.0,0.0,0.0,0.0,0.0,0.0,0.0,0.8513,0.859,0.8683,0.8784,0.856,0.8357,0.8187,0.0,0.0,0.0,0.0,0.0,0.0,0.0,0.0,0.0,0.0,0.0,0.0,0.0,0.0,0.0,0.0,0.0,0.0,0.0,0.0,0.0,0.0,0.0,0.0,0.0,0.0,0.0,0.0,0.0,0.0,0.0,0.0,0.0,0.0,0.0,0.0,0.0,0.0,0.0,0.0,0.0,0.0,0.0,0.0,0.0,0.0,0.0,0.0,0.0,0.0,0.0,0.0,0.0,0.0,0.0,0.0,0.0,0.0,0.0,0.0,0.0,0.0,0.0,0.0,0.0,0.0,0.0,0.0,0.0,0.0,0.0,0.0,0.0,0.0,0.0,0.0,0.0,0.0,0.0,0.0,0.0,0.0,0.0,0.0,0.0,0.0,0.0,0.0,0.0,0.0,0.0,0.0,0.0,0.0,0.0,0.0,0.0,0.0,0.0,0.0,0.0,0.0,0.0,0.0,0.0,0.0,0.0,0.0,0.8521,0.877,0.8899,0.8905,0.8777,0.8486,0.0,0.0,0.0,0.0,0.0,0.0,0.0,0.0,0.0,0.0,0.0,0.0,0.0,0.0,0.0,0.0,0.0,0.0,0.0,0.0,0.0,0.0,0.0,0.0,0.0,0.0,0.0,0.0,0.0,0.0,0.0,0.0,0.0,0.0,0.0,0.0,0.0,0.0,0.0,0.0,0.0,0.0,0.0,0.0,0.0,0.0,0.0,0.0,0.0,0.0,0.0,0.0,0.0,0.0,0.0,0.0,0.0,0.0,0.0,0.0,0.0,0.0,0.0,0.0,0.0,0.0,0.0,0.0,0.0,0.0,0.0,0.0,0.0,0.0,0.0,0.0,0.0,0.0,0.0,0.0,0.0,0.0,0.0,0.0,0.0,0.0,0.0,0.0,0.0,0.0,0.0,0.0,0.0,0.0,0.0,0.0,0.0,0.0,0.0,0.0,0.0,0.0,0.0,0.0,0.0,0.0,0.0,0.0,0.0,0.8787,0.8852,0.8974,0.9111,0.8845,0.8683,0.0,0.0,0.0,0.0,0.0,0.0,0.0,0.0,0.0,0.0,0.0,0.0,0.0,0.0,0.0,0.0,0.0,0.0,0.0,0.0,0.0,0.0,0.0,0.0,0.0,0.0,0.0,0.0,0.0,0.0,0.0,0.0,0.0,0.0,0.0,0.0,0.0,0.0,0.0,0.0,0.0,0.0,0.0,0.0,0.0,0.0,0.0,0.0,0.0,0.0,0.0,0.0,0.0,0.0,0.0,0.0,0.0,0.0,0.0,0.0,0.0,0.0,0.0,0.0,0.0,0.0,0.0,0.0,0.0,0.0,0.0,0.0,0.0,0.0,0.0,0.0,0.0,0.0,0.0,0.0,0.0,0.0,0.0,0.0,0.0,0.0,0.0,0.0,0.0,0.0,0.0,0.0,0.0,0.0,0.0,0.0,0.0,0.0,0.0,0.0,0.0,0.0,0.0,0.0,0.0,0.0,0.0,0.0,0.8408,0.8632,0.8825,0.8946,0.9062,0.8879,0.8757,0.0,0.0,0.0,0.0,0.0,0.0,0.0,0.0,0.0,0.0,0.0,0.0,0.0,0.0,0.0,0.0,0.0,0.0,0.0,0.0,0.0,0.0,0.0,0.0,0.0,0.0,0.0,0.0,0.0,0.0,0.0,0.0,0.0,0.0,0.0,0.0,0.0,0.0,0.0,0.0,0.0,0.0,0.0,0.0,0.0,0.0,0.0,0.0,0.0,0.0,0.0,0.0,0.0,0.0,0.0,0.0,0.0,0.0,0.0,0.0,0.0,0.0,0.0,0.0,0.0,0.0,0.0,0.0,0.0,0.0,0.0,0.0,0.0,0.0,0.0,0.0,0.0,0.0,0.0,0.0,0.0,0.0,0.0,0.0,0.0,0.0,0.0,0.0,0.0,0.0,0.0,0.0,0.0,0.0,0.0,0.0,0.0,0.0,0.0,0.0,0.0,0.0,0.0,0.0,0.0,0.0,0.0,0.0,0.8294,0.8301,0.8662,0.8858,0.8865,0.8865,0.8757,0.0,0.0,0.0,0.0,0.0,0.0,0.0,0.0,0.0,0.0,0.0,0.0,0.0,0.0,0.0,0.0,0.0,0.0,0.0,0.0,0.0,0.0,0.0,0.0,0.0,0.0,0.0,0.0,0.0,0.0,0.0,0.0,0.0,0.0,0.0,0.0,0.0,0.0,0.0,0.0,0.0,0.0,0.0,0.0,0.0,0.0,0.0,0.0,0.0,0.0,0.0,0.0,0.0,0.0,0.0,0.0,0.0,0.0,0.0,0.0,0.0,0.0,0.0,0.0,0.0,0.0,0.0,0.0,0.0,0.0,0.0,0.0,0.0,0.0,0.0,0.0,0.0,0.0,0.0,0.0,0.0,0.0,0.0,0.0,0.0,0.0,0.0,0.0,0.0,0.0,0.0,0.0,0.0,0.0,0.0,0.0,0.0,0.0,0.0,0.0,0.0,0.0,0.0,0.0,0.0,0.0,0.0,0.0,0.8294,0.8301,0.8485,0.8594,0.8594,0.8683,0.8716,0.0,0.0,0.0,0.0,0.0,0.0,0.0,0.0,0.0,0.0,0.0,0.0,0.0,0.0,0.0,0.0,0.0,0.0,0.0,0.0,0.0,0.0,0.0,0.0,0.0,0.0,0.0,0.0,0.0,0.0,0.0,0.0,0.0,0.0,0.0,0.0,0.0,0.0,0.0,0.0,0.0,0.0,0.0,0.0,0.0,0.0,0.0,0.0,0.9246,0.0,0.0,0.0,0.0,0.0,0.0,0.0,0.0,0.0,0.0,0.0,0.0,0.0,0.0,0.0,0.0,0.0,0.0,0.0,0.0,0.0,0.0,0.0,0.0,0.0,0.0,0.0,0.0,0.0,0.0,0.0,0.0,0.0,0.0,0.0,0.0,0.0,0.0,0.0,0.0,0.0,0.0,0.0,0.0,0.0,0.0,0.0,0.0,0.0,0.0,0.0,0.0,0.0,0.0,0.0,0.0,0.0,0.0,0.0,0.8147,0.8167,0.8315,0.841,0.8397,0.854,0.8574,0.0,0.0,0.0,0.0,0.0,0.0,0.0,0.0,0.0,0.0,0.0,0.0,0.0,0.0,0.0,0.0,0.0,0.0,0.0,0.0,0.0,0.0,0.0,0.0,0.0,0.0,0.0,0.0,0.0,0.0,0.0,0.0,0.0,0.0,0.0,0.0,0.0,0.0,0.0,0.0,0.0,0.0,0.0,0.0,0.0,0.0,0.0,0.0,0.0,0.0,0.0,0.0,0.0,0.0,0.0,0.0,0.0,0.0,0.0,0.0,0.0,0.0,0.0,0.0,0.0,0.0,0.0,0.0,0.0,0.0,0.0,0.0,0.0,0.0,0.0,0.0,0.0,0.0,0.0,0.0,0.0,0.0,0.0,0.0,0.0,0.0,0.0,0.0,0.0,0.0,0.0,0.0,0.0,0.0,0.0,0.0,0.0,0.0,0.0,0.0,0.0,0.0,0.0,0.0,0.0,0.0,0.0,0.7994,0.7968,0.8007,0.8167,0.826,0.8254,0.8363,0.837,0.8254,0.0,0.0,0.0,0.0,0.0,0.0,0.0,0.0,0.0,0.0,0.0,0.0,0.0,0.0,0.0,0.0,0.0,0.0,0.0,0.0,0.0,0.0,0.0,0.0,0.0,0.0,0.0,0.0,0.0,0.0,0.0,0.0,0.0,0.0,0.0,0.0,0.0,0.0,0.813,0.8501,0.0,0.0,0.0,0.0,0.0,0.0,0.0,0.0,0.9055,0.0,0.0,0.0,0.0,0.0,0.0,0.0,0.0,0.0,0.0,0.0,0.0,0.0,0.0,0.0,0.0,0.0,0.0,0.0,0.0,0.0,0.0,0.0,0.0,0.0,0.0,0.0,0.0,0.0,0.0,0.0,0.0,0.0,0.0,0.0,0.0,0.0,0.0,0.0,0.0,0.0,0.0,0.0,0.0,0.0,0.0,0.0,0.0,0.0,0.0,0.0,0.0,0.0,0.0,0.0,0.0,0.7992,0.7903,0.7897,0.8001,0.8015,0.8047,0.8041,0.8061,0.8074,0.806,0.0,0.0,0.0,0.0,0.0,0.0,0.0,0.0,0.0,0.0,0.0,0.0,0.0,0.0,0.0,0.0,0.0,0.0,0.0,0.0,0.0,0.0,0.0,0.0,0.0,0.0,0.0,0.0,0.0,0.0,0.0,0.0,0.0,0.0,0.0,0.0,0.0,0.0,0.0,0.8946,0.9145,0.0,0.0,0.0,0.0,0.0,0.0,0.0,0.0,0.9501,0.0,0.0,0.0,0.0,0.0,0.0,0.0,0.0,0.0,0.0,0.0,0.0,0.0,0.0,0.0,0.0,0.0,0.0,0.0,0.0,0.0,0.0,0.0,0.0,0.0,0.0,0.0,0.0,0.0,0.0,0.0,0.0,0.0,0.0,0.0,0.0,0.0,0.0,0.0,0.0,0.0,0.0,0.0,0.0,0.0,0.0,0.0,0.0,0.0,0.0,0.0,0.0,0.0,0.0,0.0,0.7807,0.7877,0.7939,0.8001,0.8001,0.8001,0.8001,0.8001,0.796,0.0,0.0,0.0,0.0,0.0,0.0,0.0,0.0,0.0,0.0,0.0,0.0,0.0,0.0,0.0,0.0,0.0,0.0,0.0,0.0,0.0,0.0,0.0,0.0,0.0,0.0,0.0,0.0,0.0,0.0,0.0,0.0,0.0,0.0,0.0,0.0,0.0,0.0,0.0,0.0,0.9049,0.9165,0.947,0.0,0.0,0.0,0.0,0.0,0.0,0.9496,0.986,0.0,0.0,0.0,0.0,0.0,0.0,0.0,0.0,0.0,0.0,0.0,0.0,0.0,0.0,0.0,0.0,0.0,0.0,0.0,0.0,0.0,0.0,0.0,0.0,0.0,0.0,0.0,0.0,0.0,0.0,0.0,0.0,0.0,0.0,0.0,0.0,0.0,0.0,0.0,0.0,0.0,0.0,0.0,0.0,0.0,0.0,0.0,0.0,0.0,0.0,0.0,0.0,0.0,0.0,0.0,0.7693,0.788,0.7974,0.8001,0.8001,0.8001,0.8001,0.8001,0.7946,0.0,0.0,0.0,0.0,0.0,0.0,0.0,0.0,0.0,0.0,0.0,0.0,0.0,0.0,0.0,0.0,0.0,0.0,0.0,0.0,0.0,0.0,0.0,0.0,0.0,0.0,0.0,0.0,0.0,0.0,0.0,0.0,0.0,0.0,0.0,0.0,0.0,0.0,0.0,0.0,0.0,0.9265,0.9698,0.9478,0.0,0.0,0.0,0.0,0.852,0.9574,0.0,0.0,0.0,0.0,0.0,0.0,0.0,0.0,0.0,0.0,0.0,0.0,0.0,0.0,0.0,0.0,0.0,0.0,0.0,0.0,0.0,0.0,0.0,0.0,0.0,0.0,0.0,0.0,0.0,0.0,0.0,0.0,0.0,0.0,0.0,0.0,0.0,0.0,0.0,0.0,0.0,0.0,0.0,0.0,0.0,0.0,0.0,0.0,0.0,0.0,0.0,0.0,0.0,0.0,0.0,0.0,0.794,0.7876,0.7878,0.7994,0.8001,0.8001,0.8001,0.8001,0.7933,0.0,0.0,0.0,0.0,0.0,0.0,0.0,0.0,0.0,0.0,0.0,0.0,0.0,0.0,0.0,0.0,0.0,0.0,0.0,0.0,0.0,0.0,0.0,0.0,0.0,0.0,0.0,0.0,0.0,0.0,0.0,0.0,0.0,0.0,0.0,0.0,0.0,0.0,0.0,0.0,0.0,0.9685,0.9646,0.9491,0.9328,0.0,0.0,0.8533,0.8818,0.8999,0.0,0.0,0.0,0.0,0.0,0.0,0.0,0.0,0.0,0.0,0.0,0.0,0.0,0.0,0.0,0.0,0.0,0.0,0.0,0.0,0.0,0.0,0.0,0.0,0.0,0.0,0.0,0.0,0.0,0.0,0.0,0.0,0.0,0.0,0.0,0.0,0.0,0.0,0.0,0.0,0.0,0.0,0.0,0.0,0.0,0.0,0.0,0.0,0.0,0.0,0.0,0.0,0.0,0.0,0.0,0.7662,0.7994,0.7935,0.794,0.8001,0.8001,0.8001,0.8001,0.7932,0.7776,0.0,0.0,0.0,0.0,0.0,0.0,0.0,0.0,0.0,0.0,0.0,0.0,0.0,0.0,0.0,0.0,0.0,0.0,0.0,0.0,0.0,0.0,0.0,0.0,0.0,0.0,0.0,0.0,0.0,0.0,0.0,0.0,0.0,0.0,0.0,0.0,0.0,0.0,0.0,0.0,0.0,0.0,0.959,0.9618,0.0,0.0,0.0,0.8876,0.9349,0.0,0.0,0.0,0.0,0.0,0.0,0.0,0.0,0.0,0.0,0.0,0.0,0.0,0.0,0.0,0.0,0.0,0.0,0.0,0.0,0.0,0.0,0.0,0.0,0.0,0.0,0.0,0.0,0.0,0.0,0.0,0.0,0.0,0.0,0.0,0.0,0.0,0.0,0.0,0.0,0.0,0.0,0.0,0.0,0.0,0.0,0.0,0.0,0.0,0.0,0.0,0.0,0.0,0.0,0.0,0.0,0.0,0.7839,0.7947,0.8001,0.8001,0.8001,0.8001,0.8001,0.7917,0.0,0.0,0.0,0.0,0.0,0.0,0.0,0.0,0.0,0.0,0.0,0.0,0.0,0.0,0.0,0.0,0.0,0.0,0.0,0.0,0.0,0.0,0.0,0.0,0.0,0.0,0.0,0.6419,0.0,0.0,0.0,0.0,0.0,0.0,0.0,0.0,0.0,0.0,0.0,0.0,0.0,0.0,0.945,0.9576,0.9712,0.978,0.0,0.0,0.9206,0.9708,0.9939,1.0073,0.0,0.0,0.0,0.0,0.0,0.0,0.0,0.0,0.0,0.0,0.0,0.0,0.0,0.0,0.0,0.0,0.0,0.0,0.0,0.0,0.0,0.0,0.0,0.0,0.0,0.0,0.0,0.0,0.0,0.0,0.0,0.0,0.0,0.0,0.0,0.0,0.0,0.0,0.0,0.0,0.0,0.0,0.0,0.0,0.0,0.0,0.0,0.0,0.0,0.0,0.0,0.0,0.0,0.0,0.7238,0.7437,0.7814,0.8001,0.8001,0.8001,0.8001,0.8001,0.7994,0.7809,0.0,0.0,0.0,0.0,0.0,0.0,0.0,0.0,0.0,0.0,0.0,0.0,0.0,0.0,0.0,0.0,0.0,0.0,0.0,0.0,0.0,0.0,0.0,0.0,0.0,0.0,0.0,0.0,0.0,0.0,0.0,0.0,0.0,0.0,0.0,0.0,0.0,0.0,0.0,0.0,0.0,0.9435,0.9591,0.9712,0.9839,0.0,0.963,0.9467,0.9751,1.0264,1.0258,0.9209,0.0,0.0,0.0,0.0,0.0,0.0,0.0,0.0,0.0,0.0,0.0,0.0,0.0,0.0,0.0,0.0,0.0,0.0,0.0,0.0,0.0,0.0,0.0,0.0,0.0,0.0,0.0,0.0,0.0,0.0,0.0,0.0,0.0,0.0,0.0,0.0,0.0,0.0,0.0,0.0,0.0,0.0,0.0,0.0,0.0,0.0,0.0,0.0,0.0,0.0,0.0,0.0,0.0,0.7192,0.7394,0.7803,0.8001,0.8001,0.8001,0.8001,0.8001,0.8001,0.7751,0.0,0.0,0.0,0.0,0.0,0.0,0.0,0.0,0.0,0.0,0.0,0.0,0.0,0.0,0.0,0.0,0.0,0.0,0.0,0.0,0.0,0.0,0.0,0.0,0.0,0.0,0.0,0.0,0.683,0.6961,0.7022,0.0,0.0,0.0,0.0,0.0,0.0,0.0,0.0,0.0,0.0,0.9322,0.9463,0.9658,0.0,0.0,0.9605,0.9507,0.9747,0.9997,0.9993,0.9524,0.8642,0.0,0.0,0.0,0.0,0.0,0.0,0.0,0.0,0.0,0.0,0.0,0.0,0.0,0.0,0.0,0.0,0.0,0.0,0.0,0.0,0.0,0.0,0.0,0.0,0.0,0.0,0.0,0.0,0.0,0.0,0.0,0.0,0.0,0.0,0.0,0.0,0.0,0.0,0.0,0.0,0.0,0.0,0.0,0.0,0.0,0.0,0.0,0.0,0.0,0.0,0.0,0.0,0.7176,0.7315,0.7769,0.8001,0.8001,0.8001,0.8001,0.8001,0.8001,0.7744,0.0,0.0,0.0,0.0,0.0,0.0,0.0,0.0,0.0,0.0,0.0,0.0,0.0,0.0,0.0,0.0,0.0,0.0,0.0,0.0,0.0,0.0,0.0,0.0,0.0,0.0,0.0,0.0,0.6995,0.7123,0.7181,0.0,0.0,0.0,0.0,0.0,0.0,0.0,0.0,0.0,0.0,0.9171,0.9383,0.9572,0.9707,0.9739,0.9623,0.9583,0.9766,0.9641,0.9485,0.9306,0.0,0.0,0.0,0.0,0.0,0.0,0.0,0.0,0.0,0.0,0.0,0.0,0.0,0.0,0.0,0.0,0.0,0.0,0.0,0.0,0.0,0.0,0.0,0.0,0.0,0.0,0.0,0.6911,0.0,0.0,0.7599,0.0,0.0,0.0,0.0,0.0,0.0,0.0,0.0,0.0,0.0,0.0,0.0,0.0,0.0,0.0,0.0,0.0,0.0,0.0,0.0,0.0,0.0,0.7109,0.7116,0.7685,0.8001,0.8001,0.8001,0.8001,0.8001,0.8001,0.7816,0.7396,0.0,0.0,0.0,0.0,0.0,0.0,0.0,0.0,0.0,0.0,0.0,0.0,0.0,0.0,0.0,0.0,0.0,0.0,0.0,0.0,0.0,0.0,0.0,0.0,0.0,0.0,0.6756,0.6934,0.7175,0.0,0.0,0.0,0.0,0.0,0.0,0.0,0.0,0.0,0.8485,0.8716,0.9021,0.9348,0.9402,0.947,0.9576,0.9687,0.9788,0.9781,0.9292,0.8713,0.0,0.0,0.0,0.0,0.0,0.0,0.0,0.0,0.0,0.0,0.0,0.0,0.0,0.0,0.0,0.0,0.0,0.0,0.0,0.0,0.0,0.0,0.0,0.0,0.0,0.0,0.0,0.823,0.7799,0.0,0.0,0.0,0.0,0.0,0.0,0.0,0.0,0.0,0.0,0.0,1.2157,1.3304,0.0,0.0,0.0,0.0,0.0,0.0,0.0,0.0,0.0,0.0,0.0,0.0,0.7109,0.7136,0.7709,0.8001,0.8001,0.8001,0.8001,0.8001,0.8001,0.7816,0.7403,0.0,0.0,0.0,0.0,0.0,0.0,0.0,0.0,0.0,0.0,0.0,0.0,0.0,0.0,0.0,0.0,0.0,0.0,0.0,0.0,0.0,0.0,0.0,0.0,0.0,0.7121,0.0,0.0,0.0,0.0,0.0,0.0,0.0,0.0,0.0,0.0,0.811,0.8237,0.8464,0.8654,0.8831,0.9048,0.9238,0.9416,0.0,0.0,0.0,0.0,0.0,0.0,0.0,0.0,0.0,0.0,0.0,0.0,0.0,0.0,1.0944,1.0814,1.1686,1.2126,1.1002,0.0,0.0,0.0,0.0,0.0,0.0,0.0,0.0,0.0,0.0,0.0,0.0,0.0,0.0,0.9314,0.9297,1.0091,0.0,0.0,0.0,0.0,0.0,0.0,0.0,0.0,1.3461,1.3764,1.3692,1.4631,1.5004,1.4858,1.5436,1.4377,0.0,0.0,0.0,0.0,0.0,0.0,0.0,0.0,0.7206,0.7233,0.7736,0.8001,0.8001,0.8001,0.8001,0.8001,0.7953,0.7789,0.7485,0.7068,0.6783,0.0,0.0,0.0,0.0,0.0,0.0,0.0,0.0,0.0,0.0,0.0,0.0,0.0,0.0,0.0,0.0,0.0,0.0,0.0,0.0,0.0,0.0,0.0,0.7341,0.0,0.0,0.0,0.0,0.0,0.0,0.0,0.0,0.0,0.7993,0.8097,0.8269,0.8584,0.8709,0.8818,0.8994,0.0,0.0,0.0,0.0,0.0,0.0,0.0,0.8831,0.9405,0.9518,0.9482,0.9363,0.9787,1.0161,1.013,0.0,0.0,1.1343,1.2154,1.2304,1.0704,1.2336,1.5051,1.8179,1.7898,1.7107,0.0,0.0,0.0,0.0,0.7945,0.0,0.0,0.0,0.9656,1.0296,0.0,1.1393,0.0,0.0,0.0,0.0,1.2968,1.4179,0.0,0.0,1.575,1.6087,1.5784,1.5796,1.5796,1.5821,1.6112,1.5627,1.4392,1.324,0.0,0.0,0.0,0.0,0.0,0.0,0.7414,0.741,0.779,0.8001,0.8001,0.8001,0.8001,0.8001,0.7883,0.7746,0.7597,0.7283,0.7053,0.6893,0.6538,0.0,0.0,0.0,0.0,0.0,0.0,0.0,0.0,0.0,0.0,0.0,0.0,0.0,0.0,0.0,0.0,0.0,0.0,0.0,0.0,0.7297,0.0,0.0,0.0,0.0,0.0,0.0,0.0,0.0,0.0,0.8133,0.8184,0.8403,0.8634,0.8866,0.0,0.0,0.0,0.0,0.8967,0.9179,0.9045,0.8931,0.8931,0.9409,0.9585,0.904,0.0,0.0,0.929,0.9917,1.031,0.988,1.0162,1.0725,1.1521,1.1331,1.0666,0.943,1.4059,1.8714,1.9332,1.9154,1.8774,1.1452,0.0,0.0,0.0,0.0,1.0564,1.0789,1.1271,1.2139,1.2342,1.2146,1.3105,0.0,0.0,0.0,0.0,0.0,0.0,1.5325,1.5486,1.5789,1.59,1.5808,1.6046,1.6032,1.5821,1.6126,1.5984,1.5391,1.4849,1.3222,1.0561,0.0,0.0,0.0,0.0,0.7536,0.7556,0.7856,0.8001,0.8001,0.8001,0.8001,0.8001,0.7859,0.7746,0.7592,0.7419,0.719,0.6918,0.6872,0.0,0.0,0.0,0.0,0.0,0.0,0.0,0.0,0.0,0.0,0.0,0.0,0.0,0.0,0.0,0.0,0.0,0.0,0.0,0.694,0.7512,0.8189,0.0,0.0,0.0,0.0,0.0,0.0,0.0,0.0,0.0,1.0289,0.9894,0.9457,0.0,0.0,0.9127,0.9009,0.894,0.8974,0.9187,0.9223,0.0,0.9257,0.9567,0.9738,0.9559,0.969,0.9733,0.9519,0.9698,0.9816,0.9691,0.9691,0.9857,1.0259,1.028,1.0026,0.981,1.1255,1.414,1.8232,1.8747,1.8202,1.3167,1.3766,1.1786,1.1319,1.1904,1.181,1.2131,1.2729,1.347,1.3766,1.3786,1.4596,1.4785,1.4489,1.449,0.0,0.0,0.0,1.5635,1.582,1.582,1.582,1.5833,1.6007,1.5993,1.5821,1.5993,1.6005,1.5808,1.5635,1.4371,1.2092,0.0,0.9909,0.8317,0.8398,0.8212,0.7716,0.7891,0.8001,0.8001,0.8001,0.8001,0.8001,0.7925,0.7822,0.7685,0.7554,0.7376,0.7115,0.7091,0.6957,0.0,0.0,0.0,0.0,0.0,0.0,0.0,0.0,0.0,0.0,0.0,0.6467,0.6385,0.0,0.0,0.0,0.7711,0.8462,0.812,0.8951,0.0,0.0,0.0,0.0,0.0,0.0,0.0,1.0407,1.0916,1.1194,1.1188,1.0272,0.9551,0.9402,0.9236,0.9109,0.9029,0.0,0.896,0.9172,0.9195,0.9251,0.9384,0.9617,0.9724,0.9484,0.9443,0.9487,0.9523,0.9517,0.9496,0.9457,0.943,0.9419,0.945,0.9537,0.9585,0.9471,0.9643,1.1932,1.8133,1.8447,1.7768,1.4,1.605,1.3704,1.2523,1.2205,1.2205,1.2909,1.404,1.404,1.471,1.5796,1.582,1.5673,1.5431,1.5431,0.0,1.5433,1.5688,1.5795,1.582,1.582,1.582,1.582,1.5808,1.582,1.5808,1.582,1.582,1.582,1.5795,1.5378,1.4513,1.3772,1.2122,0.972,0.973,0.9208,0.8023,0.8014,0.8001,0.8001,0.8001,0.8001,0.8001,0.7982,0.7913,0.7802,0.7672,0.7541,0.7407,0.7215,0.711,0.7086,0.0,0.0,0.0,0.0,0.0,0.0,0.0,0.0,0.0,0.0,0.0,0.0,0.0,0.0,0.6307,0.9506,0.0,1.0119,1.1078,0.0,0.0,0.0,1.2204,1.2489,1.178,1.1463,1.1844,0.0,0.0,1.0944,0.9744,0.9136,0.9866,0.9398,0.9016,0.9187,0.9042,0.896,0.9172,0.9038,0.9021,0.9291,0.9528,0.9514,0.9046,0.8907,0.905,0.9311,0.934,0.93,0.9199,0.9275,0.9252,0.8933,0.9174,0.9256,0.8987,0.9353,1.1625,1.7576,1.8325,1.7636,1.5738,1.5892,1.5534,1.5178,1.4878,1.4866,1.5045,1.5343,1.533,1.551,1.582,1.582,1.5768,1.5701,1.5713,1.5701,1.5703,1.5768,1.582,1.582,1.582,1.582,1.582,1.582,1.582,1.582,1.582,1.582,1.582,1.582,1.5694,1.5467,1.5278,1.4106,1.1989,1.0626,0.9903,0.9788,0.8596,0.8001,0.8001,0.8001,0.8001,0.8001,0.791,0.7824,0.7807,0.7684,0.7541,0.7403,0.7208,0.7108,0.7107,0.6781,0.0,0.0,0.0,0.0,0.0,0.0,0.0,0.0,0.0,0.6708,0.6813,0.0,0.6743,0.0,0.9823,1.1834,1.1193,1.1694,0.0,0.0,1.2098,1.183,1.3351,1.2214,1.1459,1.1856,1.0062,0.8763,0.8755,0.8662,0.8659,0.8881,0.9174,0.9317,0.923,0.9014,0.8974,0.9138,0.9013,0.893,0.9015,0.9056,0.9079,0.8922,0.8912,0.8984,0.9205,0.9117,0.9014,0.8967,0.8818,0.8783,0.8883,0.898,0.8981,0.8912,0.903,1.0904,1.6731,1.7798,1.7605,1.6102,1.5821,1.6005,1.5967,1.582,1.582,1.582,1.582,1.582,1.582,1.582,1.582,1.582,1.582,1.582,1.582,1.582,1.582,1.582,1.582,1.582,1.582,1.582,1.582,1.582,1.582,1.582,1.582,1.582,1.582,1.582,1.5771,1.5223,1.4484,1.3516,1.1761,1.0396,0.9483,0.8489,0.8001,0.8001,0.8001,0.8001,0.8001,0.7877,0.7814,0.7807,0.7611,0.7428,0.7267,0.7148,0.7112,0.7105,0.6843,0.6569,0.0,0.0,0.0,0.0,0.0,0.0,0.0,0.0,0.0,0.0,0.0,0.8218,1.0018,1.2426,1.3536,1.2723,1.3355,1.4034,1.4568,1.3696,1.352,1.4638,1.3408,1.231,1.1946,0.9604,0.7995,0.799,0.8175,0.8275,0.8282,0.8725,0.9052,0.9003,0.8926,0.894,0.9056,0.8974,0.8905,0.8902,0.8911,0.8858,0.8756,0.8722,0.877,0.8879,0.8805,0.8723,0.8696,0.8594,0.8538,0.8689,0.8719,0.8747,0.8846,0.8687,1.0818,1.629,1.7619,1.7542,1.582,1.582,1.582,1.582,1.582,1.582,1.582,1.582,1.582,1.582,1.582,1.582,1.582,1.582,1.582,1.582,1.582,1.582,1.582,1.582,1.582,1.582,1.582,1.582,1.582,1.582,1.582,1.582,1.582,1.582,1.582,1.5737,1.4544,1.4019,1.4157,1.2596,1.0623,0.8307,0.8094,0.8001,0.8001,0.8001,0.8001,0.7994,0.7863,0.7782,0.7801,0.7561,0.7351,0.717,0.7136,0.7092,0.7056,0.6839,0.6593,0.0,0.6347,0.0,0.0,0.0,0.0,0.0,0.0,0.0,0.0,0.7814,1.0161,1.4518,1.5444,1.5389,1.4364,1.5197,1.582,1.5796,1.5666,1.5557,1.5498,1.4423,1.3189,1.2045,0.9902,0.8571,0.913,0.8524,0.7998,0.804,0.8307,0.8559,0.8635,0.8784,0.8879,0.8899,0.8912,0.8912,0.8906,0.8907,0.8797,0.8521,0.8428,0.8446,0.8506,0.8505,0.8459,0.8472,0.8444,0.8411,0.8438,0.8451,0.8525,0.8696,0.922,1.1114,1.492,1.6924,1.7305,1.582,1.582,1.582,1.582,1.582,1.582,1.582,1.582,1.582,1.582,1.582,1.582,1.582,1.582,1.582,1.582,1.582,1.582,1.582,1.582,1.582,1.582,1.582,1.582,1.582,1.582,1.582,1.582,1.582,1.582,1.582,1.5749,1.4631,1.3633,1.2792,0.0,0.0,0.0,0.8031,0.8001,0.8001,0.8001,0.8001,0.7994,0.7768,0.0,0.7789,0.7651,0.7543,0.7504,0.7239,0.0,0.0,0.0,0.0,0.0,0.0,0.0,0.0,0.0,0.0,0.0,0.6766,0.6816,0.7263,0.9373,1.1727,1.4053,1.521,1.5626,1.5206,1.5524,1.582,1.5772,1.4878,1.4256,1.422,1.3102,1.2159,1.1932,1.1448,1.197,1.3557,1.0735,0.8085,0.8022,0.8188,0.8322,0.8383,0.8594,0.8777,0.8865,0.8906,0.8906,0.8912,0.8913,0.8709,0.8266,0.8103,0.8197,0.8419,0.8396,0.8355,0.8335,0.822,0.8095,0.8108,0.8094,0.8122,0.8174,1.208,1.4719,1.1449,1.3984,1.6836,1.582,1.582,1.582,1.582,0.0,1.582,1.574,1.5631,1.5753,1.582,1.582,1.582,1.582,1.582,1.582,1.582,1.582,1.582,1.582,1.582,1.582,1.582,1.582,1.582,1.582,1.582,1.582,1.582,1.582,1.582,1.582,1.5784,1.4033,1.2913,1.2366,1.0603,0.9144,0.8019,0.8,0.8001,0.8001,0.8001,0.8001,0.7982,0.7809,0.0,0.0,0.0,0.0,0.0,0.0,0.0,0.0,0.6834,0.0,0.6901,0.6763,0.6736,0.6782,0.68,0.6857,0.6988,0.7486,0.7567,0.7058,0.9458,1.1878,1.389,1.4904,1.535,1.5234,1.5565,1.5766,1.5598,1.5146,1.4842,1.4782,1.4244,1.3836,1.3824,1.3836,1.44,1.5577,1.2489,0.9502,0.8234,0.809,0.8187,0.8301,0.8472,0.8668,0.8871,0.8913,0.8913,0.8905,0.891,0.868,0.8157,0.7995,0.8064,0.8211,0.8195,0.8166,0.8153,0.8067,0.8001,0.7995,0.7999,0.8001,0.8213,1.0586,1.3155,1.2086,1.445,1.5809,1.582,1.582,1.582,1.582,1.582,1.582,1.5686,1.5473,1.566,0.0,0.0,1.5781,1.582,1.582,1.582,1.582,1.582,1.582,1.582,1.582,1.582,1.582,1.582,1.582,1.582,1.582,1.582,1.582,1.582,1.582,1.5835,1.5686,1.3684,1.2324,1.1687,0.9586,0.8319,0.8006,0.7994,0.8001,0.8001,0.8001,0.8001,0.8001,0.7864,0.7748,0.7621,0.7626,0.7432,0.702,0.7351,0.735,0.6908,0.7017,0.7115,0.7094,0.6888,0.6837,0.6931,0.6945,0.6981,0.7074,0.8215,0.8473,0.7442,0.937,1.1574,1.3889,1.4654,1.501,1.5044,1.5511,1.5715,1.5498,1.5673,1.5796,1.5796,1.582,1.5689,1.582,1.5676,1.5787,1.5688,1.346,1.0937,0.8657,0.8016,0.8054,0.8227,0.8403,0.8591,0.8764,0.8788,0.8822,0.8876,0.8766,0.856,0.8097,0.8002,0.7995,0.8001,0.8001,0.8001,0.8014,0.8001,0.8001,0.8001,0.7995,0.7996,0.8,0.8029,0.9575,1.4296,1.5395,1.4419,1.582,1.582,1.582,1.582,1.582,1.582,1.5781,1.5728,1.5526,1.5458,1.5471,1.5713,1.582,1.582,1.582,1.582,1.582,1.582,1.582,1.582,1.582,1.582,1.582,1.582,1.582,1.582,1.582,1.582,1.582,1.582,1.594,1.6036,1.4921,1.2615,0.9604,0.8683,0.8238,0.7993,0.7987,0.8001,0.8001,0.8001,0.8001,0.7994,0.7883,0.7778,0.7687,0.7734,0.7627,0.7348,0.7389,0.7432,0.7461,0.722,0.7114,0.7114,0.7064,0.7055,0.7058,0.7087,0.7067,0.7147,0.8215,0.9209,0.9998,1.0387,1.1563,1.3844,1.4666,1.5059,1.5183,1.5559,1.5781,1.5716,1.5793,1.582,1.582,1.582,1.582,1.582,1.582,1.5808,1.5585,1.3535,1.0943,0.8698,0.7989,0.8014,0.8088,0.8309,0.8505,0.8551,0.8565,0.8651,0.8733,0.8429,0.8161,0.8013,0.7995,0.8001,0.8001,0.8001,0.8001,0.8001,0.8001,0.8001,0.8001,0.8001,0.7995,0.8003,0.7996,0.9702,1.425,1.3763,1.2333,1.582,1.582,1.582,1.5715,1.5541,1.5234,1.5206,1.5349,1.5229,1.5351,1.5608,1.5755,1.582,1.582,1.582,1.582,1.582,1.582,1.582,1.582,1.582,1.582,1.582,1.582,1.582,1.582,1.582,1.582,1.582,1.582,1.5979,1.6151,1.4533,1.1952,0.8889,0.8503,0.8271,0.8008,0.7997,0.8001,0.8001,0.8002,0.7996,0.7989,0.7941,0.7898,0.7868,0.7885,0.7752,0.7416,0.7381,0.7373,0.7321,0.7177,0.7043,0.6908,0.6951,0.6965,0.6884,0.6884,0.6918,0.7025,0.8107,0.8751,0.87,1.1059,1.2945,1.4022,1.4903,1.5372,1.5232,1.5553,1.5741,1.5618,1.5701,1.5795,1.582,1.582,1.582,1.582,1.582,1.5809,1.5805,1.3534,1.0937,0.8554,0.8003,0.8001,0.8001,0.8134,0.8241,0.8223,0.8225,0.8265,0.8384,0.8205,0.8005,0.7996,0.7998,0.7995,0.8001,0.8001,0.8001,0.8001,0.8001,0.8001,0.7988,0.8001,0.8001,0.7994,0.7991,0.9365,1.0853,1.0513,1.0147,1.582,1.582,1.582,1.5675,1.5444,1.4925,1.4894,1.516,1.5108,1.5351,1.5768,1.582,1.582,1.582,1.582,1.582,1.582,1.582,1.582,1.582,1.582,1.582,1.582,1.582,1.582,1.582,1.582,1.582,1.5808,1.5875,1.5931,1.5792,1.3883,1.1743,0.9633,0.8818,0.8303,0.8021,0.8001,0.8001,0.7988,0.8003,0.7997,0.7985,0.7603,0.7583,0.7962,0.797,0.7804,0.7472,0.7423,0.7306,0.7108,0.7065,0.6967,0.6829,0.6826,0.6803,0.6715,0.6725,0.6793,0.6908,0.805,0.8277,0.7591,1.0888,1.3559,1.4099,1.5014,1.5469,1.5246,1.5481,1.5633,1.5444,1.5635,1.5795,1.582,1.582,1.582,1.582,1.582,1.5799,1.5301,1.3005,1.0227,0.847,0.7998,0.8001,0.8001,0.8001,0.8001,0.7996,0.8001,0.8015,0.8003,0.8,0.8002,0.8002,0.7988,0.8001,0.8001,0.8001,0.8001,0.8001,0.8001,0.8003,0.7991,0.7992,0.7999,0.7993,0.8004,0.8081,0.8326,0.846,0.8414,1.582,1.582,1.582,1.5795,1.5701,1.5406,1.5444,1.5646,1.5471,1.5526,1.5807,1.582,1.582,1.582,1.582,1.582,1.582,1.582,1.582,1.582,1.582,1.582,1.582,1.582,1.582,1.582,1.582,1.582,1.5821,1.6124,1.5855,1.5047,1.3671,1.2873,1.2417,0.9778,0.822,0.8007,0.8001,0.8001,0.7995,0.7996,0.7997,0.7985,0.6474,0.6392,0.7879,0.7868,0.7737,0.7596,0.7463,0.7308,0.7123,0.6977,0.6957,0.7034,0.6854,0.6715,0.6719,0.6799,0.687,0.6993,0.8122,0.8433,0.7433,0.9502,1.1879,1.3672,1.4696,1.5063,1.5027,1.5289,1.5446,1.5458,1.5658,1.582,1.582,1.582,1.582,1.582,1.582,1.5809,1.5344,1.1706,0.8579,0.8122,0.7994,0.8001,0.8001,0.8001,0.8001,0.8001,0.7996,0.7996,0.7988,0.7995,0.799,0.7995,0.8001,0.8001,0.8001,0.8001,0.8001,0.8001,0.8001,0.7991,0.799,0.7999,0.8018,0.8113,0.8087,0.7997,0.8042,0.8195,0.8418,1.582,1.582,1.582,1.562,1.5336,1.5202,1.5215,1.5322,1.5378,1.5553,1.5781,1.582,1.582,1.582,1.582,1.582,1.582,1.582,1.582,1.582,1.582,1.582,1.582,1.582,1.582,1.582,1.582,1.582,1.59,1.6287,1.5507,1.3657,1.3109,1.2251,1.0719,0.9111,0.8194,0.8007,0.8001,0.8001,0.7988,0.8003,0.7228,0.5924,0.6455,0.703,0.731,0.6674,0.6553,0.7225,0.7375,0.731,0.7116,0.705,0.6901,0.6652,0.6529,0.6467,0.6474,0.6508,0.6624,0.6755,0.7905,0.8711,0.9164,1.0087,1.1564,1.3691,1.4635,1.5011,1.5028,1.5239,1.5446,1.5595,1.5741,1.582,1.582,1.582,1.582,1.582,1.582,1.5811,1.5096,1.1264,0.8313,0.8,0.8001,0.8001,0.8001,0.8001,0.8001,0.8001,0.8001,0.8001,0.8001,0.8001,0.8001,0.8001,0.8001,0.8001,0.8001,0.8001,0.8001,0.8001,0.8001,0.7989,0.7999,0.8196,0.8327,0.8378,0.8166,0.8037,0.8263,0.8242,0.8198,1.582,1.582,1.582,1.558,1.5215,1.5215,1.5215,1.5229,1.5443,1.5608,1.5795,1.582,1.582,1.582,1.582,1.582,1.582,1.582,1.582,1.582,1.582,1.582,1.582,1.582,1.582,1.582,1.582,1.5848,1.598,1.6434,1.5254,1.291,1.2833,1.1597,0.9038,0.8445,0.8194,0.8014,0.8001,0.8001,0.7988,0.7989,0.706,0.5477,0.6959,0.7459,0.63,0.5931,0.621,0.7121,0.7287,0.7247,0.7109,0.7059,0.6804,0.6372,0.6327,0.634,0.6297,0.6355,0.6631,0.7193,0.8301,0.9447,1.0441,1.1177,1.2292,1.3793,1.4502,1.4739,1.4769,1.508,1.5366,1.5566,1.5675,1.5795,1.582,1.582,1.582,1.582,1.582,1.5802,1.5088,1.1397,0.7999,0.7993,0.8001,0.8001,0.8001,0.8001,0.8001,0.8001,0.8001,0.8001,0.8001,0.8001,0.8001,0.8001,0.8001,0.8001,0.8001,0.8001,0.8001,0.8001,0.8001,0.7991,0.7995,0.8222,0.8474,0.8646,0.8441,0.8069,0.823,0.8176,0.8239,1.582,1.582,1.582,1.578,1.5755,1.5741,1.573,1.5675,1.5755,1.5795,1.582,1.582,1.582,1.582,1.582,1.582,1.582,1.582,1.582,1.582,1.582,1.582,1.582,1.582,1.5808,1.5848,1.586,1.5992,1.6271,1.6491,1.5305,1.2759,1.278,1.1433,0.8929,0.8379,0.8207,0.8021,0.8001,0.8001,0.8001,0.7988,0.7902,0.7647,0.791,0.6854,0.4914,0.6342,0.7444,0.7379,0.7222,0.7116,0.7082,0.6921,0.6641,0.6349,0.6426,0.6436,0.6344,0.6512,0.7093,0.8248,0.9485,1.047,1.0697,1.2457,1.3699,1.4087,1.4159,1.4204,1.4322,1.4794,1.5079,1.5173,1.554,1.578,1.582,1.582,1.582,1.582,1.582,1.5806,1.5641,1.1266,0.8502,0.7992,0.8001,0.8001,0.8001,0.8001,0.8001,0.8001,0.8001,0.8001,0.8001,0.8001,0.8001,0.8046,0.8072,0.8014,0.8001,0.8001,0.8001,0.8001,0.8001,0.7992,0.7998,0.8108,0.8321,0.8402,0.829,0.8135,0.8259,0.8368,0.8431,1.582,1.582,1.582,1.5701,1.5566,1.5728,1.5713,1.5566,1.5716,1.582,1.582,1.582,1.582,1.582,1.582,1.582,1.582,1.582,1.582,1.582,1.582,1.582,1.582,1.5808,1.5927,1.6099,1.6112,1.6259,1.6442,1.5948,1.4649,1.2911,1.1983,1.0564,0.8828,0.8368,0.8194,0.8021,0.8001,0.8001,0.8001,0.8001,0.7995,0.7989,0.799,0.7427,0.6226,0.7035,0.7388,0.7217,0.7141,0.7109,0.7071,0.6699,0.6433,0.6327,0.6353,0.6364,0.6334,0.6464,0.7102,0.8338,0.968,1.0572,1.0953,1.2702,1.4092,1.4092,1.4092,1.4236,1.4618,1.4867,1.5158,1.5471,1.5673,1.582,1.582,1.582,1.582,1.582,1.5808,1.5806,1.4849,1.1244,0.8148,0.7998,0.8001,0.8001,0.8001,0.8001,0.8001,0.8001,0.8001,0.8001,0.8001,0.8001,0.8027,0.817,0.8222,0.8152,0.8133,0.8054,0.8028,0.8007,0.8001,0.8002,0.7995,0.8019,0.8218,0.8248,0.8124,0.8137,0.8297,0.8428,0.8505,1.582,1.582,1.582,1.5701,1.5565,1.574,1.5688,1.5553,1.5728,1.582,1.582,1.582,1.582,1.5833,1.5901,1.5967,1.5967,1.5953,1.5967,1.5968,1.606,1.6047,1.598,1.6035,1.608,1.6174,1.6429,1.6588,1.6537,1.5501,1.4195,1.2754,1.1413,0.998,0.8703,0.8307,0.8127,0.8014,0.8001,0.8001,0.8001,0.8001,0.8001,0.7988,0.7989,0.7872,0.7585,0.7516,0.7399,0.7267,0.7163,0.7111,0.7065,0.6768,0.6478,0.6344,0.6343,0.6368,0.644,0.6827,0.7681,0.8963,1.0262,1.1164,1.174,1.3205,1.3976,1.4116,1.4308,1.4591,1.4889,1.5084,1.5294,1.562,1.5741,1.5795,1.582,1.582,1.582,1.582,1.582,1.5807,1.519,1.1019,0.8569,0.8,0.8001,0.8001,0.8001,0.8001,0.8001,0.8001,0.8001,0.8001,0.8001,0.8001,0.8131,0.8275,0.846,0.8378,0.82,0.812,0.8041,0.8014,0.8001,0.8001,0.7993,0.7999,0.807,0.817,0.8117,0.8078,0.8285,0.8509,0.8529,1.582,1.582,1.582,1.5795,1.5768,1.5795,1.582,1.5793,1.5795,1.582,1.582,1.582,1.5821,1.5875,1.6124,1.627,1.6297,1.6337,1.6312,1.6312,1.6539,1.65,1.6312,1.65,1.6402,1.6033,1.6656,1.6904,1.6718,1.5491,1.414,1.2633,1.1225,0.9863,0.8488,0.8232,0.8041,0.7996,0.8002,0.8001,0.8001,0.8001,0.8001,0.8001,0.7988,0.7994,0.7961,0.7722,0.7572,0.7529,0.7269,0.7114,0.7105,0.7054,0.6853,0.6428,0.6438,0.6491,0.6608,0.7529,0.8612,1.0044,1.144,1.2405,1.3451,1.3934,1.4092,1.4164,1.4526,1.4947,1.5055,1.5207,1.5376,1.5444,1.565,1.5795,1.582,1.582,1.582,1.582,1.5808,1.5806,1.4788,1.1244,0.821,0.7997,0.8027,0.8021,0.8014,0.8021,0.8014,0.8001,0.8001,0.8001,0.8001,0.8007,0.8203,0.8386,0.859,0.8648,0.8355,0.82,0.8081,0.8028,0.8001,0.8001,0.7989,0.8015,0.8191,0.8252,0.8138,0.8027,0.8168,0.8336,0.8472,1.582,1.582,1.582,1.582,1.582,1.582,1.582,1.582,1.5808,1.582,1.582,1.582,1.5939,1.6124,1.627,1.6404,1.658,1.6792,1.6792,1.6632,1.6686,1.6673,1.6607,1.6648,1.6717,1.6824,1.7193,1.738,1.7068,1.5858,1.4479,1.3045,1.1589,1.0076,0.8593,0.8386,0.8251,0.8029,0.7998,0.8001,0.8001,0.8001,0.8001,0.8001,0.8001,0.8001,0.7987,0.7748,0.7568,0.7473,0.7229,0.7111,0.7112,0.7116,0.6933,0.664,0.6607,0.6593,0.6569,0.7116,0.8384,0.9998,1.091,1.2109,1.3752,1.4092,1.4105,1.4105,1.4298,1.4623,1.53,1.526,1.5307,1.5621,1.5743,1.582,1.582,1.582,1.582,1.582,1.582,1.5803,1.4931,1.1281,0.8325,0.8021,0.8112,0.8147,0.806,0.812,0.8127,0.8034,0.8021,0.7995,0.7988,0.8009,0.8128,0.8271,0.8475,0.8636,0.8394,0.8247,0.8127,0.8048,0.8008,0.8003,0.7997,0.8056,0.8203,0.8217,0.8056,0.8012,0.8024,0.8184,0.8412,1.582,1.582,1.582,1.582,1.582,1.582,1.582,1.5821,1.594,1.5915,1.5835,1.594,1.6099,1.6297,1.6404,1.6606,1.6886,1.7206,1.7234,1.706,1.7047,1.6981,1.6875,1.6733,1.6931,1.7301,1.7515,1.7608,1.7476,1.5541,1.407,1.3113,1.1195,0.9681,0.8709,0.8534,0.8386,0.8233,0.8163,0.8114,0.81,0.804,0.8001,0.8001,0.8001,0.8001,0.7975,0.7801,0.7631,0.7516,0.7283,0.7119,0.711,0.7099,0.7021,0.6887,0.6794,0.6732,0.6737,0.7738,0.8768,1.0276,1.1337,1.2452,1.3807,1.4092,1.4098,1.4109,1.4343,1.4736,1.5294,1.5454,1.5458,1.5753,1.5795,1.582,1.582,1.582,1.582,1.582,1.582,1.5803,1.4835,1.2486,0.9063,0.8412,0.8172,0.8281,0.8186,0.822,0.818,0.8115,0.8052,0.8031,0.8002,0.8017,0.8046,0.8156,0.8291,0.8362,0.8287,0.8241,0.8154,0.8057,0.7998,0.8002,0.7997,0.8,0.8065,0.8008,0.8078,0.8156,0.8247,0.841,0.8602,1.5821,1.5808,1.582,1.582,1.582,1.582,1.5847,1.59,1.6098,1.6099,1.5968,1.6151,1.6324,1.6405,1.6646,1.69,1.722,1.7421,1.7582,1.7568,1.7542,1.7408,1.7194,1.6961,1.7133,1.7569,1.7675,1.7702,1.7609,1.5364,1.3282,1.3142,1.0875,0.8861,0.8912,0.8647,0.8553,0.8512,0.8396,0.8295,0.8255,0.8095,0.8002,0.7995,0.8001,0.8001,0.798,0.7878,0.7795,0.7736,0.7363,0.7161,0.7124,0.7112,0.7088,0.7068,0.6965,0.7015,0.7435,0.8668,1.0171,1.0866,1.2428,1.406,1.4018,1.4093,1.4101,1.4124,1.4654,1.5064,1.5244,1.5433,1.5701,1.5781,1.582,1.582,1.582,1.582,1.582,1.582,1.5809,1.5817,1.5603,1.3059,1.0353,0.8807,0.8232,0.8301,0.8328,0.8342,0.8321,0.8244,0.8135,0.8127,0.8119,0.8012,0.8045,0.8142,0.827,0.8379,0.8281,0.8214,0.8154,0.8057,0.8009,0.8012,0.809,0.815,0.8196,0.8255,0.8334,0.8407,0.8519,0.8664,0.8679,1.6032,1.5808,1.582,1.582,1.582,1.582,1.5941,1.6138,1.6005,1.618,1.638,1.6338,1.6589,1.6951,1.7019,1.7233,1.7461,1.7568,1.7729,1.7849,1.7675,1.7582,1.7515,1.7409,1.753,1.7889,1.8104,1.8252,1.8223,1.7125,1.5714,1.3764,1.2683,1.1009,0.9314,0.8824,0.8689,0.8561,0.8486,0.8319,0.8128,0.8056,0.7995,0.7995,0.8007,0.8007,0.8001,0.7979,0.7844,0.7653,0.7555,0.7343,0.7174,0.7126,0.7112,0.7098,0.7093,0.7407,0.8143,0.8916,1.0061,1.1659,1.2529,1.3133,1.4042,1.4097,1.4097,1.4263,1.4961,1.5581,1.5571,1.5556,1.563,1.578,1.582,1.582,1.582,1.582,1.582,1.582,1.582,1.5805,1.4992,1.2132,0.9203,0.8528,0.8392,0.8438,0.8451,0.8506,0.8519,0.8367,0.8275,0.8261,0.8209,0.8086,0.806,0.8144,0.8326,0.8571,0.8386,0.8175,0.8094,0.7989,0.805,0.8072,0.835,0.8539,0.8562,0.8534,0.8614,0.8709,0.8753,0.8845,0.8769,1.6353,1.618,1.6168,1.618,1.618,1.6182,1.6287,1.6445,1.642,1.6473,1.6673,1.6698,1.6883,1.7192,1.7219,1.7354,1.7582,1.7702,1.7849,1.7969,1.7996,1.7916,1.7822,1.7809,1.7982,1.821,1.8482,1.8563,1.8354,1.7923,1.6184,1.4152,1.3278,1.1643,0.9317,0.9047,0.8967,0.8804,0.8723,0.8546,0.838,0.8267,0.8173,0.8142,0.812,0.8088,0.8014,0.8001,0.7913,0.7795,0.775,0.7671,0.7475,0.7211,0.7123,0.7106,0.7113,0.7413,0.8084,0.8924,1.0265,1.1663,1.2486,1.3577,1.4237,1.4294,1.4139,1.4571,1.5321,1.5714,1.5794,1.5673,1.5658,1.5768,1.582,1.5808,1.5808,1.582,1.582,1.582,1.5808,1.5806,1.57,1.1323,0.9089,0.8438,0.8523,0.856,0.8587,0.8669,0.8683,0.8535,0.8428,0.8408,0.8467,0.8388,0.8382,0.8428,0.8454,0.8711,0.8487,0.8222,0.8195,0.8144,0.8137,0.821,0.8465,0.8698,0.8789,0.8798,0.89,0.8913,0.8919,0.8905,0.8845,1.6728,1.6688,1.6688,1.6688,1.6661,1.6688,1.6687,1.6794,1.6939,1.6966,1.6927,1.7113,1.726,1.7286,1.7461,1.7514,1.7742,1.7969,1.8049,1.821,1.8371,1.8451,1.8169,1.8221,1.8355,1.8544,1.8738,1.8792,1.8524,1.7422,1.5968,1.4592,1.3116,1.1401,1.0106,0.9502,0.9234,0.9083,0.8927,0.8804,0.8716,0.8593,0.8464,0.8309,0.8261,0.8174,0.8054,0.8001,0.7987,0.7994,0.7995,0.7954,0.7898,0.7435,0.7162,0.7126,0.7177,0.731,0.7885,0.9697,1.1009,1.1971,1.3606,1.4636,1.4787,1.4539,1.4464,1.484,1.5487,1.5753,1.5797,1.5808,1.5873,1.5927,1.5913,1.5901,1.5836,1.5821,1.582,1.5808,1.5809,1.5817,1.4741,1.2443,0.9403,0.8727,0.8851,0.9122,0.8945,0.8737,0.8771,0.8723,0.8629,0.8562,0.8642,0.8709,0.8757,0.8791,0.8757,0.8796,0.8578,0.8391,0.8383,0.8359,0.8321,0.8355,0.8461,0.8656,0.8852,0.8906,0.8913,0.8913,0.8913,0.8913,0.8871,1.6939,1.6688,1.6688,1.6688,1.6688,1.6701,1.686,1.7086,1.69,1.7113,1.7354,1.7501,1.7649,1.7849,1.8036,1.8264,1.825,1.8343,1.8397,1.8478,1.8972,1.8999,1.8745,1.8693,1.8721,1.8868,1.9146,1.9241,1.9032,1.8674,1.7879,1.6233,1.4474,1.3105,1.1469,1.0032,0.9316,0.9028,0.8921,0.8823,0.8764,0.8783,0.8681,0.8478,0.8343,0.8207,0.8047,0.8001,0.8001,0.7994,0.8004,0.7995,0.7925,0.7665,0.7399,0.7277,0.7387,0.8181,0.9836,1.0689,1.1938,1.3676,1.4343,1.493,1.4972,1.4925,1.4856,1.5079,1.5473,1.5787,1.5847,1.6059,1.6139,1.6192,1.6339,1.6393,1.6194,1.5968,1.5814,1.5814,1.5803,1.5816,1.5888,1.6059,1.3309,1.0215,0.933,0.9729,0.9389,0.8886,0.8825,0.8825,0.8791,0.8716,0.8757,0.8825,0.8859,0.8914,0.8907,0.8934,0.8716,0.858,0.8574,0.8554,0.8508,0.8555,0.8607,0.8708,0.8912,0.8905,0.8912,0.8918,0.8909,0.8915,0.9004,1.73,1.7114,1.7127,1.7114,1.7114,1.7128,1.7275,1.7502,1.7408,1.7582,1.7943,1.8023,1.8103,1.825,1.841,1.849,1.8531,1.8637,1.8784,1.896,1.9267,1.9294,1.9187,1.9138,1.9151,1.9308,1.9356,1.9516,1.9642,1.9417,1.8555,1.7129,1.5479,1.3654,1.2101,1.045,0.9604,0.9307,0.9021,0.8868,0.8898,0.8872,0.8825,0.8601,0.8404,0.8247,0.816,0.8047,0.8007,0.8001,0.8001,0.7995,0.7982,0.7875,0.7704,0.7634,0.8141,0.8811,1.014,1.1495,1.2733,1.4271,1.4868,1.5212,1.5326,1.5383,1.5376,1.5429,1.5631,1.5848,1.6019,1.6139,1.6312,1.6485,1.6607,1.6646,1.6462,1.6092,1.5799,1.581,1.5807,1.619,1.6666,1.7273,1.5878,1.2113,1.0289,1.0482,0.9297,0.8879,0.8885,0.8879,0.8892,0.8892,0.8872,0.8892,0.8886,0.8906,0.8913,0.8988,0.8954,0.8852,0.8784,0.8757,0.8716,0.8729,0.8781,0.889,0.8929,0.8917,0.8922,0.8924,0.8931,0.8962,0.9123,1.7729,1.7742,1.7729,1.7729,1.7729,1.7729,1.7849,1.8049,1.8076,1.817,1.8478,1.8544,1.8531,1.8584,1.8637,1.8651,1.8718,1.8865,1.9119,1.9308,1.9348,1.9389,1.9362,1.9429,1.9575,1.98,1.9602,1.9733,1.9933,1.9727,1.9116,1.7664,1.5615,1.4201,1.2592,1.0651,0.9633,0.9587,0.9309,0.9117,0.9142,0.9017,0.8829,0.8669,0.8526,0.8383,0.8295,0.8168,0.8048,0.8034,0.8002,0.7995,0.7999,0.7999,0.7992,0.8037,0.882,0.9644,1.0491,1.1977,1.3458,1.3929,1.4853,1.5495,1.5703,1.573,1.5731,1.5795,1.591,1.6107,1.6323,1.6497,1.6591,1.6739,1.6807,1.682,1.6717,1.6313,1.6222,1.6024,1.6305,1.6732,1.7099,1.7481,1.5901,1.4368,1.2598,1.097,0.9839,0.9009,0.9064,0.8978,0.8984,0.8916,0.8903,0.8917,0.891,0.8967,0.896,0.9063,0.9145,0.9124,0.9029,0.896,0.8932,0.8943,0.8961,0.9008,0.9017,0.8971,0.9087,0.9236,0.9198,0.9062,0.9241,1.8357,1.8357,1.8357,1.8357,1.8344,1.833,1.8357,1.841,1.841,1.8437,1.8544,1.873,1.8837,1.8877,1.9146,1.9227,1.9187,1.9254,1.9321,1.9388,1.9416,1.9416,1.9481,1.9614,1.9838,1.9998,1.9892,1.9958,2.0185,2.0058,1.977,1.9016,1.6608,1.4806,1.3638,1.1603,0.9877,0.9712,0.9591,0.9511,0.9332,0.9098,0.8867,0.8757,0.8648,0.8567,0.8451,0.8329,0.826,0.8234,0.8081,0.8013,0.8089,0.8095,0.829,0.8546,0.9335,1.0316,1.1405,1.2762,1.4188,1.5117,1.5634,1.5716,1.5808,1.5823,1.5842,1.6013,1.6283,1.6585,1.6632,1.6831,1.7019,1.7153,1.7261,1.7341,1.7194,1.7145,1.6976,1.6634,1.697,1.7242,1.7482,1.7711,1.7079,1.5843,1.4353,1.2441,1.0849,0.9934,0.9391,0.9253,0.9068,0.8982,0.8903,0.8912,0.892,0.9034,0.9083,0.9207,0.9275,0.9322,0.9287,0.9245,0.9182,0.9144,0.9162,0.916,0.9286,0.936,0.9494,0.9619,0.9506,0.9398,0.9424,1.849,1.849,1.849,1.849,1.849,1.849,1.8598,1.8704,1.8718,1.8825,1.8973,1.9106,1.9173,1.92,1.9308,1.9416,1.9416,1.9416,1.9416,1.9416,1.9416,1.9495,1.9587,1.976,2.008,2.0307,2.0349,2.0388,2.0599,2.0317,2.0332,1.9841,1.7709,1.6052,1.472,1.2608,1.0785,1.0109,0.9774,0.9705,0.9504,0.9222,0.9034,0.8947,0.8791,0.8676,0.8601,0.8472,0.8369,0.8288,0.8112,0.8024,0.8343,0.9315,1.0043,1.0154,1.0587,1.1442,1.2734,1.4039,1.5106,1.5639,1.5965,1.6046,1.6014,1.596,1.5976,1.6337,1.6788,1.7097,1.699,1.7139,1.7247,1.7434,1.7649,1.7716,1.7702,1.7809,1.7583,1.7265,1.7409,1.7554,1.7592,1.7807,1.8023,1.7228,1.5963,1.4131,1.2086,1.1208,1.0477,0.9462,0.9276,0.9273,0.9163,0.9086,0.9097,0.9192,0.9241,0.9344,0.9412,0.9471,0.9537,0.957,0.9505,0.9353,0.9329,0.932,0.9537,0.9711,0.9709,0.9723,0.9758,0.9762,0.9716,1.8664,1.8678,1.8678,1.8678,1.8692,1.8678,1.8798,1.8985,1.9011,1.9132,1.9374,1.9402,1.9389,1.9415,1.944,1.948,1.9495,1.9548,1.9615,1.9614,1.9614,1.9721,1.984,2.0028,2.0256,2.059,2.075,2.0898,2.0906,2.0666,2.0601,2.0153,1.8877,1.7326,1.5683,1.3615,1.1924,1.0821,0.9863,0.9758,0.9614,0.941,0.9241,0.9179,0.8934,0.8798,0.8737,0.8594,0.8506,0.8365,0.8181,0.7999,0.853,1.1076,1.2768,1.2824,1.2585,1.3033,1.3882,1.5187,1.5902,1.6088,1.6246,1.6326,1.633,1.6251,1.6259,1.6831,1.7238,1.7518,1.7392,1.7381,1.7528,1.7756,1.7983,1.8102,1.8116,1.8155,1.8139,1.7953,1.7902,1.7836,1.7836,1.8076,1.8333,1.8073,1.6851,1.5697,1.3838,1.2893,1.1888,1.0179,0.9511,0.9578,0.95,0.9356,0.9389,0.9465,0.9476,0.953,0.9574,0.9612,0.9685,0.9753,0.9658,0.9525,0.9485,0.9488,0.9643,0.975,0.9788,0.9802,0.9799,0.9793,0.9761,1.9294,1.9309,1.9281,1.9294,1.9282,1.9268,1.9294,1.9321,1.9321,1.9348,1.9416,1.9429,1.9443,1.9495,1.9666,1.9733,1.9798,1.9932,2.0027,1.9998,2.0025,2.0065,2.0199,2.0468,2.055,2.0777,2.0951,2.1056,2.1053,2.0973,2.096,2.0634,1.9443,1.8031,1.7261,1.4975,1.2773,1.2034,1.0623,0.9791,0.9749,0.9594,0.9424,0.9247,0.9138,0.9042,0.8906,0.8784,0.8757,0.8775,0.8302,0.8047,0.8847,1.3318,1.5565,1.572,1.4985,1.4102,1.4605,1.5665,1.6487,1.6474,1.6594,1.6634,1.6678,1.6707,1.6841,1.7435,1.7618,1.7734,1.7849,1.7876,1.8076,1.8223,1.8343,1.841,1.8464,1.8611,1.8579,1.8597,1.8548,1.8205,1.8013,1.8346,1.8605,1.8274,1.778,1.6643,1.5446,1.432,1.2413,1.0473,0.9649,0.9702,0.9709,0.9585,0.9662,0.974,0.9693,0.9679,0.9723,0.9759,0.9793,0.9814,0.9753,0.9707,0.967,0.969,0.9746,0.9778,0.9785,0.9792,0.98,0.9792,0.9803,1.9416,1.9416,1.9416,1.9416,1.9416,1.9416,1.9416,1.9416,1.9416,1.9416,1.9441,1.9589,1.9708,1.984,1.997,2.0025,2.0065,2.0185,2.0197,2.0224,2.0237,2.0319,2.0468,2.063,2.0737,2.0922,2.1029,2.1053,2.1093,2.1093,2.1093,2.0956,2.0241,1.9261,1.858,1.6804,1.4755,1.2923,1.1022,0.9937,0.9798,0.969,0.9525,0.9322,0.9344,0.9283,0.9195,0.9103,0.9473,0.9626,0.9174,0.8434,0.9703,1.3514,1.7277,1.7589,1.6767,1.6062,1.587,1.6386,1.6666,1.6794,1.6874,1.7034,1.7156,1.7213,1.7437,1.8047,1.8117,1.8185,1.8251,1.8276,1.8343,1.849,1.8664,1.8718,1.8798,1.9029,1.9123,1.917,1.9146,1.8768,1.8518,1.8747,1.9,1.8872,1.8539,1.7828,1.6463,1.5097,1.2835,1.0188,0.9805,0.9774,0.9772,0.9727,0.9901,0.995,0.9807,0.9806,0.9863,0.99,0.9949,1.0032,1.0082,1.0004,0.9866,0.9788,0.9785,0.9781,0.9792,0.9795,0.9805,0.983,0.9828,1.9455,1.9416,1.9416,1.9416,1.9416,1.9416,1.9441,1.9508,1.9507,1.9548,1.9641,1.9813,2.0025,2.0184,2.025,2.0332,2.0332,2.0399,2.041,2.0424,2.0437,2.057,2.0735,2.0831,2.0909,2.1093,2.1066,2.1093,2.1093,2.1093,2.1093,2.1093,2.0911,2.0317,1.9267,1.7888,1.6034,1.2299,1.1844,1.1003,1.0098,1.0202,0.994,0.9791,0.9779,0.9975,0.9931,1.0546,1.123,1.141,1.0863,1.0265,1.0949,1.4795,1.774,1.8191,1.7742,1.7463,1.7186,1.7236,1.7142,1.7221,1.7328,1.7675,1.7756,1.7773,1.7997,1.8632,1.8714,1.8685,1.8612,1.8583,1.8691,1.8798,1.8931,1.8985,1.9065,1.9255,1.9351,1.93,1.9303,1.9344,1.9189,1.9277,1.9377,1.9391,1.9127,1.8753,1.7618,1.6182,1.5069,1.2743,1.038,1.0199,0.9836,0.9887,1.0066,1.0723,1.0609,1.0445,1.08,1.0437,1.0127,1.0231,1.0551,1.0227,1.0051,0.9915,0.9792,0.9799,0.9802,0.9793,0.9806,0.9862,0.9948,1.9613,1.9416,1.9415,1.9429,1.9429,1.9416,1.9547,1.9773,1.9773,1.992,2.0105,2.0185,2.0212,2.0319,2.0548,2.0657,2.067,2.0906,2.0933,2.096,2.1026,2.0973,2.1029,2.1056,2.108,2.1149,2.1229,2.12,2.1133,2.1269,2.1189,2.1093,2.1107,2.1017,2.0163,1.8673,1.6429,1.3649,1.3464,1.295,1.1785,1.1403,1.1384,1.0517,1.1061,1.1778,1.171,1.2683,1.3497,1.3714,1.2969,1.3033,1.3713,1.6448,1.8455,1.855,1.8481,1.829,1.8237,1.813,1.8277,1.833,1.833,1.8277,1.8263,1.7889,1.8229,1.9084,1.9139,1.9067,1.8937,1.8861,1.9065,1.9185,1.9319,1.9399,1.9439,1.9426,1.9508,1.9443,1.9416,1.9415,1.942,1.9411,1.9411,1.9411,1.9411,1.9054,1.8794,1.7745,1.7983,1.6179,1.2301,1.0763,0.9997,1.0574,1.2472,1.3229,1.3265,1.27,1.2324,1.1728,1.1467,1.1192,1.1571,1.0889,1.0265,1.0161,1.0046,0.9871,0.9836,0.9997,1.0073,1.0148,1.0233,1.9825,1.9878,1.9878,1.9815,1.9667,1.9826,1.996,2.0039,2.0037,2.0212,2.0508,2.0508,2.0601,2.0762,2.0855,2.0964,2.0978,2.1042,2.108,2.1093,2.108,2.1093,2.1133,2.1299,2.1422,2.1432,2.1539,2.1643,2.167,2.1606,2.1513,2.1432,2.1243,2.1107,2.0389,1.9426,1.7705,1.7045,1.6091,1.5143,1.6385,1.4286,1.356,1.3067,1.3043,1.3507,1.351,1.3995,1.4756,1.5146,1.4645,1.5128,1.6046,1.8137,1.8844,1.8967,1.8855,1.8852,1.8905,1.8745,1.8504,1.8544,1.8597,1.8689,1.8637,1.856,1.8836,1.9285,1.9439,1.9334,1.9258,1.9344,1.9533,1.9653,1.9733,1.98,1.9813,1.9773,1.9675,1.9622,1.9483,1.9399,1.9409,1.9417,1.9403,1.9417,1.9402,1.9358,1.9122,1.8971,1.9024,1.8627,1.501,1.1367,1.0383,1.2512,1.5094,1.5401,1.552,1.4741,1.39,1.4282,1.397,1.3404,1.229,1.1523,1.0899,1.0544,1.0324,1.0231,1.0274,1.0383,1.0442,1.0442,1.0452,2.0105,2.0224,2.0382,2.025,1.9957,2.0117,2.025,2.0346,2.0346,2.0519,2.0817,2.0831,2.0909,2.1053,2.108,2.1096,2.1066,2.108,2.108,2.112,2.1203,2.1229,2.1352,2.1529,2.1716,2.177,2.1877,2.1967,2.194,2.1994,2.186,2.1673,2.1486,2.1349,2.0811,2.0116,1.9913,2.0015,1.9165,1.8054,1.9694,1.751,1.5349,1.5153,1.5258,1.5491,1.5629,1.6098,1.6757,1.6979,1.6903,1.7154,1.8199,1.9118,1.9355,1.9335,1.9245,1.9199,1.9265,1.9106,1.8771,1.8851,1.9051,1.9022,1.898,1.9165,1.9301,1.9383,1.9508,1.9635,1.9659,1.9785,1.9865,1.9932,1.9998,2.0065,2.0064,2.0037,1.991,1.9799,1.9628,1.9427,1.9562,1.9575,1.959,1.959,1.9562,1.9589,1.9541,1.9443,1.9471,1.8898,1.7396,1.3852,1.0881,1.2448,1.4004,1.5659,1.5763,1.586,1.5535,1.5831,1.4737,1.2678,1.1787,1.1751,1.1401,1.085,1.0697,1.0651,1.0654,1.0596,1.0612,1.058,1.0563,2.0481,2.029,2.0826,2.0719,2.0265,2.0225,2.0414,2.0655,2.0684,2.0815,2.1029,2.104,2.1053,2.1093,2.1093,2.1093,2.1093,2.1093,2.112,2.1216,2.1392,2.1545,2.1676,2.182,2.1994,2.1994,2.2101,2.2184,2.2087,2.2154,2.2074,2.1994,2.186,2.16,2.1144,2.1075,2.1067,2.1008,2.0473,2.0591,2.0315,1.8806,1.7345,1.6778,1.7124,1.7489,1.7547,1.821,1.8754,1.8736,1.8743,1.8841,1.9134,1.9397,1.9507,1.9489,1.9434,1.9517,1.9733,1.9494,1.9387,1.9373,1.9558,1.9566,1.9429,1.9448,1.9428,1.9471,1.9863,2.0139,2.0186,2.017,2.0199,2.0224,2.0306,2.037,2.0397,2.0397,2.0311,2.0252,1.9809,1.9469,1.9663,1.9779,1.9795,1.9776,1.9748,1.9774,1.9813,1.982,1.982,1.9529,1.8686,1.7101,1.4071,1.2296,1.2956,1.4869,1.6416,1.6949,1.6685,1.6375,1.4704,1.2331,1.2158,1.2898,1.2064,1.1084,1.1526,1.1918,1.0922,1.0682,1.0699,1.0695,1.0658,2.0735,2.0813,2.1013,2.0971,2.0799,2.0799,2.0866,2.0949,2.096,2.1015,2.1096,2.1093,2.1093,2.1093,2.1107,2.1107,2.1122,2.1107,2.1162,2.1432,2.1596,2.1716,2.1887,2.2128,2.2288,2.2342,2.2435,2.2559,2.2626,2.2515,2.2392,2.2311,2.2111,2.1682,2.1338,2.1251,2.1365,2.1137,2.096,2.098,2.0976,2.0159,1.9385,1.8738,1.9172,1.9231,1.9102,1.9854,1.994,1.985,1.9779,1.9651,1.9578,1.9626,1.99,1.9873,1.9844,1.9825,1.9992,1.9958,1.9947,1.9987,1.9985,2.002,1.9945,1.9932,1.9758,1.9722,2.0291,2.0619,2.0796,2.0608,2.0567,2.0603,2.0668,2.0815,2.0866,2.0869,2.0815,2.0811,2.0552,2.0401,2.0481,2.0338,2.0273,2.0149,2.0134,2.0065,2.0092,2.0077,2.0083,2.0078,1.9602,1.9028,1.7735,1.6038,1.569,1.7754,1.8772,1.9095,1.8543,1.7264,1.7237,1.6188,1.5118,1.4125,1.3183,1.2555,1.3178,1.3236,1.1633,1.0711,1.0714,1.0716,1.07,2.0935,2.1093,2.1093,2.1093,2.1093,2.1093,2.1093,2.1093,2.1093,2.1093,2.1093,2.1093,2.1093,2.112,2.1216,2.1256,2.1285,2.139,2.1456,2.1726,2.1863,2.1994,2.2191,2.2435,2.2569,2.2649,2.2743,2.288,2.284,2.288,2.2756,2.2582,2.2395,2.2194,2.1891,2.1813,2.1805,2.1649,2.1611,2.1301,2.1223,2.0937,2.075,2.0588,2.056,2.0387,2.0382,2.0359,2.0304,2.022,2.0074,1.992,1.987,1.9905,2.0262,2.0334,2.0313,2.0267,2.0328,2.0506,2.0521,2.0532,2.0439,2.0326,2.0326,2.0372,2.0332,2.0402,2.0772,2.092,2.1033,2.0853,2.0848,2.0884,2.0909,2.1056,2.1069,2.1042,2.1031,2.1072,2.1096,2.1097,2.1077,2.101,2.0829,2.0665,2.0517,2.0437,2.0384,2.0397,2.041,2.0418,2.0455,2.0032,1.9989,1.9839,1.991,2.0888,2.0798,2.0438,1.9352,1.8036,1.9056,1.9483,1.7023,1.506,1.4368,1.4055,1.3496,1.2618,1.1266,1.0714,1.0717,1.0717,1.0717,2.108,2.1093,2.1093,2.1093,2.1093,2.1093,2.1093,2.1093,2.1093,2.1093,2.1136,2.1162,2.1203,2.1243,2.1489,2.1596,2.1622,2.182,2.1924,2.2044,2.2178,2.2308,2.2498,2.2743,2.2823,2.288,2.2947,2.2979,2.2916,2.3081,2.3041,2.2974,2.296,2.2769,2.2559,2.2408,2.2359,2.2323,2.1941,2.1687,2.1574,2.1368,2.1218,2.1136,2.104,2.0909,2.0804,2.0697,2.0561,2.041,2.026,2.0242,2.0176,2.004,2.0494,2.0769,2.0772,2.0726,2.0722,2.0895,2.0962,2.0893,2.0802,2.0568,2.0513,2.071,2.0746,2.0784,2.0987,2.1032,2.1063,2.1045,2.1042,2.104,2.104,2.108,2.108,2.108,2.108,2.1089,2.1089,2.1085,2.109,2.1056,2.104,2.096,2.0797,2.0773,2.0746,2.0842,2.084,2.0866,2.0917,2.0984,2.1093,2.1093,2.1088,2.1081,2.1041,2.066,1.9578,1.896,1.9467,1.918,1.7324,1.5893,1.5009,1.3805,1.2572,1.1627,1.0941,1.1754,1.2081,1.0966,1.0734,2.1093,2.1093,2.1093,2.1093,2.1093,2.1093,2.1093,2.1093,2.1093,2.1216,2.1462,2.1448,2.1526,2.1737,2.1847,2.1874,2.1914,2.1981,2.2124,2.2255,2.2402,2.2552,2.2766,2.2997,2.3037,2.3037,2.3077,2.3176,2.3247,2.3371,2.3509,2.3549,2.3455,2.3284,2.3063,2.2891,2.292,2.2758,2.2265,2.2012,2.1906,2.1756,2.1606,2.1486,2.1406,2.1261,2.1071,2.0978,2.0869,2.0826,2.0813,2.0828,2.0828,2.0788,2.098,2.1009,2.1004,2.1004,2.1002,2.1069,2.112,2.1133,2.1042,2.0986,2.0913,2.0944,2.1094,2.1078,2.1078,2.1087,2.1098,2.1096,2.1093,2.1093,2.1093,2.1093,2.1093,2.1093,2.1093,2.1093,2.1093,2.1093,2.1093,2.1082,2.1065,2.1085,2.1066,2.1029,2.1015,2.1069,2.1096,2.108,2.1093,2.1093,2.1093,2.1093,2.1093,2.1091,2.1046,2.1017,2.0573,2.0116,1.9989,1.9511,1.868,1.7125,1.5459,1.4789,1.5203,1.2142,1.1203,1.2456,1.3244,1.2708,1.1776,2.1093,2.1093,2.1093,2.1093,2.1107,2.1243,2.1299,2.1299,2.1299,2.1435,2.1598,2.1703,2.185,2.1967,2.2084,2.2164,2.2178,2.2355,2.2489,2.2552,2.2575,2.2699,2.2943,2.3166,2.3193,2.3193,2.3313,2.35,2.3554,2.3652,2.379,2.3777,2.3817,2.3594,2.3399,2.3368,2.3386,2.3075,2.266,2.2281,2.2168,2.2101,2.1903,2.1813,2.1703,2.1472,2.1296,2.1229,2.1107,2.1093,2.1093,2.1093,2.1093,2.108,2.1078,2.112,2.1251,2.1283,2.1341,2.143,2.139,2.1339,2.1283,2.1203,2.1107,2.1053,2.1082,2.1082,2.1096,2.108,2.108,2.1093,2.1093,2.1093,2.1093,2.1093,2.1093,2.1093,2.1093,2.1093,2.1093,2.1093,2.1093,2.1093,2.1093,2.1093,2.1093,2.1066,2.1053,2.1066,2.108,2.108,2.1093,2.1093,2.1093,2.1093,2.1093,2.1093,2.1077,2.1077,2.1093,2.0969,2.0589,2.0694,2.0797,1.9148,1.7509,1.8807,1.8911,1.577,1.3668,1.5011,1.6241,1.6339,1.5164,2.1093,2.1093,2.1136,2.1136,2.1147,2.1475,2.1596,2.1612,2.1665,2.1679,2.1743,2.1943,2.2074,2.2221,2.2365,2.2458,2.2512,2.2662,2.2783,2.2934,2.2899,2.2983,2.313,2.3247,2.3399,2.3479,2.3621,2.3808,2.3826,2.3933,2.4013,2.3866,2.3919,2.3901,2.3883,2.3794,2.3794,2.3748,2.3167,2.2672,2.2552,2.2338,2.2071,2.2064,2.189,2.1646,2.1553,2.1392,2.116,2.1173,2.1187,2.1213,2.1102,2.1378,2.1371,2.1293,2.1499,2.159,2.1662,2.1753,2.174,2.1689,2.1625,2.1389,2.1245,2.1102,2.1093,2.1165,2.1194,2.1367,2.1426,2.1411,2.139,2.1323,2.1272,2.1189,2.1093,2.1093,2.1093,2.1093,2.1093,2.1093,2.1093,2.1093,2.1093,2.1093,2.1093,2.1093,2.1189,2.1189,2.1147,2.1147,2.1093,2.1093,2.1093,2.1093,2.1093,2.1093,2.1093,2.1093,2.1093,2.1093,2.1093,2.1091,2.1102,2.1091,2.0475,2.0956,2.0942,1.9955,1.8435,1.8606,1.8971,1.894,1.7863,2.1093,2.1107,2.1365,2.1339,2.1189,2.1686,2.1783,2.1636,2.2047,2.2205,2.2231,2.2281,2.2432,2.2626,2.2702,2.2783,2.2823,2.2943,2.302,2.3153,2.3207,2.3318,2.3576,2.3728,2.3719,2.3687,2.3825,2.411,2.4128,2.4244,2.4391,2.4404,2.4409,2.4382,2.4314,2.4244,2.4254,2.4251,2.387,2.3451,2.3354,2.314,2.2926,2.2676,2.2425,2.2101,2.1981,2.1833,2.1764,2.1777,2.1777,2.1538,2.1156,2.197,2.2154,2.192,2.1867,2.19,2.194,2.2021,2.2007,2.1967,2.1838,2.1526,2.1306,2.1152,2.1147,2.1248,2.1408,2.1611,2.1784,2.1746,2.1686,2.1582,2.1491,2.1325,2.116,2.1131,2.1117,2.1088,2.1088,2.1088,2.1102,2.112,2.1093,2.1093,2.1093,2.1162,2.1395,2.1462,2.1349,2.1309,2.1133,2.1107,2.1093,2.1093,2.1093,2.1093,2.1093,2.1093,2.1107,2.1213,2.1293,2.1147,2.1093,2.1086,2.1083,2.1059,2.1065,2.1089,2.0972,2.0135,2.0167,2.0198,1.9253,2.1093,2.1133,2.1462,2.1489,2.1446,2.1937,2.2101,2.2061,2.2435,2.2619,2.2605,2.2649,2.2729,2.2947,2.301,2.3077,2.3117,2.3255,2.3384,2.3487,2.3541,2.3625,2.3866,2.4088,2.3969,2.3897,2.4176,2.439,2.4421,2.4479,2.4599,2.4764,2.4805,2.4754,2.468,2.4655,2.4651,2.4569,2.4402,2.428,2.4102,2.3754,2.3487,2.3211,2.289,2.2565,2.2355,2.2211,2.2007,2.1994,2.1967,2.1879,2.177,2.2325,2.2637,2.2447,2.2291,2.2178,2.2218,2.2258,2.2271,2.2218,2.2178,2.1909,2.17,2.1555,2.1305,2.1422,2.1657,2.1864,2.2149,2.2182,2.1955,2.1793,2.177,2.1686,2.1474,2.1302,2.1194,2.1084,2.109,2.1086,2.1193,2.1501,2.1421,2.12,2.1173,2.1363,2.1582,2.1759,2.1633,2.1553,2.1446,2.12,2.1093,2.1093,2.1093,2.1093,2.1115,2.1229,2.1323,2.1456,2.151,2.1427,2.1283,2.1088,2.1088,2.1094,2.1091,2.1086,2.1081,2.0935,2.1094,2.1081,2.031,2.1093,2.1149,2.1502,2.1625,2.1705,2.2218,2.2445,2.2428,2.2743,2.2893,2.2867,2.2867,2.2907,2.3037,2.3162,2.3283,2.342,2.3545,2.3719,2.3826,2.3839,2.3941,2.4048,2.415,2.4186,2.4341,2.4591,2.4722,2.4786,2.4826,2.4938,2.5077,2.5039,2.4988,2.4942,2.5006,2.512,2.5047,2.493,2.4799,2.4506,2.4142,2.3919,2.3643,2.3322,2.2997,2.2813,2.2586,2.2248,2.2194,2.2245,2.2184,2.2341,2.2751,2.2815,2.2798,2.267,2.2565,2.2525,2.2679,2.2622,2.2552,2.2482,2.2348,2.2135,2.1955,2.173,2.178,2.2021,2.222,2.2478,2.2532,2.2274,2.2034,2.2034,2.2007,2.174,2.1533,2.1404,2.1263,2.1313,2.1329,2.1509,2.1835,2.174,2.1505,2.1486,2.166,2.182,2.1967,2.1977,2.1957,2.1906,2.1636,2.1214,2.1174,2.1211,2.1187,2.1247,2.1405,2.1555,2.1686,2.1777,2.1801,2.1639,2.1394,2.1155,2.1083,2.1094,2.1093,2.1091,2.1086,2.1086,2.1088,2.1091,2.1093,2.1133,2.1686,2.181,2.1759,2.2465,2.2662,2.2485,2.2756,2.2893,2.289,2.2934,2.3014,2.3229,2.3238,2.3416,2.3701,2.3852,2.3986,2.4106,2.4115,2.4244,2.4376,2.4412,2.465,2.4871,2.5118,2.5268,2.5165,2.5218,2.5237,2.5176,2.5149,2.5173,2.5273,2.5313,2.527,2.5346,2.5144,2.487,2.4853,2.4529,2.4195,2.3888,2.3536,2.3518,2.3438,2.3247,2.3109,2.3006,2.2794,2.2684,2.2867,2.3188,2.3322,2.3121,2.2989,2.2886,2.289,2.2867,2.2756,2.2769,2.2729,2.2716,2.2596,2.2592,2.2464,2.2471,2.264,2.267,2.2831,2.2785,2.2599,2.2355,2.2261,2.2154,2.1988,2.1925,2.1876,2.1988,2.2151,2.2134,2.2139,2.2301,2.2269,2.207,2.1985,2.213,2.2138,2.2231,2.2321,2.2331,2.2325,2.1839,2.1342,2.1375,2.1404,2.1381,2.1454,2.1719,2.1874,2.19,2.1994,2.2124,2.1996,2.1746,2.1518,2.1205,2.1081,2.1093,2.1093,2.1093,2.1093,2.1093,2.1093]}]]